[[{"header":{"parameterUnit":"m.s-1","parameterCategory":1,"la1":31.0,"la2":29.5877,"lo1":-88.7671,"lo2":-86.6584,"dy":0.0162,"dx":0.0185,"nx":115,"ny":88,"refTime":"2023-03-23T06:00:00:Z","depth":0,"parameterNumber":2,"parameterNumberName":"U-component_of_WINDS"},"data":[0.0,0.0,0.0,0.0,0.0,0.0,0.0,0.0,0.0,0.0,0.0,0.0,0.0,0.0,0.0,0.0,0.0,0.0,0.0,0.0,0.0,0.0,0.0,0.0,0.0,0.0,0.0,0.0,0.0,0.0,0.0,0.0,0.0,0.0,0.0,0.0,0.0,0.0,0.0,0.0,0.0,0.0,0.0,0.0,0.0,0.0,0.0,0.0,0.0,0.0,0.0,0.0,0.0,0.0,0.0,0.0,0.0,0.0,0.0,0.0,0.0,0.0,0.0,0.0,0.0,0.0,0.0,0.0,0.0,0.0,0.0,0.0,0.0,0.0,0.0,0.0,0.0,0.0,0.0,0.0,0.0,0.0,0.0,0.0,0.0,0.0,0.0,0.0,0.0,0.0,0.0,0.0,0.0,0.0,0.0,0.0,0.0,0.0,0.0,0.0,0.0,0.0,0.0,0.0,0.0,0.0,0.0,0.0,0.0,0.0,0.0,0.0,0.0,0.0,0.0,0.0,0.0,0.0,0.0,0.0,0.0,0.0,0.0,0.0,0.0,0.0,0.0,0.0,0.0,0.0,0.0,0.0,0.0,0.0,0.0,0.0,0.0,0.0,0.0,0.0,0.0,0.0,0.0,0.0,0.0,0.0,0.0,0.0,0.0,0.0,0.0,0.0,0.0,0.0,0.0,0.0,0.0,0.0,0.0,0.0,0.0,0.0,0.0,0.0,0.0,0.0,0.0,0.0,0.0,0.0,0.0,0.0,0.0,0.0,0.0,0.0,0.0,0.0,0.0,0.0,0.0,0.0,0.0,0.0,0.0,0.0,0.0,0.0,0.0,0.0,0.0,0.0,0.0,0.0,0.0,0.0,0.0,0.0,0.0,0.0,0.0,0.0,0.0,0.0,0.0,0.0,0.0,0.0,0.0,0.0,0.0,0.0,0.0,0.0,0.0,0.0,0.0,0.0,0.0,0.0,0.0,0.0,0.0,0.0,0.0,0.0,0.0,0.0,0.0,0.0,0.0,0.0,0.0,0.0,0.0,0.0,0.0,0.0,0.0,0.0,0.0,0.0,0.0,0.0,0.0,0.0,0.0,0.0,0.0,0.0,0.0,0.0,0.0,0.0,0.0,0.0,0.0,0.0,0.0,0.0,0.0,0.0,0.0,0.0,0.0,0.0,0.0,0.0,0.0,0.0,0.0,0.0,0.0,0.0,0.0,0.0,0.0,0.0,0.0,0.0,0.0,0.0,0.0,0.0,0.0,0.0,0.0,0.0,0.0,0.0,0.0,0.0,0.0,0.0,0.0,0.0,0.0,0.0,0.0,0.0,0.0,0.0,0.0,0.0,0.0,0.0,0.0,0.0,0.0,0.0,0.0,0.0,0.0,0.0,0.0,0.0,0.0,0.0,0.0,0.0,0.0,0.0,0.0,0.0,0.0,0.0,0.0,0.0,0.0,0.0,0.0,0.0,0.0,0.0,0.0,0.0,0.0,0.0,0.0,0.0,0.0,0.0,0.0,0.0,0.0,0.0,0.0,0.0,0.0,0.0,0.0,0.0,0.0,0.0,0.0,0.0,0.0,0.0,0.0,0.0,0.0,0.0,0.0,0.0,0.0,0.0,0.0,0.0,0.0,0.0,0.0,0.0,0.0,0.0,0.0,0.0,0.0,0.0,0.0,0.0,0.0,0.0,0.0,0.0,0.0,0.0,0.0,0.0,0.0,0.0,0.0,0.0,0.0,0.0,0.0,0.0,0.0,0.0,0.0,0.0,0.0,0.0,0.0,0.0,0.0,0.0,0.0,0.0,0.0,0.0,0.0,0.0,0.0,0.0,0.0,0.0,0.0,0.0,0.0,0.0,0.0,0.0,0.0,0.0,0.0,0.0,0.0,0.0,0.0,0.0,0.0,0.0,0.0,0.0,0.0,0.0,0.0,0.0,0.0,0.0,0.0,0.0,0.0,0.0,0.0,0.0,0.0,0.0,0.0,0.0,0.0,0.0,0.0,0.0,0.0,0.0,0.0,0.0,0.0,0.0,0.0,0.0,0.0,0.0,0.0,0.0,0.0,0.0,0.0,0.0,0.0,0.0,0.0,0.0,0.0,0.0,0.0,0.0,0.0,0.0,0.0,0.0,0.0,0.0,0.0,0.0,0.0,0.0,0.0,0.0,0.0,0.0,0.0,0.0,0.0,0.0,0.0,0.0,0.0,0.0,0.0,0.0,0.0,0.0,0.0,0.0,0.0,0.0,0.0,0.0,0.0,0.0,0.0,0.0,0.0,0.0,0.0,0.0,0.0,0.0,0.0,0.0,0.0,0.0,0.0,0.0,0.0,0.0,0.0,0.0,0.0,0.0,0.0,0.0,0.0,0.0,0.0,0.0,0.0,0.0,0.0,0.0,0.0,0.0,0.0,0.0,0.0,0.0,0.0,0.0,0.0,0.0,0.0,0.0,0.0,0.0,0.0,0.0,0.0,0.0,0.0,0.0,0.0,0.0,0.0,0.0,0.0,0.0,0.0,0.0,0.0,0.0,0.0,0.0,0.0,0.0,0.0,0.0,0.0,0.0,0.0,0.0,0.0,0.0,0.0,0.0,0.0,0.0,0.0,0.0,0.0,0.0,0.0,0.0,0.0,0.0,0.0,0.0,0.0,0.0,0.0,0.0,0.0,0.0,0.0,0.0,0.0,0.0,0.0,0.0,0.0,0.0,0.0,0.0,0.0,0.0,0.0,0.0,0.0,0.0,0.0,0.0,0.0,0.0,0.0,0.0,0.0,0.0,0.0,0.0,0.0,0.0,0.0,0.0,0.0,0.0,0.0,0.0,0.0,0.0,0.0,0.0,0.0,0.0,0.0,0.0,0.0,0.0,0.0,0.0,0.0,0.0,0.0,0.0,0.0,0.0,0.0,0.0,0.0,0.0,0.0,0.0,0.0,0.0,0.0,0.0,0.0,0.0,0.0,0.0,0.0,0.0,0.0,0.0,0.0,0.0,0.0,0.0,0.0,0.0,0.0,0.0,0.0,0.0,0.0,0.0,0.0,0.0,0.0,0.0,0.0,0.0,0.0,0.0,0.0,0.0,0.0,0.0,0.0,0.0,0.0,0.0,0.0,0.0,0.0,0.0,0.0,0.0,0.0,0.0,0.0,0.0,0.0,0.0,0.0,0.0,0.0,0.0,0.0,0.0,0.0,0.0,0.0,0.0,0.0,0.0,0.0,0.0,0.0,0.0,0.0,0.0,0.0,0.0,0.0,0.0,0.0,0.0,0.0,0.0,0.0,0.0,0.0,0.0,0.0,0.0,0.0,0.0,0.0,0.0,0.0,0.0,0.0,0.0,0.0,0.0,0.0,0.0,0.0,0.0,0.0,0.0,0.0,0.0,0.0,0.0,0.0,0.0,0.0,0.0,0.0,0.0,0.0,0.0,0.0,0.0,0.0,0.0,0.0,0.0,0.0,0.0,0.0,0.0,0.0,0.0,0.0,0.0,0.0,0.0,0.0,0.0,0.0,0.0,0.0,0.0,0.0,0.0,0.0,0.0,0.0,0.0,0.0,0.0,0.0,0.0,0.0,0.0,0.0,0.0,0.0,0.0,0.0,0.0,0.0,0.0,0.0,0.0,0.0,0.0,0.0,0.0,0.0,0.0,0.0,0.0,0.0,0.0,0.0,0.0,0.0,0.0,0.0,0.0,0.0,0.0,0.0,0.0,0.0,0.0,0.0,0.0,0.0,0.0,0.0,0.0,0.0,0.0,0.0,0.0,0.0,0.0,0.0,0.0,0.0,0.0,0.0,0.0,0.0,0.0,0.0,0.0,0.0,0.0,0.0,0.0,0.0,0.0,0.0,0.0,0.0,0.0,0.0,0.0,0.0,0.0,0.0,0.0,0.0,0.0,0.0,0.0,0.0,0.0,0.0,0.0,0.0,0.0,0.0,0.0,0.0,0.0,0.0,0.0,0.0,0.0,0.0,0.0,0.0,0.0,0.0,0.0,0.0,0.0,0.0,0.0,0.0,0.0,0.0,0.0,0.0,0.0,0.0,0.0,0.0,0.0,0.0,0.0,0.0,0.0,0.0,0.0,0.0,0.0,0.0,0.0,0.0,0.0,0.0,0.0,0.0,0.0,0.0,0.0,0.0,0.0,0.0,0.0,0.0,0.0,0.0,0.0,0.0,0.0,0.0,0.0,0.0,0.0,0.0,0.0,0.0,0.0,0.0,0.0,0.0,0.0,0.0,0.0,0.0,0.0,0.0,0.0,0.0,0.0,0.0,0.0,-5.416,0.0,0.0,0.0,0.0,0.0,0.0,0.0,0.0,0.0,0.0,0.0,0.0,0.0,0.0,0.0,0.0,0.0,0.0,0.0,0.0,0.0,0.0,0.0,0.0,0.0,0.0,0.0,0.0,0.0,0.0,0.0,0.0,0.0,0.0,0.0,0.0,0.0,0.0,0.0,0.0,0.0,0.0,0.0,0.0,0.0,0.0,0.0,0.0,0.0,0.0,0.0,0.0,0.0,0.0,0.0,0.0,0.0,0.0,0.0,0.0,0.0,0.0,0.0,0.0,0.0,0.0,0.0,0.0,0.0,0.0,0.0,0.0,0.0,0.0,0.0,0.0,0.0,0.0,0.0,0.0,0.0,0.0,0.0,0.0,0.0,0.0,0.0,0.0,0.0,0.0,0.0,0.0,0.0,0.0,0.0,0.0,0.0,0.0,0.0,0.0,0.0,0.0,0.0,0.0,0.0,0.0,0.0,0.0,0.0,0.0,-5.527,-5.4062,-5.4834,-5.5083,-5.4619,0.0,0.0,0.0,0.0,0.0,0.0,0.0,0.0,0.0,0.0,0.0,0.0,0.0,0.0,0.0,0.0,0.0,0.0,0.0,0.0,0.0,0.0,0.0,0.0,0.0,0.0,0.0,0.0,0.0,0.0,0.0,0.0,0.0,0.0,0.0,0.0,0.0,0.0,0.0,0.0,0.0,0.0,0.0,0.0,0.0,0.0,0.0,0.0,0.0,0.0,0.0,0.0,0.0,0.0,0.0,0.0,0.0,0.0,0.0,0.0,0.0,0.0,0.0,0.0,0.0,0.0,0.0,0.0,0.0,0.0,0.0,0.0,0.0,0.0,0.0,0.0,0.0,0.0,0.0,0.0,0.0,0.0,0.0,0.0,0.0,0.0,0.0,0.0,0.0,0.0,0.0,0.0,0.0,0.0,0.0,0.0,0.0,0.0,0.0,0.0,0.0,0.0,0.0,0.0,0.0,0.0,0.0,0.0,0.0,0.0,0.0,0.0,-5.511,-5.5833,-5.5738,0.0,0.0,0.0,0.0,0.0,0.0,0.0,0.0,0.0,0.0,0.0,0.0,0.0,0.0,0.0,0.0,0.0,0.0,0.0,0.0,0.0,0.0,0.0,0.0,0.0,0.0,0.0,0.0,0.0,0.0,0.0,0.0,0.0,0.0,0.0,0.0,0.0,0.0,0.0,0.0,0.0,0.0,0.0,0.0,0.0,0.0,0.0,0.0,0.0,0.0,0.0,0.0,0.0,0.0,0.0,0.0,0.0,0.0,0.0,0.0,0.0,0.0,0.0,0.0,0.0,0.0,0.0,0.0,0.0,0.0,0.0,0.0,0.0,0.0,0.0,0.0,0.0,0.0,0.0,0.0,0.0,0.0,0.0,0.0,0.0,0.0,0.0,0.0,0.0,0.0,0.0,0.0,0.0,0.0,0.0,0.0,0.0,0.0,0.0,0.0,0.0,0.0,0.0,0.0,0.0,0.0,0.0,0.0,0.0,0.0,-5.4428,-5.2927,-5.5897,0.0,-5.7441,0.0,0.0,0.0,0.0,0.0,0.0,0.0,0.0,0.0,0.0,0.0,0.0,0.0,0.0,0.0,0.0,0.0,0.0,0.0,0.0,0.0,0.0,0.0,0.0,0.0,0.0,0.0,0.0,0.0,0.0,0.0,0.0,0.0,0.0,0.0,0.0,0.0,0.0,0.0,0.0,0.0,0.0,0.0,0.0,0.0,0.0,0.0,0.0,0.0,0.0,0.0,0.0,0.0,0.0,0.0,0.0,0.0,0.0,0.0,0.0,0.0,0.0,0.0,0.0,0.0,0.0,0.0,0.0,0.0,0.0,0.0,0.0,0.0,0.0,0.0,0.0,0.0,0.0,0.0,0.0,0.0,0.0,0.0,0.0,0.0,0.0,0.0,0.0,0.0,0.0,0.0,0.0,0.0,0.0,0.0,0.0,0.0,0.0,0.0,0.0,0.0,0.0,0.0,0.0,0.0,0.0,0.0,0.0,0.0,0.0,-5.4667,-5.4993,-5.6367,-5.6832,0.0,0.0,0.0,0.0,0.0,0.0,0.0,0.0,0.0,0.0,0.0,0.0,0.0,0.0,0.0,0.0,0.0,0.0,0.0,0.0,0.0,0.0,0.0,0.0,0.0,0.0,0.0,0.0,0.0,0.0,0.0,0.0,0.0,0.0,0.0,0.0,0.0,0.0,0.0,0.0,0.0,0.0,0.0,0.0,0.0,0.0,0.0,0.0,0.0,0.0,0.0,0.0,0.0,0.0,0.0,0.0,0.0,0.0,0.0,0.0,0.0,0.0,0.0,0.0,0.0,0.0,0.0,0.0,0.0,0.0,0.0,0.0,0.0,0.0,0.0,0.0,0.0,0.0,0.0,0.0,0.0,0.0,0.0,0.0,0.0,0.0,0.0,0.0,0.0,0.0,0.0,0.0,0.0,0.0,0.0,0.0,0.0,0.0,0.0,0.0,0.0,0.0,0.0,0.0,0.0,0.0,0.0,0.0,0.0,0.0,-5.5015,-5.5751,-5.7136,-5.6367,-5.5815,-5.5654,0.0,0.0,0.0,0.0,0.0,0.0,0.0,0.0,0.0,0.0,0.0,0.0,0.0,0.0,0.0,0.0,0.0,0.0,0.0,0.0,0.0,0.0,0.0,0.0,0.0,0.0,0.0,0.0,0.0,0.0,0.0,0.0,0.0,0.0,0.0,0.0,0.0,0.0,0.0,0.0,0.0,0.0,0.0,0.0,0.0,0.0,0.0,0.0,0.0,0.0,0.0,0.0,0.0,0.0,0.0,0.0,0.0,0.0,0.0,0.0,0.0,0.0,0.0,0.0,0.0,0.0,0.0,0.0,0.0,0.0,0.0,0.0,0.0,0.0,0.0,0.0,0.0,0.0,0.0,0.0,0.0,0.0,0.0,0.0,0.0,0.0,0.0,0.0,0.0,0.0,0.0,0.0,0.0,0.0,0.0,0.0,0.0,0.0,0.0,0.0,0.0,0.0,0.0,0.0,0.0,0.0,0.0,0.0,-5.7362,-5.7477,-5.7964,-5.8808,-5.5857,-5.4883,0.0,0.0,0.0,0.0,0.0,0.0,0.0,0.0,0.0,0.0,0.0,0.0,0.0,0.0,0.0,0.0,0.0,0.0,0.0,0.0,0.0,0.0,0.0,0.0,0.0,0.0,0.0,0.0,0.0,0.0,0.0,0.0,0.0,0.0,0.0,0.0,0.0,0.0,0.0,0.0,0.0,0.0,0.0,0.0,0.0,0.0,0.0,0.0,0.0,0.0,0.0,0.0,0.0,0.0,0.0,0.0,0.0,0.0,0.0,0.0,0.0,0.0,0.0,0.0,0.0,0.0,0.0,0.0,0.0,0.0,0.0,0.0,0.0,0.0,0.0,0.0,0.0,0.0,0.0,0.0,0.0,0.0,0.0,0.0,0.0,0.0,0.0,0.0,0.0,0.0,0.0,0.0,0.0,0.0,0.0,0.0,0.0,0.0,0.0,0.0,0.0,0.0,0.0,0.0,0.0,0.0,0.0,0.0,0.0,-5.5234,-5.6332,-5.6854,-5.6651,-5.6006,-5.5466,0.0,0.0,0.0,0.0,0.0,0.0,0.0,0.0,0.0,0.0,0.0,0.0,0.0,0.0,0.0,0.0,0.0,0.0,0.0,0.0,0.0,0.0,0.0,0.0,0.0,0.0,0.0,0.0,0.0,0.0,0.0,0.0,0.0,0.0,0.0,0.0,0.0,0.0,0.0,0.0,0.0,0.0,0.0,0.0,0.0,0.0,0.0,0.0,0.0,0.0,0.0,0.0,0.0,0.0,0.0,0.0,0.0,0.0,0.0,0.0,0.0,0.0,0.0,0.0,0.0,0.0,0.0,0.0,0.0,0.0,0.0,0.0,0.0,0.0,0.0,0.0,0.0,0.0,0.0,0.0,0.0,0.0,0.0,0.0,0.0,0.0,0.0,0.0,0.0,0.0,0.0,0.0,0.0,0.0,0.0,0.0,0.0,0.0,0.0,0.0,0.0,0.0,0.0,0.0,0.0,0.0,0.0,0.0,0.0,-5.4235,0.0,-5.5803,-5.5313,-5.5293,-5.4796,0.0,0.0,0.0,0.0,0.0,0.0,0.0,0.0,0.0,0.0,0.0,0.0,0.0,0.0,0.0,0.0,0.0,0.0,0.0,0.0,0.0,0.0,0.0,0.0,0.0,0.0,0.0,0.0,0.0,0.0,0.0,0.0,0.0,0.0,0.0,0.0,0.0,0.0,0.0,0.0,0.0,0.0,0.0,0.0,0.0,0.0,0.0,0.0,0.0,0.0,0.0,0.0,0.0,0.0,0.0,0.0,0.0,0.0,0.0,0.0,0.0,0.0,0.0,0.0,0.0,0.0,0.0,0.0,0.0,0.0,0.0,0.0,0.0,0.0,0.0,0.0,0.0,0.0,0.0,0.0,0.0,0.0,0.0,0.0,0.0,0.0,0.0,0.0,0.0,0.0,0.0,0.0,0.0,0.0,0.0,0.0,0.0,0.0,0.0,0.0,0.0,0.0,0.0,0.0,0.0,0.0,0.0,0.0,-5.384,-5.4908,-5.5048,-5.511,-5.5143,-5.3643,-5.2758,0.0,0.0,0.0,0.0,0.0,0.0,0.0,0.0,0.0,0.0,0.0,0.0,0.0,0.0,0.0,0.0,0.0,0.0,0.0,0.0,0.0,0.0,0.0,0.0,0.0,0.0,0.0,0.0,0.0,0.0,0.0,0.0,0.0,0.0,0.0,0.0,0.0,0.0,0.0,0.0,0.0,0.0,0.0,0.0,0.0,0.0,0.0,0.0,0.0,0.0,0.0,0.0,0.0,0.0,0.0,0.0,0.0,0.0,0.0,0.0,0.0,0.0,0.0,0.0,0.0,0.0,0.0,0.0,0.0,0.0,0.0,0.0,0.0,0.0,0.0,0.0,0.0,0.0,0.0,0.0,0.0,0.0,0.0,0.0,0.0,0.0,0.0,0.0,0.0,0.0,0.0,0.0,0.0,0.0,0.0,0.0,0.0,0.0,0.0,0.0,0.0,0.0,0.0,0.0,0.0,0.0,0.0,0.0,0.0,-5.3157,-5.3351,-5.3692,-5.4228,-5.3272,-5.2977,0.0,0.0,0.0,0.0,0.0,0.0,0.0,0.0,0.0,0.0,0.0,0.0,0.0,0.0,0.0,0.0,0.0,0.0,0.0,0.0,0.0,0.0,0.0,0.0,0.0,0.0,0.0,0.0,0.0,0.0,0.0,0.0,0.0,0.0,0.0,0.0,0.0,0.0,0.0,0.0,0.0,0.0,0.0,0.0,0.0,0.0,0.0,0.0,0.0,0.0,0.0,0.0,0.0,0.0,0.0,0.0,0.0,0.0,0.0,0.0,0.0,0.0,0.0,0.0,0.0,0.0,0.0,0.0,0.0,0.0,0.0,0.0,0.0,0.0,0.0,0.0,0.0,0.0,0.0,0.0,0.0,0.0,0.0,0.0,0.0,0.0,0.0,0.0,0.0,0.0,0.0,0.0,0.0,0.0,0.0,0.0,0.0,0.0,0.0,0.0,0.0,0.0,0.0,0.0,0.0,0.0,0.0,0.0,0.0,-5.3267,-5.316,-5.3497,-5.4381,-5.3894,-5.3442,-5.3063,0.0,0.0,0.0,0.0,0.0,0.0,0.0,0.0,0.0,0.0,0.0,0.0,0.0,0.0,0.0,0.0,0.0,0.0,0.0,0.0,0.0,0.0,0.0,0.0,0.0,0.0,0.0,0.0,0.0,0.0,0.0,0.0,0.0,0.0,0.0,0.0,0.0,0.0,0.0,0.0,0.0,0.0,0.0,0.0,0.0,0.0,0.0,0.0,0.0,0.0,0.0,0.0,0.0,0.0,0.0,0.0,0.0,0.0,0.0,0.0,0.0,0.0,0.0,0.0,0.0,0.0,0.0,0.0,0.0,0.0,0.0,0.0,0.0,0.0,0.0,0.0,0.0,0.0,0.0,0.0,0.0,0.0,0.0,0.0,0.0,0.0,0.0,0.0,0.0,0.0,0.0,0.0,0.0,0.0,0.0,0.0,0.0,0.0,0.0,0.0,0.0,0.0,0.0,0.0,0.0,0.0,0.0,0.0,-5.504,-5.4511,-5.4645,-5.5402,-5.527,-5.411,0.0,0.0,0.0,0.0,0.0,0.0,0.0,0.0,0.0,0.0,0.0,0.0,0.0,0.0,0.0,0.0,0.0,0.0,0.0,0.0,0.0,0.0,0.0,0.0,0.0,0.0,0.0,0.0,0.0,0.0,0.0,0.0,0.0,0.0,0.0,0.0,0.0,0.0,0.0,0.0,0.0,0.0,0.0,0.0,0.0,0.0,0.0,0.0,0.0,0.0,0.0,0.0,0.0,0.0,0.0,0.0,0.0,0.0,0.0,0.0,0.0,0.0,0.0,0.0,0.0,0.0,0.0,0.0,0.0,0.0,0.0,0.0,0.0,0.0,0.0,0.0,0.0,0.0,0.0,0.0,0.0,0.0,0.0,0.0,0.0,0.0,0.0,0.0,0.0,0.0,0.0,0.0,0.0,0.0,0.0,0.0,0.0,0.0,0.0,0.0,0.0,0.0,0.0,0.0,0.0,0.0,0.0,0.0,0.0,-5.6759,-5.7935,-5.835,-5.8041,-5.6209,-5.5201,0.0,0.0,0.0,0.0,0.0,0.0,0.0,0.0,0.0,0.0,0.0,0.0,0.0,0.0,0.0,0.0,0.0,0.0,0.0,0.0,0.0,0.0,0.0,0.0,0.0,0.0,0.0,0.0,0.0,0.0,0.0,0.0,0.0,0.0,0.0,0.0,0.0,0.0,0.0,0.0,0.0,0.0,0.0,0.0,0.0,0.0,0.0,0.0,0.0,0.0,0.0,0.0,0.0,0.0,0.0,0.0,0.0,0.0,0.0,0.0,0.0,0.0,0.0,0.0,0.0,0.0,0.0,0.0,0.0,0.0,0.0,0.0,0.0,0.0,0.0,0.0,0.0,0.0,0.0,0.0,0.0,0.0,0.0,0.0,0.0,0.0,0.0,0.0,0.0,0.0,0.0,0.0,0.0,0.0,0.0,0.0,0.0,0.0,0.0,0.0,0.0,0.0,0.0,0.0,0.0,0.0,0.0,0.0,-5.4567,-5.7903,-6.0044,-6.1291,-6.1651,-5.9237,-5.7255,0.0,0.0,0.0,0.0,0.0,0.0,0.0,0.0,0.0,0.0,0.0,0.0,0.0,0.0,0.0,0.0,0.0,0.0,0.0,0.0,0.0,0.0,0.0,0.0,0.0,0.0,0.0,0.0,0.0,0.0,0.0,0.0,0.0,0.0,0.0,0.0,0.0,0.0,0.0,0.0,0.0,0.0,0.0,0.0,0.0,0.0,0.0,0.0,0.0,0.0,0.0,0.0,0.0,0.0,0.0,0.0,0.0,0.0,0.0,0.0,0.0,0.0,0.0,0.0,0.0,0.0,0.0,0.0,0.0,0.0,0.0,0.0,0.0,0.0,0.0,0.0,0.0,0.0,0.0,0.0,0.0,0.0,0.0,0.0,0.0,0.0,0.0,0.0,0.0,0.0,0.0,0.0,0.0,0.0,0.0,0.0,0.0,0.0,0.0,0.0,0.0,0.0,0.0,0.0,0.0,0.0,0.0,0.0,-5.6518,-5.8329,-6.1073,-6.334,-6.4999,-6.2668,-5.9453,0.0,0.0,0.0,0.0,0.0,0.0,0.0,0.0,0.0,0.0,0.0,0.0,0.0,0.0,0.0,0.0,0.0,0.0,0.0,0.0,0.0,0.0,0.0,0.0,0.0,0.0,0.0,0.0,0.0,0.0,0.0,0.0,0.0,0.0,0.0,0.0,0.0,0.0,0.0,0.0,0.0,0.0,0.0,0.0,0.0,0.0,0.0,0.0,0.0,0.0,0.0,0.0,0.0,0.0,0.0,0.0,0.0,0.0,0.0,0.0,0.0,0.0,0.0,0.0,0.0,0.0,0.0,0.0,0.0,0.0,0.0,0.0,0.0,0.0,0.0,0.0,0.0,0.0,0.0,0.0,0.0,0.0,0.0,0.0,0.0,0.0,0.0,0.0,0.0,0.0,0.0,0.0,0.0,0.0,0.0,0.0,0.0,0.0,0.0,0.0,0.0,0.0,0.0,0.0,0.0,0.0,0.0,0.0,-5.4911,-5.7439,-6.0652,-6.3183,-6.4962,-6.0714,-5.8291,0.0,0.0,0.0,0.0,0.0,0.0,0.0,0.0,0.0,0.0,0.0,0.0,0.0,0.0,0.0,0.0,0.0,0.0,0.0,0.0,0.0,0.0,0.0,0.0,0.0,0.0,0.0,0.0,0.0,0.0,0.0,0.0,0.0,0.0,0.0,0.0,0.0,0.0,0.0,0.0,0.0,0.0,0.0,0.0,0.0,0.0,0.0,0.0,-5.6602,0.0,0.0,0.0,0.0,0.0,0.0,0.0,0.0,0.0,0.0,0.0,0.0,0.0,0.0,0.0,0.0,0.0,0.0,0.0,0.0,0.0,0.0,0.0,0.0,0.0,0.0,0.0,0.0,0.0,0.0,0.0,0.0,0.0,0.0,0.0,0.0,0.0,0.0,0.0,0.0,0.0,0.0,0.0,0.0,0.0,0.0,0.0,0.0,0.0,0.0,0.0,0.0,0.0,0.0,0.0,0.0,0.0,0.0,0.0,-5.4587,-5.767,-6.0248,-6.2452,-6.4029,-6.0179,-5.8217,0.0,0.0,0.0,0.0,0.0,0.0,0.0,0.0,0.0,0.0,0.0,0.0,0.0,0.0,0.0,0.0,0.0,0.0,0.0,0.0,0.0,0.0,0.0,0.0,0.0,0.0,0.0,0.0,0.0,0.0,0.0,0.0,0.0,0.0,0.0,0.0,0.0,0.0,0.0,0.0,0.0,0.0,0.0,0.0,0.0,0.0,0.0,0.0,0.0,0.0,0.0,0.0,0.0,0.0,0.0,0.0,0.0,0.0,0.0,0.0,0.0,0.0,0.0,0.0,0.0,0.0,0.0,0.0,0.0,0.0,0.0,0.0,0.0,0.0,0.0,0.0,0.0,0.0,0.0,0.0,0.0,0.0,0.0,0.0,0.0,0.0,0.0,0.0,0.0,0.0,0.0,0.0,0.0,0.0,0.0,0.0,0.0,0.0,0.0,0.0,0.0,0.0,0.0,0.0,0.0,0.0,0.0,-5.1902,-5.471,-5.8192,-5.9935,-6.1609,-6.3186,-6.0305,-5.8615,-5.8427,0.0,0.0,0.0,0.0,0.0,0.0,0.0,0.0,0.0,0.0,0.0,0.0,0.0,0.0,0.0,0.0,0.0,0.0,0.0,0.0,0.0,0.0,0.0,0.0,0.0,0.0,0.0,0.0,0.0,0.0,0.0,0.0,0.0,0.0,0.0,0.0,0.0,0.0,-5.4023,-5.52,0.0,0.0,0.0,0.0,0.0,0.0,0.0,0.0,-5.6279,0.0,0.0,0.0,0.0,0.0,0.0,0.0,0.0,0.0,0.0,0.0,0.0,0.0,0.0,0.0,0.0,0.0,0.0,0.0,0.0,0.0,0.0,0.0,0.0,0.0,0.0,0.0,0.0,0.0,0.0,0.0,0.0,0.0,0.0,0.0,0.0,0.0,0.0,0.0,0.0,0.0,0.0,0.0,0.0,0.0,0.0,0.0,0.0,0.0,0.0,0.0,0.0,0.0,0.0,0.0,0.0,-5.2417,-5.2845,-5.4721,-5.8231,-5.9935,-6.1312,-6.2309,-6.0506,-5.8848,-5.7494,0.0,0.0,0.0,0.0,0.0,0.0,0.0,0.0,0.0,0.0,0.0,0.0,0.0,0.0,0.0,0.0,0.0,0.0,0.0,0.0,0.0,0.0,0.0,0.0,0.0,0.0,0.0,0.0,0.0,0.0,0.0,0.0,0.0,0.0,0.0,0.0,0.0,0.0,0.0,-5.7166,-5.7212,0.0,0.0,0.0,0.0,0.0,0.0,0.0,0.0,-5.6001,0.0,0.0,0.0,0.0,0.0,0.0,0.0,0.0,0.0,0.0,0.0,0.0,0.0,0.0,0.0,0.0,0.0,0.0,0.0,0.0,0.0,0.0,0.0,0.0,0.0,0.0,0.0,0.0,0.0,0.0,0.0,0.0,0.0,0.0,0.0,0.0,0.0,0.0,0.0,0.0,0.0,0.0,0.0,0.0,0.0,0.0,0.0,0.0,0.0,0.0,0.0,0.0,0.0,0.0,0.0,-5.2346,-5.3115,-5.4929,-5.7914,-5.9243,-6.0353,-6.1204,-5.9826,-5.8249,0.0,0.0,0.0,0.0,0.0,0.0,0.0,0.0,0.0,0.0,0.0,0.0,0.0,0.0,0.0,0.0,0.0,0.0,0.0,0.0,0.0,0.0,0.0,0.0,0.0,0.0,0.0,0.0,0.0,0.0,0.0,0.0,0.0,0.0,0.0,0.0,0.0,0.0,0.0,0.0,-5.8021,-5.8038,-5.8983,0.0,0.0,0.0,0.0,0.0,0.0,-5.7074,-5.6007,0.0,0.0,0.0,0.0,0.0,0.0,0.0,0.0,0.0,0.0,0.0,0.0,0.0,0.0,0.0,0.0,0.0,0.0,0.0,0.0,0.0,0.0,0.0,0.0,0.0,0.0,0.0,0.0,0.0,0.0,0.0,0.0,0.0,0.0,0.0,0.0,0.0,0.0,0.0,0.0,0.0,0.0,0.0,0.0,0.0,0.0,0.0,0.0,0.0,0.0,0.0,0.0,0.0,0.0,0.0,-5.2173,-5.3264,-5.508,-5.7524,-5.8367,-5.9125,-5.9881,-5.8511,-5.7099,0.0,0.0,0.0,0.0,0.0,0.0,0.0,0.0,0.0,0.0,0.0,0.0,0.0,0.0,0.0,0.0,0.0,0.0,0.0,0.0,0.0,0.0,0.0,0.0,0.0,0.0,0.0,0.0,0.0,0.0,0.0,0.0,0.0,0.0,0.0,0.0,0.0,0.0,0.0,0.0,0.0,-5.8566,-5.9458,-5.8676,0.0,0.0,0.0,0.0,-5.74,-5.7043,0.0,0.0,0.0,0.0,0.0,0.0,0.0,0.0,0.0,0.0,0.0,0.0,0.0,0.0,0.0,0.0,0.0,0.0,0.0,0.0,0.0,0.0,0.0,0.0,0.0,0.0,0.0,0.0,0.0,0.0,0.0,0.0,0.0,0.0,0.0,0.0,0.0,0.0,0.0,0.0,0.0,0.0,0.0,0.0,0.0,0.0,0.0,0.0,0.0,0.0,0.0,0.0,0.0,0.0,0.0,0.0,-5.3408,-5.3552,-5.488,-5.727,-5.7581,-5.7895,-5.833,-5.6599,-5.5378,0.0,0.0,0.0,0.0,0.0,0.0,0.0,0.0,0.0,0.0,0.0,0.0,0.0,0.0,0.0,0.0,0.0,0.0,0.0,0.0,0.0,0.0,0.0,0.0,0.0,0.0,0.0,0.0,0.0,0.0,0.0,0.0,0.0,0.0,0.0,0.0,0.0,0.0,0.0,0.0,0.0,-5.8221,-5.9203,-5.7838,-5.6677,0.0,0.0,-5.7109,-5.8104,-5.8729,0.0,0.0,0.0,0.0,0.0,0.0,0.0,0.0,0.0,0.0,0.0,0.0,0.0,0.0,0.0,0.0,0.0,0.0,0.0,0.0,0.0,0.0,0.0,0.0,0.0,0.0,0.0,0.0,0.0,0.0,0.0,0.0,0.0,0.0,0.0,0.0,0.0,0.0,0.0,0.0,0.0,0.0,0.0,0.0,0.0,0.0,0.0,0.0,0.0,0.0,0.0,0.0,0.0,0.0,0.0,-5.199,-5.2935,-5.3762,-5.4881,-5.6393,-5.6532,-5.6914,-5.7582,-5.5618,-5.47,0.0,0.0,0.0,0.0,0.0,0.0,0.0,0.0,0.0,0.0,0.0,0.0,0.0,0.0,0.0,0.0,0.0,0.0,0.0,0.0,0.0,0.0,0.0,0.0,0.0,0.0,0.0,0.0,0.0,0.0,0.0,0.0,0.0,0.0,0.0,0.0,0.0,0.0,0.0,0.0,0.0,0.0,-5.8528,-5.8208,0.0,0.0,0.0,-5.7594,-5.8138,0.0,0.0,0.0,0.0,0.0,0.0,0.0,0.0,0.0,0.0,0.0,0.0,0.0,0.0,0.0,0.0,0.0,0.0,0.0,0.0,0.0,0.0,0.0,0.0,0.0,0.0,0.0,0.0,0.0,0.0,0.0,0.0,0.0,0.0,0.0,0.0,0.0,0.0,0.0,0.0,0.0,0.0,0.0,0.0,0.0,0.0,0.0,0.0,0.0,0.0,0.0,0.0,0.0,0.0,0.0,0.0,0.0,-5.2603,-5.3585,-5.4589,-5.5535,-5.5283,-5.5454,-5.6176,-5.4254,0.0,0.0,0.0,0.0,0.0,0.0,0.0,0.0,0.0,0.0,0.0,0.0,0.0,0.0,0.0,0.0,0.0,0.0,0.0,0.0,0.0,0.0,0.0,0.0,0.0,0.0,0.0,-5.1729,0.0,0.0,0.0,0.0,0.0,0.0,0.0,0.0,0.0,0.0,0.0,0.0,0.0,0.0,-5.847,-5.7846,-5.829,-5.8706,0.0,0.0,-5.7826,-5.7745,-5.7958,-5.7762,0.0,0.0,0.0,0.0,0.0,0.0,0.0,0.0,0.0,0.0,0.0,0.0,0.0,0.0,0.0,0.0,0.0,0.0,0.0,0.0,0.0,0.0,0.0,0.0,0.0,0.0,0.0,0.0,0.0,0.0,0.0,0.0,0.0,0.0,0.0,0.0,0.0,0.0,0.0,0.0,0.0,0.0,0.0,0.0,0.0,0.0,0.0,0.0,0.0,0.0,0.0,0.0,0.0,0.0,-5.1669,-5.2982,-5.2893,-5.359,-5.51,-5.3702,-5.3181,-5.3611,-5.1956,-5.1684,0.0,0.0,0.0,0.0,0.0,0.0,0.0,0.0,0.0,0.0,0.0,0.0,0.0,0.0,0.0,0.0,0.0,0.0,0.0,0.0,0.0,0.0,0.0,0.0,0.0,0.0,0.0,0.0,0.0,0.0,0.0,0.0,0.0,0.0,0.0,0.0,0.0,0.0,0.0,0.0,0.0,-5.7399,-5.7361,-5.7273,-5.7477,0.0,-5.7916,-5.7409,-5.6893,-5.9506,-6.0319,-5.6434,0.0,0.0,0.0,0.0,0.0,0.0,0.0,0.0,0.0,0.0,0.0,0.0,0.0,0.0,0.0,0.0,0.0,0.0,0.0,0.0,0.0,0.0,0.0,0.0,0.0,0.0,0.0,0.0,0.0,0.0,0.0,0.0,0.0,0.0,0.0,0.0,0.0,0.0,0.0,0.0,0.0,0.0,0.0,0.0,0.0,0.0,0.0,0.0,0.0,0.0,0.0,0.0,0.0,-5.1086,-5.156,-5.2387,-5.3086,-5.3609,-5.3123,-5.2928,-5.3095,-5.1597,-5.1277,0.0,0.0,0.0,0.0,0.0,0.0,0.0,0.0,0.0,0.0,0.0,0.0,0.0,0.0,0.0,0.0,0.0,0.0,0.0,0.0,0.0,0.0,0.0,0.0,0.0,0.0,0.0,0.0,-5.1117,-5.1168,-5.2117,0.0,0.0,0.0,0.0,0.0,0.0,0.0,0.0,0.0,0.0,-5.6557,-5.6656,-5.6409,0.0,0.0,-5.7259,-5.7116,-5.7187,-5.7692,-5.7654,-5.6229,-5.5492,0.0,0.0,0.0,0.0,0.0,0.0,0.0,0.0,0.0,0.0,0.0,0.0,0.0,0.0,0.0,0.0,0.0,0.0,0.0,0.0,0.0,0.0,0.0,0.0,0.0,0.0,0.0,0.0,0.0,0.0,0.0,0.0,0.0,0.0,0.0,0.0,0.0,0.0,0.0,0.0,0.0,0.0,0.0,0.0,0.0,0.0,0.0,0.0,0.0,0.0,0.0,0.0,-5.0444,-5.0553,-5.1548,-5.2155,-5.2306,-5.2155,-5.2096,-5.2076,-5.0916,-5.0723,0.0,0.0,0.0,0.0,0.0,0.0,0.0,0.0,0.0,0.0,0.0,0.0,0.0,0.0,0.0,0.0,0.0,0.0,0.0,0.0,0.0,0.0,0.0,0.0,0.0,0.0,0.0,0.0,-5.1541,-5.1547,-5.2585,0.0,0.0,0.0,0.0,0.0,0.0,0.0,0.0,0.0,0.0,-5.5436,-5.5678,-5.5449,-5.5662,-5.6752,-5.6657,-5.6623,-5.6944,-5.6769,-5.6305,-5.5511,0.0,0.0,0.0,0.0,0.0,0.0,0.0,0.0,0.0,0.0,0.0,0.0,0.0,0.0,0.0,0.0,0.0,0.0,0.0,0.0,0.0,0.0,0.0,0.0,0.0,0.0,0.0,-5.66,0.0,0.0,-5.5235,0.0,0.0,0.0,0.0,0.0,0.0,0.0,0.0,0.0,0.0,0.0,0.0,0.0,0.0,0.0,0.0,0.0,0.0,0.0,0.0,0.0,0.0,-4.9739,-5.0471,-5.0331,-5.0599,-5.1379,-5.0599,-5.0281,-5.0351,-4.9548,-4.9658,-5.0816,0.0,0.0,0.0,0.0,0.0,0.0,0.0,0.0,0.0,0.0,0.0,0.0,0.0,0.0,0.0,0.0,0.0,0.0,0.0,0.0,0.0,0.0,0.0,0.0,0.0,0.0,-5.202,-5.1934,-5.1895,0.0,0.0,0.0,0.0,0.0,0.0,0.0,0.0,0.0,-5.3808,-5.3798,-5.4016,-5.4397,-5.4378,-5.4925,-5.6461,-5.6203,-5.5853,-5.5917,-5.7385,-5.7452,0.0,0.0,0.0,0.0,0.0,0.0,0.0,0.0,0.0,0.0,0.0,0.0,0.0,0.0,0.0,0.0,0.0,0.0,0.0,0.0,0.0,0.0,0.0,0.0,0.0,0.0,0.0,-5.6667,-5.6288,0.0,0.0,0.0,0.0,0.0,0.0,0.0,0.0,0.0,0.0,0.0,-5.0486,-5.0611,0.0,0.0,0.0,0.0,0.0,0.0,0.0,0.0,0.0,0.0,0.0,0.0,-4.9358,-4.9658,-4.9961,-5.0265,-5.0525,-5.0265,-5.0116,-5.0152,-4.9477,-4.9558,-5.0488,0.0,0.0,0.0,0.0,0.0,0.0,0.0,0.0,0.0,0.0,0.0,0.0,0.0,0.0,0.0,0.0,0.0,0.0,0.0,0.0,0.0,0.0,0.0,0.0,0.0,-5.3615,0.0,0.0,0.0,0.0,0.0,0.0,0.0,0.0,0.0,0.0,0.0,-5.404,-5.4027,-5.4188,-5.4358,-5.4576,-5.4354,-5.4387,0.0,0.0,0.0,0.0,0.0,0.0,0.0,0.0,0.0,0.0,0.0,0.0,0.0,0.0,-5.2371,-5.229,-5.118,-5.0122,-4.9543,0.0,0.0,0.0,0.0,0.0,0.0,0.0,0.0,0.0,0.0,0.0,0.0,0.0,0.0,-5.5655,-5.5023,-5.5542,0.0,0.0,0.0,0.0,0.0,0.0,0.0,0.0,-5.0285,-4.9564,-4.925,-4.9344,-4.9086,-4.8605,-4.8785,-4.9071,0.0,0.0,0.0,0.0,0.0,0.0,0.0,0.0,-4.9115,-4.9098,-4.9463,-4.967,-4.9707,-4.9707,-4.9707,-4.967,-4.9311,-4.9081,-4.9073,-4.9236,-4.9662,0.0,0.0,0.0,0.0,0.0,0.0,0.0,0.0,0.0,0.0,0.0,0.0,0.0,0.0,0.0,0.0,0.0,0.0,0.0,0.0,0.0,0.0,0.0,-5.3129,0.0,0.0,0.0,0.0,0.0,0.0,0.0,0.0,0.0,-5.39,-5.3735,-5.3544,-5.3467,-5.3115,-5.3148,-5.3952,0.0,0.0,0.0,0.0,0.0,0.0,0.0,-5.4274,-5.3515,-5.3069,-5.266,-5.2215,-5.2046,-5.2265,-5.3049,0.0,0.0,-5.1588,-5.0609,-4.9535,-4.8942,-4.9054,-4.9108,-4.8599,-4.8977,-4.9452,0.0,0.0,0.0,0.0,-5.4322,0.0,0.0,0.0,-5.316,-5.3132,0.0,-5.3954,0.0,0.0,0.0,0.0,-5.2492,-5.2401,0.0,0.0,-4.9554,-4.9055,-4.8224,-4.8088,-4.7992,-4.7992,-4.8131,-4.7864,-4.7353,-4.7835,0.0,0.0,0.0,0.0,0.0,0.0,-4.889,-4.889,-4.8927,-4.8927,-4.8927,-4.8927,-4.8927,-4.8927,-4.905,-4.834,-4.6866,-4.8245,-4.8482,-4.7316,-4.9921,0.0,0.0,0.0,0.0,0.0,0.0,0.0,0.0,0.0,0.0,0.0,0.0,0.0,0.0,0.0,0.0,0.0,0.0,0.0,0.0,-5.2323,0.0,0.0,0.0,0.0,0.0,0.0,0.0,0.0,0.0,0.0,-5.327,-5.3069,-5.2641,-5.2243,0.0,0.0,0.0,0.0,-5.135,-5.3665,-5.387,-5.3776,-5.3776,-5.3794,-5.3534,-5.2754,0.0,0.0,-5.1324,-5.1898,-5.2602,-5.3299,-5.162,-5.0287,-5.1193,-5.0523,-4.9819,-4.9621,-4.9154,-4.8873,-4.8838,-4.9003,-4.9262,-5.3435,0.0,0.0,0.0,0.0,-5.3121,-5.3273,-5.3367,-5.3025,-5.2801,-5.266,-5.2531,0.0,0.0,0.0,0.0,0.0,0.0,-4.9898,-4.9378,-4.8607,-4.8161,-4.7947,-4.7963,-4.7943,-4.7907,-4.7504,-4.755,-4.794,-4.7682,-4.7394,-4.7177,0.0,0.0,0.0,0.0,-4.8767,-4.8873,-4.889,-4.889,-4.889,-4.889,-4.889,-4.889,-4.8945,-4.8739,-4.8255,-4.8211,-4.8261,-4.8422,-4.8835,0.0,0.0,0.0,0.0,0.0,0.0,0.0,0.0,0.0,0.0,0.0,0.0,0.0,0.0,0.0,0.0,0.0,0.0,0.0,-5.2997,-5.1667,-5.1588,0.0,0.0,0.0,0.0,0.0,0.0,0.0,0.0,0.0,-5.2263,-5.2893,-5.322,0.0,0.0,-5.3052,-5.3608,-5.2805,-5.2616,-5.3868,-5.3605,0.0,-5.3249,-5.3571,-5.3591,-5.2809,-5.2474,-5.2512,-5.3033,-5.2473,-5.2137,-5.2939,-5.1525,-5.0316,-5.0408,-4.8956,-4.7765,-4.7616,-4.7975,-4.8333,-4.8381,-4.894,-4.9498,-5.2962,-5.156,-5.2047,-5.2474,-5.2879,-5.2899,-5.2932,-5.2964,-5.266,-5.227,-5.1878,-5.1917,-5.1711,-5.1341,-5.1788,0.0,0.0,0.0,-4.9273,-4.9252,-4.8592,-4.8254,-4.8291,-4.8291,-4.8167,-4.7902,-4.7554,-4.7529,-4.7752,-4.7407,-4.6819,-4.6187,0.0,-4.7849,-4.8011,-4.8437,-4.8732,-4.8875,-4.891,-4.889,-4.889,-4.889,-4.889,-4.889,-4.889,-4.8742,-4.8407,-4.7677,-4.7359,-4.7491,-4.7425,-4.7942,0.0,0.0,0.0,0.0,0.0,0.0,0.0,0.0,0.0,0.0,0.0,-5.3684,-5.4044,0.0,0.0,0.0,-5.1433,-5.1126,-5.0841,-5.0462,0.0,0.0,0.0,0.0,0.0,0.0,0.0,-5.2728,-5.2196,-5.1617,-5.141,-5.2215,-5.2718,-5.2363,-5.2006,-5.2068,-5.3027,0.0,-5.1867,-5.2933,-5.281,-5.2557,-5.2507,-5.2868,-5.2931,-5.2377,-5.2618,-5.2917,-5.3347,-5.2728,-5.2502,-5.295,-5.1964,-5.0793,-5.0793,-4.9073,-4.7655,-4.7692,-4.8124,-4.8668,-4.9052,-4.9393,-4.9672,-5.3004,-5.2344,-5.3004,-5.3288,-5.3166,-5.312,-5.2711,-5.2107,-5.2079,-5.1581,-5.0859,-5.1721,-5.1593,-5.0814,-5.0814,0.0,-4.9504,-4.9484,-4.9346,-4.9086,-4.9122,-4.9023,-4.8822,-4.8822,-4.8487,-4.7902,-4.7988,-4.7687,-4.7163,-4.7109,-4.6763,-4.614,-4.7758,-4.855,-4.8495,-4.8678,-4.8769,-4.8787,-4.882,-4.891,-4.889,-4.889,-4.889,-4.889,-4.889,-4.8556,-4.7813,-4.7033,-4.6264,-4.5547,-4.5943,-4.6756,-4.7788,0.0,0.0,0.0,0.0,0.0,0.0,0.0,0.0,0.0,0.0,0.0,0.0,0.0,0.0,0.0,-4.9074,0.0,-4.7732,-4.8871,0.0,0.0,0.0,-5.0387,-4.9634,-4.9521,-4.9812,-5.0563,0.0,0.0,-5.0691,-5.1211,-5.1382,-5.0691,-4.9377,-4.9256,-5.1482,-5.0525,-4.9947,-5.1582,-5.178,-5.1833,-5.1823,-5.1989,-5.2129,-5.2078,-5.2568,-5.313,-5.3115,-5.2986,-5.323,-5.3808,-5.2652,-5.1476,-5.1476,-5.016,-4.9241,-4.9077,-4.9193,-4.953,-5.0145,-4.9893,-4.9746,-5.5464,-5.4693,-5.4289,-5.3429,-5.2312,-5.2291,-5.2527,-5.2858,-5.2291,-5.1557,-5.0802,-5.0421,-5.011,-4.9907,-4.9907,-5.0124,-5.0468,-5.0248,-4.9815,-4.919,-4.9107,-4.8774,-4.8187,-4.8198,-4.815,-4.8008,-4.8072,-4.8058,-4.7951,-4.7972,-4.792,-4.7755,-4.8179,-4.8051,-4.7518,-4.8107,-4.8495,-4.8642,-4.8678,-4.875,-4.8873,-4.889,-4.889,-4.889,-4.889,-4.8816,-4.863,-4.785,-4.7049,-4.6285,-4.5818,-4.5951,-4.6665,-4.6971,0.0,0.0,0.0,0.0,0.0,0.0,0.0,0.0,0.0,-5.1982,-5.3104,0.0,-5.0833,0.0,-4.7998,-4.6946,-4.7353,-4.7668,0.0,0.0,-4.9536,-4.9599,-4.9374,-4.9358,-4.961,-5.0368,-5.0611,-5.0676,-5.0558,-5.0252,-4.9984,-4.9828,-5.0354,-5.1004,-5.1548,-5.0976,-5.0779,-5.1682,-5.1645,-5.1451,-5.1461,-5.1825,-5.2364,-5.2959,-5.3628,-5.4074,-5.4057,-5.3532,-5.3195,-5.327,-5.2003,-5.0979,-5.0867,-4.9985,-4.9348,-4.9279,-4.9358,-4.9496,-4.9721,-4.9624,-4.958,-5.6345,-5.5559,-5.473,-5.3885,-5.3041,-5.2711,-5.2784,-5.313,-5.2711,-5.2087,-5.1279,-5.0508,-5.0141,-5.0105,-5.0105,-5.0342,-5.0684,-5.0561,-5.0404,-5.0253,-4.9862,-4.9455,-4.9019,-4.868,-4.8377,-4.8108,-4.8168,-4.8226,-4.8265,-4.8267,-4.8344,-4.8439,-4.8439,-4.8181,-4.7832,-4.8124,-4.8363,-4.8476,-4.8569,-4.8714,-4.8873,-4.889,-4.8855,-4.8767,-4.8434,-4.8176,-4.8087,-4.6979,-4.6146,-4.5702,-4.5329,-4.5255,-4.5611,-4.5665,-4.6257,0.0,0.0,0.0,0.0,0.0,0.0,0.0,0.0,0.0,0.0,0.0,-4.9277,-4.9016,-4.741,-4.6873,-4.8079,-4.7834,-4.7828,-4.8363,-4.801,-4.7575,-4.7185,-4.7822,-4.8443,-4.8846,-4.9652,-5.0,-4.954,-4.9496,-4.934,-4.9002,-4.9921,-5.0659,-5.0638,-5.0462,-5.0552,-5.0982,-5.0987,-5.1051,-5.1344,-5.2056,-5.2745,-5.3391,-5.4193,-5.4661,-5.4439,-5.4129,-5.3779,-5.3257,-5.2086,-5.1024,-5.0703,-4.9952,-4.939,-4.939,-4.9459,-4.964,-4.994,-4.9753,-4.958,-5.6308,-5.5559,-5.484,-5.4473,-5.4326,-5.3555,-5.3203,-5.3203,-5.3203,-5.2747,-5.194,-5.1132,-5.0802,-5.0802,-5.0912,-5.0888,-5.0769,-5.0879,-5.1182,-5.1551,-5.0785,-5.0362,-5.0253,-4.9435,-4.8766,-4.8244,-4.8207,-4.8265,-4.8306,-4.8306,-4.8382,-4.855,-4.8532,-4.8569,-4.855,-4.8382,-4.8306,-4.8306,-4.8477,-4.8659,-4.8838,-4.8746,-4.8601,-4.8403,-4.7627,-4.7149,-4.6893,-4.5626,-4.4818,-4.469,-4.4709,-4.4725,-4.4829,-4.4544,-4.4911,0.0,-4.6799,0.0,0.0,0.0,0.0,0.0,0.0,0.0,0.0,-4.7565,-4.7379,-4.7794,-4.7175,-4.7362,-4.8846,-4.8247,-4.7544,-4.6884,-4.6073,-4.5284,-4.4632,-4.5983,-4.7012,-4.7012,-4.8461,-4.9174,-4.8589,-4.9039,-4.9174,-4.8664,-4.8964,-4.9437,-4.9543,-4.9724,-4.9882,-4.9835,-5.0175,-5.079,-5.1545,-5.2365,-5.3035,-5.3566,-5.4382,-5.4943,-5.4565,-5.4572,-5.4322,-5.3299,-5.2369,-5.1563,-5.0779,-5.0041,-4.9612,-4.9544,-4.9544,-4.9755,-5.0219,-4.994,-4.9753,-5.6345,-5.5574,-5.5449,-5.4987,-5.4326,-5.3555,-5.3203,-5.3203,-5.3203,-5.2747,-5.194,-5.1132,-5.0802,-5.0875,-5.1463,-5.1756,-5.1773,-5.2291,-5.2285,-5.1715,-5.0947,-5.0195,-4.9574,-4.8832,-4.8395,-4.8267,-4.8267,-4.8287,-4.8306,-4.8306,-4.8287,-4.8285,-4.8325,-4.8325,-4.8285,0.0,0.0,0.0,-4.8513,-4.8605,-4.8623,-4.785,-4.7427,-4.739,-4.6708,0.0,-4.614,-4.5955,-4.5477,-4.4781,-4.469,0.0,0.0,0.0,0.0,0.0,0.0,0.0,0.0,0.0,0.0,0.0,-4.8546,-4.8199,-4.8028,-4.7794,-4.7431,-4.6936,-4.7227,-4.7392,-4.718,-4.6448,-4.5986,-4.5908,-4.5209,-4.467,-4.4557,-4.5998,-4.7012,-4.7049,-4.8377,-4.9337,-4.9249,-4.9315,-4.9315,-4.9174,-4.8776,-4.8776,-4.9377,-4.9625,-4.9824,-5.0012,-5.039,-5.096,-5.1729,-5.2456,-5.308,-5.3862,-5.4586,-5.5004,-5.4909,-5.4468,-5.3875,-5.2945,-5.2133,-5.132,-5.0456,-5.0177,-4.9962,-4.9762,-4.9721,-4.9726,-4.9739,-4.9602,-4.9527,-5.6345,-5.5633,-5.5633,-5.5354,0.0,-5.3702,-5.3203,-5.3203,-5.3203,-5.2968,-5.2564,-5.216,-5.2013,-5.2013,-5.2417,-5.2601,-5.2601,-5.2941,-5.2883,-5.2443,-5.1234,-5.0464,-5.0061,-4.8854,-4.8306,-4.8306,-4.8306,-4.8306,-4.8306,-4.8306,-4.8306,-4.8343,-4.8381,-4.8382,-4.8382,-4.8513,-4.8329,-4.7868,-4.7941,-4.7846,-4.7564,-4.707,-4.6743,-4.6671,-4.5933,0.0,0.0,0.0,0.0,0.0,0.0,0.0,0.0,-4.4189,0.0,-4.5434,-4.5966,-4.6794,-4.7993,-4.7804,-4.765,-4.7701,-4.6958,-4.6545,-4.6659,-4.661,-4.6578,-4.6578,-4.7235,-4.7768,-4.7911,-4.7217,-4.6607,-4.6344,-4.5585,-4.4946,-4.4745,-4.5983,-4.6974,-4.7162,-4.8393,-4.9443,-4.949,-4.9459,-4.9218,-4.8949,-4.8889,-4.8814,-4.8882,-4.9022,-4.9386,-5.0149,-5.0873,-5.1433,-5.1808,-5.2131,-5.2647,-5.338,-5.3913,-5.425,-5.4448,-5.4343,-5.3763,-5.2459,-5.204,-5.1632,-4.9965,-4.9889,-5.0159,-5.0025,-4.9897,-4.9776,-4.9669,-4.9559,-4.949,-5.5904,-5.5207,-5.5464,-5.5427,-5.506,-5.3922,-5.3335,-5.3203,-5.3203,0.0,0.0,-5.3203,-5.3203,-5.3203,-5.3203,-5.3203,-5.3203,-5.3203,-5.3203,-5.3151,-5.1536,-5.0802,-5.0729,-4.9114,-4.8306,-4.8306,-4.8306,-4.8306,-4.8306,-4.8306,-4.8381,-4.8457,-4.8512,-4.855,-4.8624,-4.8696,-4.8326,-4.7441,-4.7387,-4.7087,-4.6463,-4.6281,-4.6123,-4.5931,-4.5173,-4.4662,-4.4488,-4.3845,-4.3532,-4.3497,-4.4158,-4.4212,-4.3622,-4.4174,-4.4559,-4.4611,-4.5436,-4.6281,-4.6959,-4.6473,-4.6096,-4.6067,-4.5584,-4.5287,-4.5287,-4.5547,-4.5992,-4.6661,-4.7441,-4.8252,-4.909,-4.8488,-4.7788,-4.723,-4.6321,-4.5435,-4.4895,-4.6073,-4.7012,-4.7162,-4.8461,-4.9474,-4.949,-4.9521,-4.9258,-4.8679,-4.8747,-4.8912,-4.8303,-4.8523,-4.9224,-5.0171,-5.0949,-5.1613,-5.1885,-5.1933,-5.221,-5.2944,-5.3243,-5.3494,-5.3958,-5.4271,-5.3748,-5.2286,-5.2399,-5.1759,-4.9909,-4.9904,-5.027,-5.0275,-5.0111,-4.9923,-4.9803,-4.9683,-4.9544,-5.4289,-5.3665,-5.5023,-5.4803,-5.3555,-5.4032,-5.3849,-5.3203,-5.3203,-5.3203,-5.3203,-5.3203,-5.3203,-5.3203,-5.3203,-5.3203,-5.3203,-5.3203,-5.3203,-5.3093,-5.1536,-5.0802,-5.0729,-4.9077,-4.8306,-4.8306,-4.8306,-4.8306,-4.8306,-4.8306,-4.8306,-4.8325,-4.8438,-4.855,-4.8605,-4.8624,-4.8217,-4.7424,-4.7387,-4.7035,-4.6239,-4.5382,-4.4963,-4.4891,-4.4206,-4.3764,-4.3662,-4.362,-4.3546,-4.3515,-4.3625,-4.3676,-4.3754,-4.3865,-4.3968,-4.413,-4.4925,-4.5461,-4.5626,-4.5493,-4.5122,-4.4469,-4.4915,-4.5287,-4.5324,-4.6587,-4.7404,-4.7553,-4.8221,-4.8813,-4.9064,-4.8439,-4.8034,-4.7829,-4.6592,-4.566,-4.551,-4.6373,-4.7012,-4.7049,-4.8377,-4.939,-4.9505,-4.9574,-4.9491,-4.9153,-4.8532,-4.7686,-4.7823,-4.8696,-4.9638,-5.0051,-5.0409,-5.096,-5.1711,-5.1934,-5.2252,-5.3099,-5.3224,-5.3433,-5.4179,-5.4457,-5.4116,-5.3267,-5.3115,-5.2498,-5.0846,-5.0709,-5.0708,-5.0577,-5.0486,-5.032,-4.9924,-4.979,-4.9689,-5.4179,-5.3995,-5.5097,-5.517,-5.4509,-5.4436,-5.3959,-5.3203,-5.3203,-5.3203,-5.3203,-5.3203,-5.3203,-5.3203,-5.3203,-5.3203,-5.3203,-5.3203,-5.3203,-5.3057,-5.1536,-5.0802,-5.0655,-4.9114,-4.8306,-4.8306,-4.8306,-4.8306,-4.8306,-4.8306,-4.8306,-4.8306,-4.8344,-4.8401,-4.8458,-4.8495,-4.8163,-4.7371,-4.6945,-4.6387,-4.5608,-4.4711,-4.4288,-4.4338,-4.398,-4.3795,-4.38,-4.3795,-4.3795,-4.38,-4.3747,-4.3795,-4.3897,-4.3897,-4.4353,-4.5287,-4.5732,-4.6327,-4.7218,-4.6847,-4.6067,-4.4841,-4.5881,-4.6587,-4.6587,-4.7293,-4.7701,-4.7738,-4.8444,-4.8996,-4.9131,-4.8845,-4.8536,-4.8175,-4.7109,-4.6223,-4.5885,-4.6486,-4.6974,-4.7124,-4.8408,-4.9468,-4.9619,-4.9707,-4.9528,-4.914,-4.8453,-4.8112,-4.8047,-4.9111,-5.0025,-5.0262,-5.0711,-5.1267,-5.1818,-5.1568,-5.1722,-5.25,-5.2284,-5.2473,-5.3185,-5.3683,-5.3304,-5.1989,-5.2453,-5.2298,-5.021,-5.0357,-5.0703,-5.0778,-5.0653,-5.0497,-5.0275,-5.0038,-4.9404,-5.4252,-5.4473,-5.5244,-5.5706,-5.5802,-5.4868,-5.4096,-5.3503,-5.3319,-5.3209,-5.3167,-5.3203,-5.3203,-5.3203,-5.3203,-5.3203,-5.3203,-5.3203,-5.3203,-5.3057,-5.1756,-5.0986,-5.0655,-4.926,-4.8489,-4.8343,-4.8306,-4.8306,-4.8306,-4.8306,-4.8306,-4.8306,-4.8306,-4.8306,-4.8306,-4.8419,-4.8162,-4.7537,-4.68,-4.604,-4.5366,-4.4733,-4.4374,-4.4252,-4.4268,-4.4209,-4.4023,-4.4023,-4.4023,-4.4023,-4.4023,-4.4061,-4.4246,-4.4283,-4.4952,-4.629,-4.6327,-4.6661,-4.7627,-4.7404,-4.6624,-4.5472,-4.6773,-4.7701,-4.7701,-4.7887,-4.7961,-4.8036,-4.861,-4.9013,-4.9148,-4.9176,-4.9033,-4.8483,-4.7748,-4.7049,-4.6486,-4.6861,-4.7274,-4.7425,-4.8589,-4.9582,-4.9736,-4.9848,-4.9629,-4.9084,-4.8903,-4.8843,-4.8871,-4.9439,-4.9927,-5.0495,-5.1015,-5.1327,-5.1626,-5.1221,-5.115,-5.176,-5.1352,-5.1531,-5.2136,-5.2724,-5.2414,-5.1022,-5.1679,-5.1641,-4.9513,-4.99,-5.0666,-5.0642,-5.0598,-5.0558,-5.0141,-4.9936,-4.9249,-5.3739,-5.4473,-5.5244,-5.6081,-5.6573,-5.5281,-5.458,-5.4312,-5.3629,-5.3272,-5.3188,-5.3203,-5.3203,-5.3203,-5.3203,-5.3203,-5.3203,-5.3203,-5.3203,-5.3093,-5.2307,-5.1499,-5.0802,-4.9904,-4.9077,-4.8416,-4.8343,-4.8379,-4.8306,-4.8306,-4.8343,-4.8306,-4.8306,-4.8343,-4.8343,-4.8306,-4.8269,-4.8196,-4.7425,-4.6709,-4.615,-4.6069,-4.5749,-4.5025,-4.5106,-4.4804,-4.4098,-4.4023,-4.4023,-4.4023,-4.4023,-4.4358,-4.5064,-4.5175,-4.5547,-4.6401,-4.5881,-4.5175,-4.4655,-4.5101,-4.5584,-4.5435,-4.6847,-4.7738,-4.7776,-4.837,-4.8779,-4.8779,-4.8959,-4.9084,-4.9118,-4.9214,-4.9236,-4.9096,-4.8446,-4.8063,-4.7913,-4.8025,-4.8101,-4.8101,-4.8904,-4.9582,-4.9792,-4.9959,-4.9832,-4.9198,-4.9166,-4.9182,-4.928,-4.9362,-4.9789,-5.0481,-5.0711,-5.0661,-5.0875,-5.0898,-5.0932,-5.1082,-5.099,-5.1246,-5.1757,-5.1679,-5.1138,-5.1254,-5.1447,-5.0945,-5.0248,-5.0287,-5.0589,-5.0395,-5.0425,-5.0542,-4.9576,-4.9415,-4.91,-5.3387,-5.3775,-5.4546,-5.5125,-5.5454,-5.5412,-5.4864,-5.3937,-5.3486,-5.3277,-5.3272,-5.3209,-5.3203,-5.3203,-5.3203,-5.3203,-5.3203,-5.3203,-5.3203,-5.313,-5.238,-5.1573,-5.0802,-5.0472,-4.9627,-4.8453,-4.882,-4.8783,-4.8379,-4.8306,-4.8563,-4.8967,-4.8563,-4.8563,-4.8967,-4.8563,-4.8306,-4.8287,-4.7976,-4.7664,-4.739,-4.6597,-4.6055,-4.5769,-4.5412,-4.509,-4.4766,-4.4283,-4.4246,-4.4692,-4.4766,-4.5138,-4.5955,-4.5992,-4.6364,-4.7107,-4.7367,-4.707,-4.6252,-4.6958,-4.7218,-4.6773,-4.7776,-4.8407,-4.8407,-4.8704,-4.889,-4.889,-4.8996,-4.9118,-4.9148,-4.9262,-4.9305,-4.9277,-4.8686,-4.8213,-4.8176,-4.8176,-4.8176,-4.8266,-4.9062,-4.975,-4.9959,-5.0271,-5.0068,-4.9537,-4.9652,-5.0115,-5.0135,-5.0096,-5.0547,-5.1236,-5.1094,-5.0767,-5.0821,-5.0855,-5.0888,-5.0913,-5.089,-5.113,-5.1293,-5.1718,-5.1563,-5.0945,-5.1161,-5.0929,-4.9939,-5.0357,-5.0743,-5.0465,-5.0358,-5.0462,-4.9854,-4.9682,-4.9282,-5.3356,-5.3708,-5.4727,-5.5365,-5.5634,-5.6108,-5.5648,-5.4519,-5.3994,-5.3801,-5.3944,-5.3472,-5.3356,-5.3482,-5.3298,-5.3203,-5.3203,-5.3203,-5.3203,-5.313,-5.2601,-5.1903,-5.1169,-5.0875,-5.0068,-4.893,-4.9003,-4.9003,-4.8673,-4.8636,-4.9077,-4.9721,-4.9297,-4.9187,-4.95,-4.893,-4.8526,-4.8343,-4.8306,-4.8306,-4.8159,-4.7243,-4.667,-4.6587,-4.6066,-4.5725,-4.5621,-4.5026,-4.4952,-4.56,-4.5621,-4.5992,-4.6773,-4.681,-4.7107,-4.7664,-4.8221,-4.8221,-4.7441,-4.811,-4.8333,-4.785,-4.8444,-4.9002,-4.915,-4.9056,-4.9073,-4.9296,-4.9213,-4.9164,-4.9197,-4.9466,-4.9696,-4.9775,-4.9227,-4.8889,-4.8927,-4.8739,-4.8589,-4.8657,-4.955,-5.0234,-5.048,-5.0636,-5.0462,-5.0298,-5.0939,-5.1722,-5.1806,-5.2121,-5.2597,-5.3022,-5.2326,-5.1468,-5.1043,-5.0897,-5.0913,-5.089,-5.0898,-5.0898,-5.0813,-5.1346,-5.1537,-5.0589,-5.1172,-5.1073,-5.0005,-5.0215,-5.0898,-5.0858,-5.069,-5.0333,-4.9717,-4.9721,-4.9297,-5.3692,-5.4665,-5.6367,-5.7413,-5.8212,-5.7612,-5.7279,-5.6698,-5.5434,-5.5147,-5.5349,-5.4054,-5.3734,-5.4252,-5.3592,-5.3203,-5.3203,-5.3203,-5.3203,-5.3203,-5.313,-5.2711,-5.1903,-5.1169,-5.0362,-4.9427,-4.8857,-4.8857,-4.9427,-4.9481,-4.9884,-5.0692,-5.0618,-5.0251,-4.9757,-4.9537,-4.9114,-4.8489,-4.8343,-4.8343,-4.8379,-4.8269,-4.7868,-4.746,-4.7418,-4.7043,-4.6533,-4.6401,-4.6401,-4.6438,-4.6438,-4.681,-4.7553,-4.7664,-4.7701,-4.7738,-4.7776,-4.7478,-4.6921,-4.7478,-4.7887,-4.7887,-4.8556,-4.9262,-4.993,-4.9574,-4.9551,-5.0127,-4.9666,-4.9321,-4.938,-5.0006,-5.0461,-5.0541,-5.0557,-5.0482,-5.0482,-4.9715,-4.949,-4.9574,-5.0348,-5.1025,-5.1507,-5.1057,-5.1307,-5.1785,-5.2679,-5.3516,-5.4315,-5.5105,-5.5299,-5.5114,-5.4186,-5.2824,-5.136,-5.0905,-5.089,-5.0898,-5.0898,-5.089,-5.0532,-5.0289,-5.0286,-5.0212,-5.0289,-5.0192,-4.9749,-4.9984,-5.0657,-5.0761,-5.0489,-5.0133,-4.9721,-4.9522,-4.9108,-5.3797,-5.4732,-5.6006,-5.6677,-5.6994,-5.7357,-5.7192,-5.6594,-5.5977,-5.5743,-5.5744,-5.5165,-5.4727,-5.4399,-5.4106,-5.3702,-5.3203,-5.3203,-5.3203,-5.3203,-5.3203,-5.2784,-5.2013,-5.1683,-5.0839,-4.9721,-4.926,-4.926,-4.961,-5.0068,-5.0729,-5.1316,-5.1022,-5.0655,-5.0325,-4.9848,-4.9427,-4.9133,-4.86,-4.882,-4.9664,-4.8857,-4.8437,-4.879,-4.7941,-4.7399,-4.7256,-4.6773,-4.6735,-4.7218,-4.7256,-4.7627,-4.837,-4.8481,-4.8481,-4.8481,-4.8444,-4.8333,-4.8147,-4.8296,-4.8704,-4.9224,-4.9522,-5.0079,-5.0711,-5.0709,-5.0522,-5.0331,-5.0104,-4.9965,-5.0156,-5.0445,-5.066,-5.0691,-5.0707,-5.0745,-5.0557,-5.0016,-4.9678,-5.0319,-5.1272,-5.1929,-5.1924,-5.2078,-5.2536,-5.2919,-5.3726,-5.4865,-5.5849,-5.5857,-5.5664,-5.5664,-5.4611,-5.3224,-5.256,-5.1404,-5.0898,-5.0898,-5.089,-5.0825,-5.0572,-5.0952,-5.1057,-5.0544,-5.0254,-5.0451,-5.0493,-5.0375,-5.0919,-5.0957,-5.0634,-5.0221,-4.9824,-4.9676,-4.9114,-5.4068,-5.5188,-5.5882,-5.6479,-5.7019,-5.7637,-5.7583,-5.7043,-5.6685,-5.6603,-5.6626,-5.6113,-5.5454,-5.4868,-5.4531,-5.3959,-5.324,-5.3203,-5.3203,-5.3203,-5.3203,-5.2894,-5.2417,-5.2123,-5.1446,-5.0492,-5.0088,-5.0068,-5.0418,-5.0912,-5.161,-5.227,-5.183,-5.1426,-5.1132,-5.0618,-5.0271,-4.9921,-4.9407,-4.9701,-5.0508,-4.9444,-4.9172,-4.9709,-4.8587,-4.7882,-4.8021,-4.7536,-4.7516,-4.7999,-4.8073,-4.8333,-4.8853,-4.889,-4.889,-4.889,-4.889,-4.9039,-4.9262,-4.9299,-4.9633,-5.045,-5.0562,-5.0933,-5.1639,-5.1582,-5.1227,-5.0815,-5.0491,-5.048,-5.0621,-5.0869,-5.118,-5.1383,-5.1255,-5.1217,-5.1421,-5.0541,-5.0613,-5.1578,-5.2164,-5.2511,-5.2735,-5.3089,-5.3605,-5.4104,-5.5028,-5.6244,-5.7521,-5.7559,-5.6979,-5.7366,-5.6128,-5.5118,-5.4273,-5.3293,-5.179,-5.1503,-5.1045,-5.0894,-5.1,-5.148,-5.1524,-5.0947,-5.0874,-5.124,-5.1281,-5.1101,-5.1106,-5.1189,-5.0826,-5.0347,-5.0057,-4.9832,-4.9396,-5.4522,-5.5957,-5.6243,-5.7154,-5.838,-5.8528,-5.8661,-5.838,-5.7786,-5.7761,-5.7931,-5.6715,-5.6055,-5.5638,-5.4942,-5.4032,-5.3445,-5.324,-5.3203,-5.3203,-5.3203,-5.3167,-5.3057,-5.2344,-5.1924,-5.161,-5.1132,-5.1206,-5.1756,-5.194,-5.238,-5.3041,-5.302,-5.2527,-5.194,-5.1756,-5.1499,-5.0912,-5.0655,-5.0765,-5.0729,-5.0068,-4.998,-5.0574,-4.9417,-4.8734,-4.8824,-4.8764,-4.8704,-4.8816,-4.889,-4.8927,-4.9076,-4.9113,-4.9039,-4.9113,-4.9039,-4.9373,-5.0005,-5.0116,-5.0488,-5.1231,-5.1416,-5.1751,-5.2364,-5.2119,-5.1743,-5.1501,-5.1058,-5.0756,-5.0932,-5.1394,-5.2081,-5.2923,-5.2344,-5.2231,-5.2548,-5.1721,-5.1488,-5.3117,-5.3251,-5.333,-5.4024,-5.4232,-5.4491,-5.5647,-5.6738,-5.7869,-5.9261,-5.9648,-6.0538,-6.019,-5.8053,-5.6045,-5.5677,-5.5221,-5.356,-5.2165,-5.1528,-5.112,-5.1376,-5.1746,-5.1832,-5.1434,-5.157,-5.1877,-5.216,-5.1962,-5.1712,-5.1649,-5.1068,-5.0661,-5.0554,-5.0355,-4.9976,-5.466,-5.6206,-5.6263,-5.7249,-5.8603,-5.8677,-5.8677,-5.8677,-5.8438,-5.8412,-5.836,-5.7882,-5.7257,-5.6522,-5.564,-5.4766,-5.4032,-5.3497,-5.3203,-5.324,-5.3203,-5.3203,-5.3057,-5.238,-5.172,-5.1316,-5.1499,-5.172,-5.205,-5.2564,-5.3004,-5.3167,-5.3203,-5.2784,-5.2087,-5.1997,-5.183,-5.161,-5.1096,-5.1279,-5.2197,-5.1132,-5.0565,-5.0732,-5.039,-5.0026,-4.9603,-4.9137,-4.8927,-4.8927,-4.9447,-5.0005,-5.0488,-5.0636,-5.0636,-5.0636,-5.0636,-5.0673,-5.0933,-5.1008,-5.1342,-5.2048,-5.2234,-5.2605,-5.3311,-5.3293,-5.2974,-5.2506,-5.1898,-5.1645,-5.2198,-5.2027,-5.2344,-5.3111,-5.2961,-5.2848,-5.3107,-5.2859,-5.2968,-5.358,-5.4244,-5.4622,-5.4755,-5.4997,-5.6063,-5.6815,-5.8062,-5.9416,-6.0306,-5.9957,-5.9377,-5.9145,-5.7512,-5.6596,-5.6143,-5.5611,-5.4532,-5.3272,-5.2494,-5.1807,-5.1953,-5.2274,-5.2267,-5.2347,-5.2441,-5.2652,-5.29,-5.2781,-5.2502,-5.2026,-5.15,-5.125,-5.1188,-5.1002,-5.0698,-5.4736,-5.6246,-5.632,-5.7249,-5.8603,-5.8677,-5.8677,-5.8677,-5.8677,-5.8656,-5.8572,-5.8465,-5.7913,-5.7103,-5.6382,-5.5655,-5.4803,-5.3995,-5.3812,-5.3922,-5.335,-5.3203,-5.3151,-5.2711,-5.2234,-5.1867,-5.2234,-5.2454,-5.2491,-5.2931,-5.3203,-5.3203,-5.3203,-5.2968,-5.2491,-5.2454,-5.2454,-5.2344,-5.1977,-5.2197,-5.269,-5.194,-5.1389,-5.1573,-5.1176,-5.0871,-5.0636,-5.0102,-4.9635,-4.9467,-4.9856,-5.0525,-5.1268,-5.1379,-5.1379,-5.1379,-5.1416,-5.1491,-5.1788,-5.1862,-5.2215,-5.2903,-5.307,-5.3274,-5.3777,-5.4019,-5.3701,-5.297,-5.2568,-5.2523,-5.2894,-5.274,-5.2778,-5.3495,-5.3341,-5.3257,-5.337,-5.3815,-5.4164,-5.4535,-5.5042,-5.5275,-5.548,-5.5836,-5.7125,-5.7753,-5.872,-5.9725,-6.019,-5.9764,-5.9184,-5.8526,-5.7598,-5.6887,-5.6377,-5.5865,-5.5293,-5.4434,-5.3632,-5.2991,-5.2752,-5.3231,-5.3425,-5.3658,-5.3846,-5.4028,-5.4243,-5.3605,-5.3137,-5.2531,-5.2198,-5.2203,-5.2261,-5.1966,-5.1691,-5.4699,-5.6172,-5.6283,-5.7175,-5.8512,-5.8661,-5.8677,-5.8677,-5.8677,-5.8677,-5.8656,-5.8551,-5.8095,-5.7396,-5.7007,-5.6382,-5.5633,-5.4693,-5.4693,-5.4803,-5.4106,-5.3314,-5.3167,-5.3225,-5.3151,-5.3041,-5.3057,-5.313,-5.3057,-5.3167,-5.3203,-5.3203,-5.3203,-5.3203,-5.3078,-5.3167,-5.3093,-5.3057,-5.3057,-5.3093,-5.3188,-5.2491,-5.227,-5.2858,-5.1838,-5.1457,-5.1701,-5.1377,-5.0898,-5.0358,-5.0413,-5.0896,-5.1416,-5.1528,-5.1714,-5.1751,-5.1565,-5.2011,-5.2494,-5.2679,-5.2977,-5.3702,-5.3758,-5.387,-5.4018,-5.4073,-5.3847,-5.323,-5.3069,-5.3082,-5.3144,-5.3048,-5.344,-5.4026,-5.3703,-5.3478,-5.3634,-5.4425,-5.4928,-5.5334,-5.5588,-5.5686,-5.5864,-5.6111,-5.697,-5.7907,-5.8604,-5.9377,-5.9687,-5.9648,-5.9339,-5.8604,-5.7675,-5.7223,-5.6734,-5.6984,-5.6527,-5.6256,-5.5397,-5.4725,-5.3928,-5.4177,-5.4513,-5.4806,-5.4918,-5.5205,-5.5138,-5.4436,-5.4101,-5.3914,-5.3662,-5.351,-5.3224,-5.2916,-5.2728,-5.4387,-5.5391,-5.606,-5.6878,-5.7843,-5.8438,-5.8698,-5.8677,-5.8677,-5.8677,-5.8656,-5.8535,-5.836,-5.8095,-5.7346,-5.6831,-5.6345,-5.5104,-5.484,-5.5317,-5.4583,-5.3739,-5.3482,-5.3812,-5.3739,-5.3298,-5.324,-5.3203,-5.3203,-5.3277,-5.3277,-5.3203,-5.3314,-5.324,-5.3203,-5.324,-5.3203,-5.3203,-5.3203,-5.3203,-5.3167,-5.2983,-5.2674,-5.227,-5.2438,-5.2353,-5.2197,-5.2079,-5.2066,-5.1992,-5.1936,-5.2345,-5.2977,-5.3051,-5.3014,-5.3014,-5.3088,-5.32,-5.3385,-5.346,-5.3627,-5.3795,-5.3907,-5.3963,-5.4019,-5.4164,-5.4105,-5.3824,-5.3464,-5.3331,-5.3671,-5.3412,-5.3489,-5.3975,-5.4141,-5.4125,-5.4305,-5.4766,-5.5197,-5.5511,-5.5769,-5.5991,-5.6193,-5.6566,-5.7125,-5.7821,-5.8681,-5.9532,-5.9725,-5.9493,-5.9106,-5.8604,-5.7907,-5.7521,-5.7396,-5.7782,-5.7946,-5.7985,-5.7434,-5.6768,-5.5865,-5.5249,-5.5461,-5.5663,-5.5391,-5.5511,-5.5451,-5.5091,-5.5075,-5.4959,-5.4409,-5.3911,-5.4036,-5.3885,-5.3764,-5.4277,-5.5038,-5.554,-5.6432,-5.7509,-5.8029,-5.8401,-5.8661,-5.8677,-5.8677,-5.8677,-5.8635,-5.8535,-5.8434,-5.7854,-5.756,-5.7295,-5.5871,-5.5733,-5.6455,-5.6161,-5.517,-5.4216,-5.4252,-5.3995,-5.3314,-5.3555,-5.3702,-5.3812,-5.3995,-5.4179,-5.4289,-5.4216,-5.4069,-5.3739,-5.3702,-5.3518,-5.3277,-5.3203,-5.3203,-5.3203,-5.3203,-5.2983,-5.2637,-5.3004,-5.2936,-5.2655,-5.2779,-5.2768,-5.2585,-5.2568,-5.2977,-5.3683,-5.3794,-5.3794,-5.3794,-5.3794,-5.3794,-5.3794,-5.3794,-5.385,-5.3888,-5.3926,-5.3963,-5.4037,-5.4128,-5.4202,-5.4088,-5.3731,-5.3769,-5.405,-5.3979,-5.4298,-5.4969,-5.5118,-5.5053,-5.4805,-5.5323,-5.5798,-5.6157,-5.6592,-5.6936,-5.7004,-5.7196,-5.7648,-5.8247,-5.8836,-5.9416,-5.9725,-5.93,-5.8952,-5.8604,-5.841,-5.8139,-5.8023,-5.8333,-5.8604,-5.872,-5.8565,-5.8101,-5.733,-5.6319,-5.6,-5.6009,-5.5876,-5.5741,-5.568,-5.5625,-5.5586,-5.5277,-5.4735,-5.4619,-5.4851,-5.4766,-5.4669,-5.4314,-5.4871,-5.4983,-5.5855,-5.71,-5.736,-5.7806,-5.8475,-5.8512,-5.8586,-5.8677,-5.8677,-5.8635,-5.8529,-5.8332,-5.8275,-5.8113,-5.6758,-5.6888,-5.7361,-5.75,-5.6794,-5.5064,-5.492,-5.4473,-5.3885,-5.4252,-5.4363,-5.4473,-5.506,-5.5412,-5.5229,-5.528,-5.5097,-5.4436,-5.4289,-5.3959,-5.3314,-5.3203,-5.3203,-5.3203,-5.3203,-5.313,-5.3093,-5.3093,-5.3209,-5.3203,-5.3289,-5.3168,-5.2564,-5.2641,-5.3106,-5.3757,-5.3794,-5.3794,-5.3868,-5.3943,-5.398,-5.3868,-5.3943,-5.3925,-5.3963,-5.3888,-5.3889,-5.4055,-5.4186,-5.4353,-5.4408,-5.4314,-5.4608,-5.4755,-5.5061,-5.5548,-5.6071,-5.6312,-5.5917,-5.5557,-5.602,-5.6767,-5.7187,-5.7884,-5.8256,-5.8239,-5.8018,-5.7873,-5.85,-5.906,-5.9456,-5.9727,-5.962,-5.9329,-5.899,-5.8874,-5.8797,-5.8797,-5.8913,-5.9068,-5.9223,-5.9068,-5.8681,-5.8178,-5.733,-5.6652,-5.6334,-5.6395,-5.6202,-5.59,-5.5896,-5.5935,-5.5818,-5.5393,-5.5625,-5.5887,-5.5599,-5.5421,-5.45,-5.4128,-5.474,-5.5186,-5.5614,-5.6246,-5.7026,-5.7732,-5.7769,-5.8103,-5.8586,-5.8698,-5.8677,-5.8635,-5.8529,-5.8422,-5.8216,-5.7316,-5.6978,-5.7095,-5.8126,-5.7846,-5.6784,-5.6461,-5.5838,-5.5272,-5.5229,-5.5045,-5.4825,-5.5324,-5.5339,-5.495,-5.5537,-5.5207,-5.462,-5.462,-5.4032,-5.3335,-5.3225,-5.3261,-5.3319,-5.3298,-5.3277,-5.3277,-5.3203,-5.3188,-5.323,-5.3297,-5.3289,-5.3299,-5.3419,-5.3552,-5.3757,-5.3868,-5.3905,-5.4054,-5.4463,-5.4481,-5.4072,-5.4388,-5.4463,-5.3981,-5.3944,-5.3982,-5.4038,-5.4634,-5.4951,-5.5192,-5.5765,-5.6144,-5.6425,-5.6466,-5.6553,-5.6649,-5.6518,-5.6482,-5.6765,-5.7028,-5.7426,-5.792,-5.8259,-5.8329,-5.84,-5.8402,-5.8461,-5.8828,-5.9157,-5.9514,-5.9766,-5.994,-5.9804,-5.9591,-5.96,-5.96,-5.9648,-5.9725,-5.988,-5.9919,-5.9725,-5.9571,-5.9029,-5.8565,-5.7946,-5.7443,-5.7048,-5.6777,-5.6351,-5.6128,-5.6167,-5.6089,-5.6003,-5.6081,-5.6081,-5.6063,-5.595,-5.4537,-5.3868,-5.4277,-5.4686,-5.5057,-5.5503,-5.6172,-5.684,-5.6952,-5.7398,-5.8029,-5.8141,-5.8364,-5.8677,-5.8572,-5.8465,-5.8297,-5.7773,-5.7518,-5.7719,-5.8343,-5.855,-5.8559,-5.8008,-5.7394,-5.6392,-5.6372,-5.614,-5.6098,-5.6294,-5.6602,-5.6124,-5.6514,-5.6381,-5.5647,-5.5464,-5.5006,-5.4191,-5.3823,-5.3823,-5.3953,-5.3823,-5.3775,-5.3665,-5.3424,-5.3203,-5.3188,-5.3293,-5.338,-5.3501,-5.3676,-5.3774,-5.3886,-5.4166,-5.4351,-5.45,-5.5131,-5.5429,-5.5206,-5.4946,-5.4834,-5.4388,-5.4111,-5.3944,-5.4093,-5.4671,-5.5099,-5.5417,-5.6142,-5.7075,-5.7731,-5.7129,-5.6978,-5.7207,-5.6818,-5.6926,-5.7635,-5.7885,-5.8178,-5.8755,-5.9265,-5.9491,-5.9524,-5.916,-5.9346,-5.984,-5.9426,-5.9783,-6.0401,-6.0537,-6.049,-6.0394,-6.0413,-6.0432,-6.0528,-6.0615,-6.0731,-6.0692,-6.0538,-6.046,-6.0228,-5.9803,-5.9377,-5.8642,-5.7791,-5.7241,-5.6815,-5.6622,-5.6437,-5.6205,-5.6167,-5.6197,-5.6188,-5.6084,-5.6009,-5.4723,-5.398,-5.3868,-5.4203,-5.474,-5.4834,-5.5317,-5.6023,-5.6097,-5.6543,-5.7212,-5.7323,-5.7732,-5.8343,-5.8333,-5.8338,-5.8356,-5.8297,-5.8198,-5.8221,-5.8435,-5.8876,-5.9174,-5.8989,-5.8557,-5.7424,-5.7547,-5.7576,-5.7529,-5.7888,-5.778,-5.7884,-5.8023,-5.7375,-5.6904,-5.6734,-5.6138,-5.5138,-5.4847,-5.4843,-5.4993,-5.4827,-5.4659,-5.4179,-5.4106,-5.3497,-5.3445,-5.3566,-5.367,-5.3534,-5.382,-5.3992,-5.4108,-5.4518,-5.5112,-5.5169,-5.6023,-5.6246,-5.5986,-5.5614,-5.5206,-5.5057,-5.4463,-5.4054,-5.4203,-5.5002,-5.556,-5.5995,-5.6761,-5.7817,-5.8401,-5.7829,-5.7476,-5.7577,-5.7185,-5.7493,-5.8278,-5.8653,-5.9116,-5.9624,-6.0023,-6.0277,-6.0288,-6.0129,-6.0459,-6.0608,-6.0156,-6.0012,-6.0629,-6.0987,-6.0864,-6.0828,-6.077,-6.0771,-6.0838,-6.0847,-6.1079,-6.1079,-6.1041,-6.1002,-6.0963,-6.0654,-6.0035,-5.9184,-5.841,-5.7946,-5.7589,-5.7521,-5.7172,-5.6631,-5.6467,-5.6699,-5.6488,-5.6114,-5.602,-5.5577,-5.476,-5.4091,-5.3905,-5.4017,-5.4017,-5.4518,-5.5131,-5.5243,-5.5726,-5.6432,-5.6543,-5.7026,-5.7563,-5.7711,-5.7921,-5.8295,-5.8375,-5.8349,-5.8231,-5.8429,-5.8929,-5.9307,-5.9379,-5.9328,-5.9608,-5.9235,-5.8577,-5.8278,-5.8559,-5.8432,-5.7914,-5.818,-5.7941,-5.7214,-5.6771,-5.6725,-5.6154,-5.5946,-5.5986,-5.5986,-5.5808,-5.5438,-5.4816,-5.4846,-5.4399,-5.3849,-5.4421,-5.4632,-5.3633,-5.4769,-5.5094,-5.4993,-5.5035,-5.5446,-5.6097,-5.684,-5.7138,-5.6617,-5.6246,-5.5689,-5.5206,-5.4909,-5.4834,-5.5131,-5.606,-5.6752,-5.7396,-5.8214,-5.9191,-5.8973,-5.8471,-5.7959,-5.7732,-5.767,-5.8006,-5.879,-5.9359,-5.9928,-6.0349,-6.0666,-6.0793,-6.065,-6.0585,-6.0684,-6.0734,-6.0542,-6.0371,-6.0729,-6.0933,-6.0916,-6.092,-6.0972,-6.0983,-6.107,-6.1031,-6.1118,-6.1118,-6.1079,-6.1079,-6.1041,-6.1079,-6.0576,-5.9841,-5.9339,-5.899,-5.872,-5.8449,-5.8139,-5.7714,-5.7512,-5.7271,-5.6818,-5.6395,-5.6059,-5.6692,-5.6283,-5.5874,-5.5466,-5.5131,-5.5094,-5.4797,-5.4388,-5.4388,-5.4834,-5.5577,-5.6097,-5.6506,-5.7026,-5.7881,-5.8053,-5.791,-5.8295,-5.8169,-5.7904,-5.8301,-5.8968,-5.9395,-5.9502,-5.9874,-6.0159,-5.9931,-5.9521,-5.8991,-5.9063,-5.8878,-5.8556,-5.8581,-5.8296,-5.7888,-5.7771,-5.7485,-5.7189,-5.7098,-5.7098,-5.7022,-5.6783,-5.6208,-5.6103,-5.5631,-5.5155,-5.484,-5.4987,-5.5309,-5.4917,-5.5386,-5.5881,-5.608,-5.6199,-5.6409,-5.6969,-5.7658,-5.7992,-5.7509,-5.7212,-5.6729,-5.6357,-5.5949,-5.5689,-5.5949,-5.6749,-5.7841,-5.8651,-5.9294,-6.0056,-5.9997,-5.9258,-5.8673,-5.831,-5.8099,-5.8327,-5.8939,-5.9574,-6.0187,-6.0692,-6.0781,-6.0781,-6.0781,-6.0754,-6.0781,-6.0781,-6.0781,-6.0804,-6.0827,-6.0877,-6.09,-6.0916,-6.098,-6.1031,-6.1041,-6.106,-6.1109,-6.1118,-6.1118,-6.1118,-6.1118,-6.1118,-6.1002,-6.0615,-6.0267,-5.9803,-5.9609,-5.9261,-5.9029,-5.8758,-5.8353,-5.7862,-5.7177,-5.6667,-5.6415,-5.7769,-5.7769,-5.7732,-5.7286,-5.6617,-5.6357,-5.5429,-5.424,-5.4091,-5.4351,-5.4834,-5.5614,-5.6134,-5.6655,-5.7526,-5.7979,-5.727,-5.7663,-5.7423,-5.7394,-5.7938,-5.8746,-5.9379,-5.982,-6.0022,-6.0313,-6.0328,-6.0256,-5.9823,-5.9635,-5.9412,-5.9232,-5.895,-5.8791,-5.8676,-5.8581,-5.8445,-5.8297,-5.8201,-5.8201,-5.8016,-5.7559,-5.7233,-5.7516,-5.671,-5.6245,-5.5644,-5.6197,-5.6058,-5.5911,-5.6116,-5.6608,-5.7149,-5.7434,-5.7608,-5.7823,-5.8364,-5.8624,-5.8475,-5.7881,-5.7323,-5.7175,-5.684,-5.6657,-5.6889,-5.7603,-5.8559,-5.9592,-6.0106,-6.0182,-6.0035,-5.9562,-5.9035,-5.8689,-5.8345,-5.836,-5.9064,-5.9676,-6.021,-6.0589,-6.0742,-6.0781,-6.0781,-6.0781,-6.0781,-6.0781,-6.0781,-6.0781,-6.0804,-6.0804,-6.0827,-6.0883,-6.0938,-6.0962,-6.1002,-6.1041,-6.106,-6.1118,-6.1118,-6.1118,-6.1118,-6.1118,-6.1002,-6.0915,-6.0692,-6.0306,-6.019,-6.0112,-5.9957,-5.9639,-5.9108,-5.8491,-5.7806,-5.7294,-5.6991,-5.8586,-5.8586,-5.8586,-5.8103,-5.7398,-5.6729,-5.5837,-5.4983,-5.4889,-5.4443,-5.4314,-5.4946,-5.58,-5.6543,-5.7286,-5.7501,-5.7154,-5.6773,-5.6578,-5.6655,-5.7347,-5.8147,-5.8765,-5.9506,-5.9977,-6.0342,-6.0384,-6.037,-6.0232,-6.0173,-6.0038,-5.9777,-5.9588,-5.9485,-5.9122,-5.914,-5.9084,-5.9027,-5.899,-5.899,-5.8915,-5.8547,-5.8214,-5.8146,-5.8165,-5.7804,-5.6722,-5.7196,-5.7334,-5.6103,-5.7177,-5.7582,-5.7433,-5.7984,-5.8349,-5.8545,-5.8661,-5.8677,-5.8586,-5.8066,-5.7658,-5.7658,-5.7475,-5.7523,-5.7941,-5.8696,-5.9467,-5.9685,-6.0135,-6.0119,-5.9843,-5.9356,-5.8767,-5.8743,-5.8859,-5.9026,-5.9521,-5.9955,-6.05,-6.0589,-6.0781,-6.0781,-6.0781,-6.0781,-6.0781,-6.0781,-6.0781,-6.0781,-6.0781,-6.0781,-6.0793,-6.0839,-6.0933,-6.0948,-6.0962,-6.1002,-6.1032,-6.1099,-6.107,-6.1118,-6.1118,-6.1118,-6.1109,-6.0993,-6.0799,-6.079,-6.0693,-6.0664,-6.0799,-6.0432,-5.9727,-5.908,-5.8471,-5.8024,-5.7538,-6.011,-6.0184,-6.0593,-6.0333,-5.9515,-5.8698,-5.7621,-5.6506,-5.5912,-5.554,-5.5429,-5.606,-5.6878,-5.7472,-5.7658,-5.7151,-5.6772,-5.6615,-5.6393,-5.6409,-5.7106,-5.8053,-5.894,-5.9533,-6.0015,-6.047,-6.0436,-6.0412,-6.045,-6.0422,-6.0285,-6.0144,-5.9906,-5.9744,-5.9537,-5.9537,-5.9397,-5.9251,-5.9178,-5.9215,-5.9159,-5.9027,-5.8858,-5.8689,-5.9046,-5.8483,-5.808,-5.8111,-5.8238,-5.7324,-5.8039,-5.8186,-5.8052,-5.8286,-5.8535,-5.8677,-5.8698,-5.8677,-5.8661,-5.8326,-5.8178,-5.8243,-5.8363,-5.8615,-5.9067,-5.9624,-6.0091,-6.0106,-6.0376,-6.0316,-6.0112,-6.0086,-5.9894,-5.974,-5.9626,-5.9842,-6.0119,-6.0411,-6.0742,-6.0781,-6.0781,-6.0781,-6.0819,-6.0935,-6.0896,-6.0781,-6.0781,-6.0781,-6.0781,-6.0781,-6.0793,-6.0804,-6.0888,-6.0933,-6.0948,-6.0951,-6.1002,-6.1032,-6.107,-6.107,-6.1118,-6.1118,-6.109,-6.108,-6.0954,-6.0945,-6.1041,-6.1012,-6.0916,-6.0616,-6.0315,-5.9619,-5.896,-5.8445,-5.811,-6.1336,-6.1558,-6.2376,-6.2264,-6.1447,-6.0571,-5.9404,-5.8103,-5.7286,-5.6803,-5.6766,-5.7212,-5.7806,-5.8178,-5.7695,-5.706,-5.6257,-5.6957,-5.6735,-5.6742,-5.7538,-5.8897,-5.9726,-6.0183,-6.0609,-6.1054,-6.0592,-6.0822,-6.1013,-6.0731,-6.0398,-6.037,-6.0129,-5.9969,-5.9922,-5.9755,-5.9554,-5.9084,-5.9006,-5.8968,-5.9065,-5.9197,-5.927,-5.9305,-5.9325,-5.9178,-5.887,-5.873,-5.8545,-5.8319,-5.8253,-5.8363,-5.8412,-5.8582,-5.8764,-5.8885,-5.8984,-5.9064,-5.8947,-5.8811,-5.8764,-5.8905,-5.914,-5.9354,-5.9685,-6.015,-6.0335,-6.0279,-6.0559,-6.0734,-6.0781,-6.0731,-6.0604,-6.0515,-6.0604,-6.0731,-6.0819,-6.0896,-6.0858,-6.0781,-6.0781,-6.0781,-6.0896,-6.1089,-6.105,-6.0858,-6.0781,-6.0819,-6.0896,-6.1012,-6.1216,-6.1304,-6.1355,-6.1362,-6.1291,-6.1257,-6.1183,-6.1031,-6.1022,-6.107,-6.1099,-6.1099,-6.1041,-6.1031,-6.1059,-6.101,-6.1039,-6.101,-6.0982,-6.0797,-6.0534,-6.0068,-5.9474,-5.8968,-5.8704,-6.1633,-6.2413,-6.3171,-6.3044,-6.2264,-6.1447,-6.0593,-5.968,-5.8884,-5.8141,-5.7583,-5.7546,-5.7695,-5.7769,-5.7843,-5.734,-5.6486,-5.7035,-5.7158,-5.7672,-5.8801,-6.0078,-6.0774,-6.1175,-6.1622,-6.2185,-6.1423,-6.1513,-6.2063,-6.1144,-6.0707,-6.037,-6.0442,-6.038,-6.0203,-5.9969,-5.9554,-5.9103,-5.8888,-5.8767,-5.8967,-5.9215,-5.9505,-5.966,-5.9711,-5.9605,-5.9344,-5.9006,-5.8702,-5.8415,-5.8415,-5.8529,-5.864,-5.8828,-5.9025,-5.9215,-5.9434,-5.952,-5.952,-5.9178,-5.8984,-5.9159,-5.9502,-5.9788,-5.9962,-6.043,-6.0559,-6.0428,-6.0751,-6.081,-6.0846,-6.0808,-6.1106,-6.1127,-6.1243,-6.1243,-6.1204,-6.105,-6.1012,-6.0858,-6.0935,-6.1127,-6.1473,-6.182,-6.155,-6.132,-6.1204,-6.1243,-6.1435,-6.1589,-6.187,-6.2024,-6.2024,-6.2009,-6.1863,-6.1715,-6.1362,-6.1085,-6.1,-6.1106,-6.1173,-6.1134,-6.1029,-6.1162,-6.119,-6.1113,-6.0987,-6.0976,-6.0938,-6.0976,-6.0762,-6.036,-6.0068,-5.965,-5.9484,-6.2413,-6.3156,-6.349,-6.3453,-6.3082,-6.2264,-6.1744,-6.1336,-6.0593,-5.9775,-5.8921,-5.8512,-5.8549,-5.8846,-5.8958,-5.8846,-5.8566,-5.873,-5.8723,-5.8957,-5.9866,-6.0754,-6.1331,-6.1961,-6.233,-6.261,-6.1882,-6.1888,-6.2758,-6.1914,-6.1925,-6.1707,-6.1119,-6.0621,-6.0398,-6.0281,-5.9803,-5.956,-5.9271,-5.9197,-5.8908,-5.9417,-5.9609,-5.929,-5.9575,-5.9452,-5.9159,-5.9064,-5.8805,-5.8593,-5.8566,-5.8735,-5.898,-5.9196,-5.9457,-5.965,-5.9907,-6.0013,-6.0084,-5.9711,-5.9537,-5.9804,-6.0023,-6.0179,-6.037,-6.0685,-6.0734,-6.0776,-6.0993,-6.1173,-6.0873,-6.1492,-6.2054,-6.1862,-6.1781,-6.182,-6.1743,-6.1627,-6.1589,-6.1627,-6.1743,-6.1897,-6.2281,-6.2666,-6.2243,-6.182,-6.1743,-6.1704,-6.1973,-6.2166,-6.2435,-6.2781,-6.282,-6.2435,-6.229,-6.189,-6.145,-6.1214,-6.1004,-6.1235,-6.139,-6.1102,-6.1074,-6.1197,-6.1241,-6.1048,-6.0911,-6.09,-6.09,-6.0922,-6.0861,-6.0712,-6.0458,-6.0227,-6.0177,-6.2896,-6.3565,-6.3602,-6.3602,-6.3527,-6.3007,-6.2762,-6.2636,-6.1893,-6.1076,-6.0258,-5.9701,-5.9738,-6.0184,-6.0258,-5.9998,-5.9961,-6.0237,-6.037,-6.0641,-6.1027,-6.1698,-6.2277,-6.2723,-6.3074,-6.3093,-6.2752,-6.2836,-6.4052,-6.2861,-6.2861,-6.2836,-6.2222,-6.162,-6.1349,-6.0933,-6.0545,-6.0194,-6.0231,-5.9716,-5.9193,-5.9627,-5.9777,-5.9347,-5.9452,-5.9488,-5.929,-5.9159,-5.8888,-5.8793,-5.89,-5.9258,-5.9571,-5.9926,-6.0269,-6.0519,-6.0571,-6.0604,-6.0637,-6.0308,-6.0114,-6.0156,-6.0251,-6.0583,-6.0978,-6.1012,-6.0861,-6.1505,-6.163,-6.1619,-6.1363,-6.2272,-6.2707,-6.2538,-6.2666,-6.2704,-6.2589,-6.2435,-6.2435,-6.2474,-6.2589,-6.2627,-6.2974,-6.332,-6.3205,-6.2627,-6.205,-6.2204,-6.2666,-6.2858,-6.3012,-6.3358,-6.3705,-6.3166,-6.2627,-6.224,-6.1801,-6.1224,-6.1169,-6.1604,-6.1692,-6.1445,-6.1368,-6.1593,-6.1493,-6.102,-6.0854,-6.0854,-6.0866,-6.0877,-6.0816,-6.0754,-6.0716,-6.0523,-6.06,-6.2896,-6.3565,-6.3602,-6.3602,-6.3602,-6.3602,-6.3527,-6.3342,-6.2599,-6.1856,-6.1187,-6.1001,-6.1001,-6.115,-6.115,-6.0927,-6.0853,-6.167,-6.193,-6.1729,-6.2476,-6.3504,-6.3723,-6.3799,-6.4019,-6.4573,-6.4057,-6.3988,-6.5461,-6.3911,-6.3835,-6.4129,-6.3655,-6.3002,-6.3,-6.273,-6.1955,-6.0987,-6.1354,-6.0454,-5.9812,-6.0059,-5.991,-5.9646,-5.9532,-5.957,-5.9327,-5.9159,-5.8922,-5.9016,-5.942,-5.9892,-6.0416,-6.1274,-6.1864,-6.233,-6.2105,-6.2028,-6.1976,-6.0979,-6.0655,-6.0592,-6.0748,-6.107,-6.1618,-6.1577,-6.1518,-6.2396,-6.2462,-6.2514,-6.2694,-6.3115,-6.331,-6.3565,-6.3731,-6.3628,-6.3474,-6.332,-6.332,-6.332,-6.332,-6.3358,-6.3666,-6.3935,-6.4051,-6.3551,-6.2627,-6.2704,-6.3435,-6.3551,-6.3705,-6.4166,-6.4551,-6.4051,-6.3435,-6.2704,-6.2139,-6.1524,-6.1497,-6.2136,-6.2367,-6.2252,-6.2201,-6.2178,-6.1908,-6.1651,-6.1216,-6.087,-6.1035,-6.1239,-6.0881,-6.0781,-6.0781,-6.0781,-6.0781,-6.3379,-6.3602,-6.3602,-6.3602,-6.3602,-6.3602,-6.3602,-6.3453,-6.2784,-6.2264,-6.1893,-6.1484,-6.1558,-6.1856,-6.2041,-6.2041,-6.245,-6.2599,-6.2896,-6.294,-6.3664,-6.3913,-6.4236,-6.4527,-6.4839,-6.497,-6.4548,-6.4667,-6.5795,-6.4629,-6.4757,-6.5089,-6.4872,-6.4308,-6.3476,-6.2998,-6.26,-6.1983,-6.1667,-6.112,-6.0732,-6.0524,-6.0262,-5.9828,-5.9848,-5.97,-5.9346,-5.9209,-5.9255,-5.9499,-5.9998,-6.0489,-6.1186,-6.2102,-6.2477,-6.2839,-6.2733,-6.2885,-6.2846,-6.2413,-6.2043,-6.1723,-6.1531,-6.1902,-6.2654,-6.2666,-6.2963,-6.3399,-6.3518,-6.3719,-6.435,-6.4517,-6.4747,-6.5039,-6.5089,-6.4705,-6.4474,-6.4282,-6.4166,-6.4166,-6.4166,-6.4974,-6.5474,-6.5359,-6.5359,-6.5205,-6.4474,-6.4282,-6.482,-6.4512,-6.4436,-6.5051,-6.5359,-6.4897,-6.4359,-6.3628,-6.2858,-6.2243,-6.2474,-6.314,-6.3205,-6.3012,-6.3243,-6.3358,-6.282,-6.232,-6.1935,-6.1627,-6.1627,-6.1639,-6.1435,-6.1127,-6.1012,-6.0935,-6.0781,-6.3602,-6.3602,-6.3602,-6.3602,-6.3639,-6.3899,-6.4048,-6.3862,-6.3193,-6.2822,-6.271,-6.2264,-6.2301,-6.2747,-6.2896,-6.2948,-6.3602,-6.3602,-6.3742,-6.3808,-6.4046,-6.4251,-6.4538,-6.4942,-6.5146,-6.5235,-6.5266,-6.5436,-6.5859,-6.5359,-6.5359,-6.5641,-6.5768,-6.497,-6.4238,-6.3991,-6.3565,-6.303,-6.2528,-6.2145,-6.1671,-6.1287,-6.0961,-6.0699,-6.055,-6.0343,-5.995,-5.9777,-5.9885,-6.0301,-6.071,-6.1139,-6.1992,-6.2707,-6.3199,-6.3626,-6.3641,-6.3629,-6.3346,-6.3192,-6.2899,-6.3026,-6.2743,-6.3089,-6.3705,-6.3538,-6.4197,-6.4611,-6.4741,-6.5253,-6.5785,-6.5947,-6.6016,-6.632,-6.6205,-6.582,-6.5436,-6.5243,-6.5282,-6.5282,-6.5474,-6.6397,-6.7128,-6.6974,-6.6821,-6.6628,-6.6397,-6.6244,-6.5936,-6.5397,-6.5166,-6.5782,-6.5974,-6.5474,-6.5013,-6.4589,-6.382,-6.3012,-6.332,-6.3897,-6.3743,-6.3512,-6.4012,-6.432,-6.3512,-6.2897,-6.2666,-6.2512,-6.2512,-6.2397,-6.2243,-6.1858,-6.1358,-6.1243,-6.1204,-6.3602,-6.3602,-6.3602,-6.3602,-6.3713,-6.4308,-6.4679,-6.4753,-6.3951,-6.3616,-6.3639,-6.3505,-6.3379,-6.349,-6.3565,-6.3565,-6.3602,-6.3602,-6.383,-6.4087,-6.4231,-6.4445,-6.4789,-6.5137,-6.5412,-6.5499,-6.5586,-6.5743,-6.5936,-6.6205,-6.6205,-6.6012,-6.5929,-6.5397,-6.5154,-6.4771,-6.4313,-6.3664,-6.3276,-6.2821,-6.2259,-6.2087,-6.181,-6.1612,-6.1491,-6.1361,-6.1212,-6.1287,-6.1367,-6.1651,-6.1967,-6.2508,-6.3193,-6.4085,-6.4757,-6.5108,-6.4935,-6.4629,-6.4243,-6.4231,-6.4359,-6.4743,-6.4089,-6.4628,-6.4923,-6.482,-6.5412,-6.6024,-6.6367,-6.6788,-6.7199,-6.7148,-6.7153,-6.7205,-6.7205,-6.6821,-6.6436,-6.632,-6.6474,-6.659,-6.6782,-6.7436,-6.809,-6.8167,-6.7821,-6.7782,-6.7513,-6.7167,-6.6744,-6.582,-6.5743,-6.6397,-6.6397,-6.5936,-6.5513,-6.5089,-6.4705,-6.3897,-6.3935,-6.432,-6.4128,-6.4205,-6.4666,-6.4705,-6.3935,-6.3474,-6.3397,-6.3358,-6.3358,-6.3243,-6.3281,-6.282,-6.2435,-6.2166,-6.1973,-6.3602,-6.3602,-6.3602,-6.3602,-6.3639,-6.3839,-6.4605,-6.5534,-6.4805,-6.4433,-6.4433,-6.3862,-6.3676,-6.3602,-6.3602,-6.3602,-6.3602,-6.3669,-6.3873,-6.4128,-6.4407,-6.4772,-6.5121,-6.547,-6.5663,-6.5793,-6.5923,-6.6282,-6.6821,-6.7205,-6.7341,-6.727,-6.6524,-6.6046,-6.5462,-6.5058,-6.4519,-6.3973,-6.3646,-6.3259,-6.2881,-6.2687,-6.2491,-6.2337,-6.2263,-6.2076,-6.1894,-6.2092,-6.2299,-6.2962,-6.3082,-6.3512,-6.4301,-6.4633,-6.5073,-6.6532,-6.691,-6.7205,-6.6846,-6.632,-6.6244,-6.6667,-6.6359,-6.6008,-6.6308,-6.6421,-6.6726,-6.7164,-6.7403,-6.76,-6.8084,-6.8286,-6.832,-6.8359,-6.8205,-6.7821,-6.7475,-6.7513,-6.7667,-6.7782,-6.7975,-6.8359,-6.9013,-6.8898,-6.859,-6.8706,-6.8629,-6.8205,-6.7513,-6.659,-6.659,-6.7244,-6.659,-6.6051,-6.5705,-6.532,-6.5128,-6.4897,-6.4859,-6.4859,-6.4974,-6.5089,-6.5397,-6.532,-6.4936,-6.4551,-6.4243,-6.4243,-6.4243,-6.4474,-6.4512,-6.3974,-6.3512,-6.3166,-6.2627,-6.3602,-6.3602,-6.3602,-6.3973,-6.4531,-6.4605,-6.5534,-6.6611,-6.5436,-6.4656,-6.4322,-6.4173,-6.3876,-6.3639,-6.3602,-6.3602,-6.3602,-6.3624,-6.3808,-6.4192,-6.4632,-6.4909,-6.5299,-6.5792,-6.609,-6.6205,-6.6474,-6.6898,-6.7475,-6.7577,-6.7662,-6.7396,-6.695,-6.6091,-6.5312,-6.4858,-6.4469,-6.395,-6.3584,-6.3542,-6.3398,-6.3208,-6.3059,-6.3035,-6.2969,-6.2798,-6.2795,-6.3103,-6.3394,-6.3981,-6.404,-6.4181,-6.509,-6.5668,-6.6275,-6.7549,-6.7885,-6.8129,-6.7936,-6.7744,-6.7975,-6.8192,-6.8231,-6.8004,-6.7423,-6.7263,-6.7609,-6.797,-6.7964,-6.8142,-6.8801,-6.938,-6.9495,-6.959,-6.9167,-6.8783,-6.8744,-6.8744,-6.8821,-6.8898,-6.909,-6.9398,-6.9552,-6.9398,-6.9321,-6.9398,-6.9475,-6.9398,-6.8513,-6.7436,-6.7667,-6.8359,-6.7205,-6.6128,-6.582,-6.559,-6.5243,-6.5166,-6.5282,-6.5359,-6.5628,-6.6051,-6.632,-6.6359,-6.6205,-6.582,-6.5436,-6.5205,-6.5166,-6.5397,-6.5359,-6.482,-6.432,-6.3974,-6.3281,-6.3639,-6.375,-6.3788,-6.4791,-6.6091,-6.6054,-6.6797,-6.7961,-6.5845,-6.4508,-6.4159,-6.4508,-6.4285,-6.3713,-6.3602,-6.375,-6.3825,-6.3899,-6.4342,-6.4437,-6.5124,-6.553,-6.5962,-6.5997,-6.6756,-6.709,-6.7282,-6.7513,-6.7898,-6.791,-6.7576,-6.7088,-6.6513,-6.5836,-6.5274,-6.5008,-6.478,-6.4588,-6.4255,-6.413,-6.399,-6.3888,-6.3854,-6.4054,-6.4112,-6.4182,-6.4796,-6.4796,-6.4442,-6.4818,-6.5078,-6.5144,-6.601,-6.7174,-6.7921,-6.8315,-6.8615,-6.8859,-6.8783,-6.8513,-6.859,-6.8846,-6.9204,-6.9091,-6.8569,-6.8133,-6.8367,-6.8709,-6.8782,-6.896,-6.9559,-6.9899,-7.005,-7.009,-6.9898,-6.959,-6.9475,-6.9552,-6.9706,-6.9783,-6.9821,-7.0129,-7.0283,-7.0167,-7.0283,-7.0244,-7.0129,-7.0206,-6.9667,-6.8475,-6.8359,-6.8936,-6.7398,-6.6167,-6.632,-6.6013,-6.5397,-6.5282,-6.559,-6.5551,-6.559,-6.632,-6.7282,-6.6898,-6.6436,-6.6821,-6.6667,-6.6167,-6.5782,-6.5974,-6.5859,-6.5513,-6.5089,-6.4666,-6.3897,-6.3973,-6.4582,-6.5213,-6.6128,-6.6871,-6.6351,-6.6277,-6.6648,-6.6128,-6.5608,-6.5422,-6.4916,-6.4405,-6.3795,-6.3639,-6.3884,-6.451,-6.4361,-6.5319,-6.5914,-6.633,-6.6488,-6.7372,-6.7395,-6.7821,-6.8013,-6.8129,-6.8269,-6.8421,-6.8202,-6.7726,-6.7224,-6.6719,-6.6215,-6.572,-6.553,-6.5394,-6.5388,-6.5285,-6.4688,-6.4108,-6.4406,-6.4562,-6.4838,-6.4985,-6.5417,-6.6053,-6.655,-6.6743,-6.7154,-6.7386,-6.7428,-6.7425,-6.8301,-6.8961,-6.933,-6.9552,-6.9744,-6.9783,-6.9475,-6.9321,-6.9571,-6.9817,-6.9568,-6.9292,-6.9051,-6.9051,-6.9368,-6.962,-6.9817,-7.0103,-7.034,-7.0591,-7.0629,-7.0706,-7.0514,-7.0321,-7.0475,-7.0629,-7.0552,-7.0552,-7.0706,-7.0898,-7.1014,-7.1206,-7.1091,-7.0821,-7.0706,-7.0552,-6.9706,-6.8552,-6.8552,-6.7051,-6.6167,-6.6513,-6.6513,-6.5974,-6.5859,-6.6167,-6.5936,-6.5705,-6.6744,-6.7782,-6.6936,-6.6513,-6.7128,-6.7244,-6.6436,-6.6205,-6.6474,-6.6282,-6.5859,-6.5551,-6.5205,-6.4397,-6.4285,-6.5325,-6.5459,-6.5993,-6.6537,-6.5905,-6.5756,-6.6054,-6.6091,-6.5868,-6.551,-6.5013,-6.4584,-6.4174,-6.39,-6.4604,-6.5304,-6.4614,-6.5537,-6.6579,-6.7177,-6.7245,-6.7806,-6.846,-6.8692,-6.8859,-6.9346,-6.9473,-6.9093,-6.8776,-6.834,-6.7672,-6.7273,-6.6805,-6.6426,-6.6201,-6.6201,-6.6284,-6.6258,-6.5631,-6.4693,-6.5125,-6.5485,-6.5754,-6.5932,-6.6393,-6.6829,-6.7353,-6.7522,-6.8148,-6.8555,-6.8977,-6.9084,-6.9597,-7.0436,-7.0997,-7.1206,-7.0975,-7.1014,-7.0744,-7.0206,-7.0431,-7.0226,-6.99,-7.0069,-6.978,-6.9037,-6.9261,-6.9294,-6.9489,-7.0215,-7.0577,-7.1206,-7.1475,-7.186,-7.2014,-7.186,-7.186,-7.1437,-7.0744,-7.0898,-7.1206,-7.1206,-7.0898,-7.1206,-7.1783,-7.1514,-7.1437,-7.1206,-7.0514,-6.9475,-6.8475,-6.7167,-6.6859,-6.7436,-6.7205,-6.659,-6.6628,-6.6898,-6.7321,-6.7628,-6.7975,-6.8167,-6.7628,-6.7475,-6.7936,-6.7782,-6.7051,-6.6705,-6.6898,-6.6628,-6.6205,-6.5897,-6.5551,-6.4897,-6.4768,-6.5905,-6.5311,-6.5422,-6.5942,-6.5348,-6.5422,-6.6017,-6.6091,-6.5608,-6.4916,-6.4805,-6.5008,-6.47,-6.4448,-6.566,-6.6099,-6.5309,-6.5963,-6.7164,-6.725,-6.8084,-6.8563,-6.8789,-6.9319,-6.9744,-7.0115,-7.0047,-6.9734,-6.9113,-6.8438,-6.8206,-6.7779,-6.7278,-6.6999,-6.6963,-6.7053,-6.6891,-6.676,-6.6574,-6.6388,-6.6351,-6.6522,-6.6553,-6.6777,-6.7141,-6.765,-6.8069,-6.8141,-6.8885,-6.9999,-7.0532,-7.0823,-7.1204,-7.1891,-7.2514,-7.2168,-7.2091,-7.2129,-7.1783,-7.1398,-7.1175,-7.067,-7.0477,-7.0609,-7.0391,-6.9601,-6.9619,-6.9649,-6.9934,-7.0657,-7.1283,-7.1975,-7.2437,-7.2899,-7.3206,-7.3091,-7.2899,-7.2014,-7.1129,-7.1245,-7.1591,-7.1475,-7.1129,-7.1475,-7.2091,-7.2245,-7.2206,-7.186,-7.0706,-6.9629,-6.8859,-6.7898,-6.7898,-6.8192,-6.809,-6.759,-6.7782,-6.8167,-6.8898,-6.9283,-6.8821,-6.8629,-6.8667,-6.8667,-6.859,-6.8475,-6.7975,-6.7705,-6.7436,-6.6936,-6.6513,-6.5782,-6.5436,-6.5282,-6.5794,-6.6091,-6.5905,-6.5979,-6.6054,-6.5868,-6.5979,-6.6091,-6.6091,-6.5608,-6.5028,-6.4791,-6.4584,-6.3996,-6.4524,-6.5587,-6.6741,-6.602,-6.7618,-6.9337,-6.879,-6.9489,-6.9961,-6.983,-7.0385,-7.0514,-7.0294,-6.9755,-6.9747,-6.8804,-6.7794,-6.7306,-6.7109,-6.7036,-6.7333,-6.7391,-6.754,-6.7516,-6.7776,-6.78,-6.7739,-6.7688,-6.7601,-6.7996,-6.874,-6.9446,-7.0171,-7.0863,-7.1192,-7.1654,-7.2068,-7.2447,-7.2635,-7.2674,-7.314,-7.3437,-7.3091,-7.2937,-7.286,-7.236,-7.1937,-7.1909,-7.1383,-7.0812,-7.1029,-7.1319,-7.1104,-7.1672,-7.1756,-7.1789,-7.2337,-7.2678,-7.3245,-7.336,-7.3668,-7.363,-7.3514,-7.3014,-7.2322,-7.1783,-7.1514,-7.1783,-7.1975,-7.1975,-7.236,-7.2745,-7.2706,-7.2629,-7.2322,-7.1091,-6.986,-6.9206,-6.8552,-6.8321,-6.8385,-6.9052,-6.8898,-6.909,-6.9283,-6.9744,-6.9667,-6.8898,-6.8744,-6.8898,-6.8783,-6.859,-6.8513,-6.8783,-6.8398,-6.8052,-6.7398,-6.6782,-6.5974,-6.5551,-6.5551]},{"header":{"parameterUnit":"m.s-1","parameterCategory":1,"la1":31.0,"la2":29.5877,"lo1":-88.7671,"lo2":-86.6584,"dy":0.0162,"dx":0.0185,"nx":115,"ny":88,"refTime":"2023-03-23T06:00:00:Z","depth":0,"parameterNumber":3,"parameterNumberName":"V-component_of_WINDS"},"data":[0.0,0.0,0.0,0.0,0.0,0.0,0.0,0.0,0.0,0.0,0.0,0.0,0.0,0.0,0.0,0.0,0.0,0.0,0.0,0.0,0.0,0.0,0.0,0.0,0.0,0.0,0.0,0.0,0.0,0.0,0.0,0.0,0.0,0.0,0.0,0.0,0.0,0.0,0.0,0.0,0.0,0.0,0.0,0.0,0.0,0.0,0.0,0.0,0.0,0.0,0.0,0.0,0.0,0.0,0.0,0.0,0.0,0.0,0.0,0.0,0.0,0.0,0.0,0.0,0.0,0.0,0.0,0.0,0.0,0.0,0.0,0.0,0.0,0.0,0.0,0.0,0.0,0.0,0.0,0.0,0.0,0.0,0.0,0.0,0.0,0.0,0.0,0.0,0.0,0.0,0.0,0.0,0.0,0.0,0.0,0.0,0.0,0.0,0.0,0.0,0.0,0.0,0.0,0.0,0.0,0.0,0.0,0.0,0.0,0.0,0.0,0.0,0.0,0.0,0.0,0.0,0.0,0.0,0.0,0.0,0.0,0.0,0.0,0.0,0.0,0.0,0.0,0.0,0.0,0.0,0.0,0.0,0.0,0.0,0.0,0.0,0.0,0.0,0.0,0.0,0.0,0.0,0.0,0.0,0.0,0.0,0.0,0.0,0.0,0.0,0.0,0.0,0.0,0.0,0.0,0.0,0.0,0.0,0.0,0.0,0.0,0.0,0.0,0.0,0.0,0.0,0.0,0.0,0.0,0.0,0.0,0.0,0.0,0.0,0.0,0.0,0.0,0.0,0.0,0.0,0.0,0.0,0.0,0.0,0.0,0.0,0.0,0.0,0.0,0.0,0.0,0.0,0.0,0.0,0.0,0.0,0.0,0.0,0.0,0.0,0.0,0.0,0.0,0.0,0.0,0.0,0.0,0.0,0.0,0.0,0.0,0.0,0.0,0.0,0.0,0.0,0.0,0.0,0.0,0.0,0.0,0.0,0.0,0.0,0.0,0.0,0.0,0.0,0.0,0.0,0.0,0.0,0.0,0.0,0.0,0.0,0.0,0.0,0.0,0.0,0.0,0.0,0.0,0.0,0.0,0.0,0.0,0.0,0.0,0.0,0.0,0.0,0.0,0.0,0.0,0.0,0.0,0.0,0.0,0.0,0.0,0.0,0.0,0.0,0.0,0.0,0.0,0.0,0.0,0.0,0.0,0.0,0.0,0.0,0.0,0.0,0.0,0.0,0.0,0.0,0.0,0.0,0.0,0.0,0.0,0.0,0.0,0.0,0.0,0.0,0.0,0.0,0.0,0.0,0.0,0.0,0.0,0.0,0.0,0.0,0.0,0.0,0.0,0.0,0.0,0.0,0.0,0.0,0.0,0.0,0.0,0.0,0.0,0.0,0.0,0.0,0.0,0.0,0.0,0.0,0.0,0.0,0.0,0.0,0.0,0.0,0.0,0.0,0.0,0.0,0.0,0.0,0.0,0.0,0.0,0.0,0.0,0.0,0.0,0.0,0.0,0.0,0.0,0.0,0.0,0.0,0.0,0.0,0.0,0.0,0.0,0.0,0.0,0.0,0.0,0.0,0.0,0.0,0.0,0.0,0.0,0.0,0.0,0.0,0.0,0.0,0.0,0.0,0.0,0.0,0.0,0.0,0.0,0.0,0.0,0.0,0.0,0.0,0.0,0.0,0.0,0.0,0.0,0.0,0.0,0.0,0.0,0.0,0.0,0.0,0.0,0.0,0.0,0.0,0.0,0.0,0.0,0.0,0.0,0.0,0.0,0.0,0.0,0.0,0.0,0.0,0.0,0.0,0.0,0.0,0.0,0.0,0.0,0.0,0.0,0.0,0.0,0.0,0.0,0.0,0.0,0.0,0.0,0.0,0.0,0.0,0.0,0.0,0.0,0.0,0.0,0.0,0.0,0.0,0.0,0.0,0.0,0.0,0.0,0.0,0.0,0.0,0.0,0.0,0.0,0.0,0.0,0.0,0.0,0.0,0.0,0.0,0.0,0.0,0.0,0.0,0.0,0.0,0.0,0.0,0.0,0.0,0.0,0.0,0.0,0.0,0.0,0.0,0.0,0.0,0.0,0.0,0.0,0.0,0.0,0.0,0.0,0.0,0.0,0.0,0.0,0.0,0.0,0.0,0.0,0.0,0.0,0.0,0.0,0.0,0.0,0.0,0.0,0.0,0.0,0.0,0.0,0.0,0.0,0.0,0.0,0.0,0.0,0.0,0.0,0.0,0.0,0.0,0.0,0.0,0.0,0.0,0.0,0.0,0.0,0.0,0.0,0.0,0.0,0.0,0.0,0.0,0.0,0.0,0.0,0.0,0.0,0.0,0.0,0.0,0.0,0.0,0.0,0.0,0.0,0.0,0.0,0.0,0.0,0.0,0.0,0.0,0.0,0.0,0.0,0.0,0.0,0.0,0.0,0.0,0.0,0.0,0.0,0.0,0.0,0.0,0.0,0.0,0.0,0.0,0.0,0.0,0.0,0.0,0.0,0.0,0.0,0.0,0.0,0.0,0.0,0.0,0.0,0.0,0.0,0.0,0.0,0.0,0.0,0.0,0.0,0.0,0.0,0.0,0.0,0.0,0.0,0.0,0.0,0.0,0.0,0.0,0.0,0.0,0.0,0.0,0.0,0.0,0.0,0.0,0.0,0.0,0.0,0.0,0.0,0.0,0.0,0.0,0.0,0.0,0.0,0.0,0.0,0.0,0.0,0.0,0.0,0.0,0.0,0.0,0.0,0.0,0.0,0.0,0.0,0.0,0.0,0.0,0.0,0.0,0.0,0.0,0.0,0.0,0.0,0.0,0.0,0.0,0.0,0.0,0.0,0.0,0.0,0.0,0.0,0.0,0.0,0.0,0.0,0.0,0.0,0.0,0.0,0.0,0.0,0.0,0.0,0.0,0.0,0.0,0.0,0.0,0.0,0.0,0.0,0.0,0.0,0.0,0.0,0.0,0.0,0.0,0.0,0.0,0.0,0.0,0.0,0.0,0.0,0.0,0.0,0.0,0.0,0.0,0.0,0.0,0.0,0.0,0.0,0.0,0.0,0.0,0.0,0.0,0.0,0.0,0.0,0.0,0.0,0.0,0.0,0.0,0.0,0.0,0.0,0.0,0.0,0.0,0.0,0.0,0.0,0.0,0.0,0.0,0.0,0.0,0.0,0.0,0.0,0.0,0.0,0.0,0.0,0.0,0.0,0.0,0.0,0.0,0.0,0.0,0.0,0.0,0.0,0.0,0.0,0.0,0.0,0.0,0.0,0.0,0.0,0.0,0.0,0.0,0.0,0.0,0.0,0.0,0.0,0.0,0.0,0.0,0.0,0.0,0.0,0.0,0.0,0.0,0.0,0.0,0.0,0.0,0.0,0.0,0.0,0.0,0.0,0.0,0.0,0.0,0.0,0.0,0.0,0.0,0.0,0.0,0.0,0.0,0.0,0.0,0.0,0.0,0.0,0.0,0.0,0.0,0.0,0.0,0.0,0.0,0.0,0.0,0.0,0.0,0.0,0.0,0.0,0.0,0.0,0.0,0.0,0.0,0.0,0.0,0.0,0.0,0.0,0.0,0.0,0.0,0.0,0.0,0.0,0.0,0.0,0.0,0.0,0.0,0.0,0.0,0.0,0.0,0.0,0.0,0.0,0.0,0.0,0.0,0.0,0.0,0.0,0.0,0.0,0.0,0.0,0.0,0.0,0.0,0.0,0.0,0.0,0.0,0.0,0.0,0.0,0.0,0.0,0.0,0.0,0.0,0.0,0.0,0.0,0.0,0.0,0.0,0.0,0.0,0.0,0.0,0.0,0.0,0.0,0.0,0.0,0.0,0.0,0.0,0.0,0.0,0.0,0.0,0.0,0.0,0.0,0.0,0.0,0.0,0.0,0.0,0.0,0.0,0.0,0.0,0.0,0.0,0.0,0.0,0.0,0.0,0.0,0.0,0.0,0.0,0.0,0.0,0.0,0.0,0.0,0.0,0.0,0.0,0.0,0.0,0.0,0.0,0.0,0.0,0.0,0.0,0.0,0.0,0.0,0.0,0.0,0.0,0.0,0.0,0.0,0.0,0.0,0.0,0.0,0.0,0.0,0.0,0.0,0.0,0.0,0.0,0.0,0.0,0.0,0.0,0.0,0.0,0.0,0.0,0.0,0.0,0.0,0.0,0.0,0.0,0.0,0.0,0.0,0.0,0.0,0.0,0.0,0.0,0.0,0.0,0.0,0.0,0.0,0.0,0.0,0.0,0.0,0.0,0.0,0.0,0.0,0.0,-0.3253,0.0,0.0,0.0,0.0,0.0,0.0,0.0,0.0,0.0,0.0,0.0,0.0,0.0,0.0,0.0,0.0,0.0,0.0,0.0,0.0,0.0,0.0,0.0,0.0,0.0,0.0,0.0,0.0,0.0,0.0,0.0,0.0,0.0,0.0,0.0,0.0,0.0,0.0,0.0,0.0,0.0,0.0,0.0,0.0,0.0,0.0,0.0,0.0,0.0,0.0,0.0,0.0,0.0,0.0,0.0,0.0,0.0,0.0,0.0,0.0,0.0,0.0,0.0,0.0,0.0,0.0,0.0,0.0,0.0,0.0,0.0,0.0,0.0,0.0,0.0,0.0,0.0,0.0,0.0,0.0,0.0,0.0,0.0,0.0,0.0,0.0,0.0,0.0,0.0,0.0,0.0,0.0,0.0,0.0,0.0,0.0,0.0,0.0,0.0,0.0,0.0,0.0,0.0,0.0,0.0,0.0,0.0,0.0,0.0,0.0,0.0603,-0.0236,-0.1017,-0.1924,-0.2743,0.0,0.0,0.0,0.0,0.0,0.0,0.0,0.0,0.0,0.0,0.0,0.0,0.0,0.0,0.0,0.0,0.0,0.0,0.0,0.0,0.0,0.0,0.0,0.0,0.0,0.0,0.0,0.0,0.0,0.0,0.0,0.0,0.0,0.0,0.0,0.0,0.0,0.0,0.0,0.0,0.0,0.0,0.0,0.0,0.0,0.0,0.0,0.0,0.0,0.0,0.0,0.0,0.0,0.0,0.0,0.0,0.0,0.0,0.0,0.0,0.0,0.0,0.0,0.0,0.0,0.0,0.0,0.0,0.0,0.0,0.0,0.0,0.0,0.0,0.0,0.0,0.0,0.0,0.0,0.0,0.0,0.0,0.0,0.0,0.0,0.0,0.0,0.0,0.0,0.0,0.0,0.0,0.0,0.0,0.0,0.0,0.0,0.0,0.0,0.0,0.0,0.0,0.0,0.0,0.0,0.0,0.0,0.0,0.0,0.0,0.0,0.0,-0.0902,-0.1706,-0.219,0.0,0.0,0.0,0.0,0.0,0.0,0.0,0.0,0.0,0.0,0.0,0.0,0.0,0.0,0.0,0.0,0.0,0.0,0.0,0.0,0.0,0.0,0.0,0.0,0.0,0.0,0.0,0.0,0.0,0.0,0.0,0.0,0.0,0.0,0.0,0.0,0.0,0.0,0.0,0.0,0.0,0.0,0.0,0.0,0.0,0.0,0.0,0.0,0.0,0.0,0.0,0.0,0.0,0.0,0.0,0.0,0.0,0.0,0.0,0.0,0.0,0.0,0.0,0.0,0.0,0.0,0.0,0.0,0.0,0.0,0.0,0.0,0.0,0.0,0.0,0.0,0.0,0.0,0.0,0.0,0.0,0.0,0.0,0.0,0.0,0.0,0.0,0.0,0.0,0.0,0.0,0.0,0.0,0.0,0.0,0.0,0.0,0.0,0.0,0.0,0.0,0.0,0.0,0.0,0.0,0.0,0.0,0.0,0.0,0.0,0.1663,0.052,0.0305,0.0,-0.1504,0.0,0.0,0.0,0.0,0.0,0.0,0.0,0.0,0.0,0.0,0.0,0.0,0.0,0.0,0.0,0.0,0.0,0.0,0.0,0.0,0.0,0.0,0.0,0.0,0.0,0.0,0.0,0.0,0.0,0.0,0.0,0.0,0.0,0.0,0.0,0.0,0.0,0.0,0.0,0.0,0.0,0.0,0.0,0.0,0.0,0.0,0.0,0.0,0.0,0.0,0.0,0.0,0.0,0.0,0.0,0.0,0.0,0.0,0.0,0.0,0.0,0.0,0.0,0.0,0.0,0.0,0.0,0.0,0.0,0.0,0.0,0.0,0.0,0.0,0.0,0.0,0.0,0.0,0.0,0.0,0.0,0.0,0.0,0.0,0.0,0.0,0.0,0.0,0.0,0.0,0.0,0.0,0.0,0.0,0.0,0.0,0.0,0.0,0.0,0.0,0.0,0.0,0.0,0.0,0.0,0.0,0.0,0.0,0.0,0.0,0.1491,0.09,0.0061,-0.0682,0.0,0.0,0.0,0.0,0.0,0.0,0.0,0.0,0.0,0.0,0.0,0.0,0.0,0.0,0.0,0.0,0.0,0.0,0.0,0.0,0.0,0.0,0.0,0.0,0.0,0.0,0.0,0.0,0.0,0.0,0.0,0.0,0.0,0.0,0.0,0.0,0.0,0.0,0.0,0.0,0.0,0.0,0.0,0.0,0.0,0.0,0.0,0.0,0.0,0.0,0.0,0.0,0.0,0.0,0.0,0.0,0.0,0.0,0.0,0.0,0.0,0.0,0.0,0.0,0.0,0.0,0.0,0.0,0.0,0.0,0.0,0.0,0.0,0.0,0.0,0.0,0.0,0.0,0.0,0.0,0.0,0.0,0.0,0.0,0.0,0.0,0.0,0.0,0.0,0.0,0.0,0.0,0.0,0.0,0.0,0.0,0.0,0.0,0.0,0.0,0.0,0.0,0.0,0.0,0.0,0.0,0.0,0.0,0.0,0.0,0.2643,0.1825,0.1184,0.0,-0.0792,-0.1032,0.0,0.0,0.0,0.0,0.0,0.0,0.0,0.0,0.0,0.0,0.0,0.0,0.0,0.0,0.0,0.0,0.0,0.0,0.0,0.0,0.0,0.0,0.0,0.0,0.0,0.0,0.0,0.0,0.0,0.0,0.0,0.0,0.0,0.0,0.0,0.0,0.0,0.0,0.0,0.0,0.0,0.0,0.0,0.0,0.0,0.0,0.0,0.0,0.0,0.0,0.0,0.0,0.0,0.0,0.0,0.0,0.0,0.0,0.0,0.0,0.0,0.0,0.0,0.0,0.0,0.0,0.0,0.0,0.0,0.0,0.0,0.0,0.0,0.0,0.0,0.0,0.0,0.0,0.0,0.0,0.0,0.0,0.0,0.0,0.0,0.0,0.0,0.0,0.0,0.0,0.0,0.0,0.0,0.0,0.0,0.0,0.0,0.0,0.0,0.0,0.0,0.0,0.0,0.0,0.0,0.0,0.0,0.0,0.4514,0.4019,0.3101,0.154,0.0487,-0.006,0.0,0.0,0.0,0.0,0.0,0.0,0.0,0.0,0.0,0.0,0.0,0.0,0.0,0.0,0.0,0.0,0.0,0.0,0.0,0.0,0.0,0.0,0.0,0.0,0.0,0.0,0.0,0.0,0.0,0.0,0.0,0.0,0.0,0.0,0.0,0.0,0.0,0.0,0.0,0.0,0.0,0.0,0.0,0.0,0.0,0.0,0.0,0.0,0.0,0.0,0.0,0.0,0.0,0.0,0.0,0.0,0.0,0.0,0.0,0.0,0.0,0.0,0.0,0.0,0.0,0.0,0.0,0.0,0.0,0.0,0.0,0.0,0.0,0.0,0.0,0.0,0.0,0.0,0.0,0.0,0.0,0.0,0.0,0.0,0.0,0.0,0.0,0.0,0.0,0.0,0.0,0.0,0.0,0.0,0.0,0.0,0.0,0.0,0.0,0.0,0.0,0.0,0.0,0.0,0.0,0.0,0.0,0.0,0.0,0.465,0.3569,0.2607,0.1793,0.1039,0.0545,0.0,0.0,0.0,0.0,0.0,0.0,0.0,0.0,0.0,0.0,0.0,0.0,0.0,0.0,0.0,0.0,0.0,0.0,0.0,0.0,0.0,0.0,0.0,0.0,0.0,0.0,0.0,0.0,0.0,0.0,0.0,0.0,0.0,0.0,0.0,0.0,0.0,0.0,0.0,0.0,0.0,0.0,0.0,0.0,0.0,0.0,0.0,0.0,0.0,0.0,0.0,0.0,0.0,0.0,0.0,0.0,0.0,0.0,0.0,0.0,0.0,0.0,0.0,0.0,0.0,0.0,0.0,0.0,0.0,0.0,0.0,0.0,0.0,0.0,0.0,0.0,0.0,0.0,0.0,0.0,0.0,0.0,0.0,0.0,0.0,0.0,0.0,0.0,0.0,0.0,0.0,0.0,0.0,0.0,0.0,0.0,0.0,0.0,0.0,0.0,0.0,0.0,0.0,0.0,0.0,0.0,0.0,0.0,0.0,0.4864,0.0,0.2497,0.2052,0.1448,0.0956,0.0,0.0,0.0,0.0,0.0,0.0,0.0,0.0,0.0,0.0,0.0,0.0,0.0,0.0,0.0,0.0,0.0,0.0,0.0,0.0,0.0,0.0,0.0,0.0,0.0,0.0,0.0,0.0,0.0,0.0,0.0,0.0,0.0,0.0,0.0,0.0,0.0,0.0,0.0,0.0,0.0,0.0,0.0,0.0,0.0,0.0,0.0,0.0,0.0,0.0,0.0,0.0,0.0,0.0,0.0,0.0,0.0,0.0,0.0,0.0,0.0,0.0,0.0,0.0,0.0,0.0,0.0,0.0,0.0,0.0,0.0,0.0,0.0,0.0,0.0,0.0,0.0,0.0,0.0,0.0,0.0,0.0,0.0,0.0,0.0,0.0,0.0,0.0,0.0,0.0,0.0,0.0,0.0,0.0,0.0,0.0,0.0,0.0,0.0,0.0,0.0,0.0,0.0,0.0,0.0,0.0,0.0,0.0,0.7028,0.5227,0.403,0.3069,0.2408,0.1756,0.1266,0.0,0.0,0.0,0.0,0.0,0.0,0.0,0.0,0.0,0.0,0.0,0.0,0.0,0.0,0.0,0.0,0.0,0.0,0.0,0.0,0.0,0.0,0.0,0.0,0.0,0.0,0.0,0.0,0.0,0.0,0.0,0.0,0.0,0.0,0.0,0.0,0.0,0.0,0.0,0.0,0.0,0.0,0.0,0.0,0.0,0.0,0.0,0.0,0.0,0.0,0.0,0.0,0.0,0.0,0.0,0.0,0.0,0.0,0.0,0.0,0.0,0.0,0.0,0.0,0.0,0.0,0.0,0.0,0.0,0.0,0.0,0.0,0.0,0.0,0.0,0.0,0.0,0.0,0.0,0.0,0.0,0.0,0.0,0.0,0.0,0.0,0.0,0.0,0.0,0.0,0.0,0.0,0.0,0.0,0.0,0.0,0.0,0.0,0.0,0.0,0.0,0.0,0.0,0.0,0.0,0.0,0.0,0.0,0.0,0.547,0.4199,0.3225,0.2723,0.2268,0.1792,0.0,0.0,0.0,0.0,0.0,0.0,0.0,0.0,0.0,0.0,0.0,0.0,0.0,0.0,0.0,0.0,0.0,0.0,0.0,0.0,0.0,0.0,0.0,0.0,0.0,0.0,0.0,0.0,0.0,0.0,0.0,0.0,0.0,0.0,0.0,0.0,0.0,0.0,0.0,0.0,0.0,0.0,0.0,0.0,0.0,0.0,0.0,0.0,0.0,0.0,0.0,0.0,0.0,0.0,0.0,0.0,0.0,0.0,0.0,0.0,0.0,0.0,0.0,0.0,0.0,0.0,0.0,0.0,0.0,0.0,0.0,0.0,0.0,0.0,0.0,0.0,0.0,0.0,0.0,0.0,0.0,0.0,0.0,0.0,0.0,0.0,0.0,0.0,0.0,0.0,0.0,0.0,0.0,0.0,0.0,0.0,0.0,0.0,0.0,0.0,0.0,0.0,0.0,0.0,0.0,0.0,0.0,0.0,0.0,0.554,0.4125,0.3213,0.2791,0.2353,0.1925,0.1563,0.0,0.0,0.0,0.0,0.0,0.0,0.0,0.0,0.0,0.0,0.0,0.0,0.0,0.0,0.0,0.0,0.0,0.0,0.0,0.0,0.0,0.0,0.0,0.0,0.0,0.0,0.0,0.0,0.0,0.0,0.0,0.0,0.0,0.0,0.0,0.0,0.0,0.0,0.0,0.0,0.0,0.0,0.0,0.0,0.0,0.0,0.0,0.0,0.0,0.0,0.0,0.0,0.0,0.0,0.0,0.0,0.0,0.0,0.0,0.0,0.0,0.0,0.0,0.0,0.0,0.0,0.0,0.0,0.0,0.0,0.0,0.0,0.0,0.0,0.0,0.0,0.0,0.0,0.0,0.0,0.0,0.0,0.0,0.0,0.0,0.0,0.0,0.0,0.0,0.0,0.0,0.0,0.0,0.0,0.0,0.0,0.0,0.0,0.0,0.0,0.0,0.0,0.0,0.0,0.0,0.0,0.0,0.0,0.5482,0.3872,0.2983,0.2722,0.2172,0.183,0.0,0.0,0.0,0.0,0.0,0.0,0.0,0.0,0.0,0.0,0.0,0.0,0.0,0.0,0.0,0.0,0.0,0.0,0.0,0.0,0.0,0.0,0.0,0.0,0.0,0.0,0.0,0.0,0.0,0.0,0.0,0.0,0.0,0.0,0.0,0.0,0.0,0.0,0.0,0.0,0.0,0.0,0.0,0.0,0.0,0.0,0.0,0.0,0.0,0.0,0.0,0.0,0.0,0.0,0.0,0.0,0.0,0.0,0.0,0.0,0.0,0.0,0.0,0.0,0.0,0.0,0.0,0.0,0.0,0.0,0.0,0.0,0.0,0.0,0.0,0.0,0.0,0.0,0.0,0.0,0.0,0.0,0.0,0.0,0.0,0.0,0.0,0.0,0.0,0.0,0.0,0.0,0.0,0.0,0.0,0.0,0.0,0.0,0.0,0.0,0.0,0.0,0.0,0.0,0.0,0.0,0.0,0.0,0.0,0.5153,0.4178,0.3186,0.228,0.2147,0.1928,0.0,0.0,0.0,0.0,0.0,0.0,0.0,0.0,0.0,0.0,0.0,0.0,0.0,0.0,0.0,0.0,0.0,0.0,0.0,0.0,0.0,0.0,0.0,0.0,0.0,0.0,0.0,0.0,0.0,0.0,0.0,0.0,0.0,0.0,0.0,0.0,0.0,0.0,0.0,0.0,0.0,0.0,0.0,0.0,0.0,0.0,0.0,0.0,0.0,0.0,0.0,0.0,0.0,0.0,0.0,0.0,0.0,0.0,0.0,0.0,0.0,0.0,0.0,0.0,0.0,0.0,0.0,0.0,0.0,0.0,0.0,0.0,0.0,0.0,0.0,0.0,0.0,0.0,0.0,0.0,0.0,0.0,0.0,0.0,0.0,0.0,0.0,0.0,0.0,0.0,0.0,0.0,0.0,0.0,0.0,0.0,0.0,0.0,0.0,0.0,0.0,0.0,0.0,0.0,0.0,0.0,0.0,0.0,0.7487,0.6277,0.5253,0.4353,0.3636,0.2651,0.2375,0.0,0.0,0.0,0.0,0.0,0.0,0.0,0.0,0.0,0.0,0.0,0.0,0.0,0.0,0.0,0.0,0.0,0.0,0.0,0.0,0.0,0.0,0.0,0.0,0.0,0.0,0.0,0.0,0.0,0.0,0.0,0.0,0.0,0.0,0.0,0.0,0.0,0.0,0.0,0.0,0.0,0.0,0.0,0.0,0.0,0.0,0.0,0.0,0.0,0.0,0.0,0.0,0.0,0.0,0.0,0.0,0.0,0.0,0.0,0.0,0.0,0.0,0.0,0.0,0.0,0.0,0.0,0.0,0.0,0.0,0.0,0.0,0.0,0.0,0.0,0.0,0.0,0.0,0.0,0.0,0.0,0.0,0.0,0.0,0.0,0.0,0.0,0.0,0.0,0.0,0.0,0.0,0.0,0.0,0.0,0.0,0.0,0.0,0.0,0.0,0.0,0.0,0.0,0.0,0.0,0.0,0.0,0.0,0.8195,0.7938,0.6756,0.6099,0.5973,0.3627,0.3051,0.0,0.0,0.0,0.0,0.0,0.0,0.0,0.0,0.0,0.0,0.0,0.0,0.0,0.0,0.0,0.0,0.0,0.0,0.0,0.0,0.0,0.0,0.0,0.0,0.0,0.0,0.0,0.0,0.0,0.0,0.0,0.0,0.0,0.0,0.0,0.0,0.0,0.0,0.0,0.0,0.0,0.0,0.0,0.0,0.0,0.0,0.0,0.0,0.0,0.0,0.0,0.0,0.0,0.0,0.0,0.0,0.0,0.0,0.0,0.0,0.0,0.0,0.0,0.0,0.0,0.0,0.0,0.0,0.0,0.0,0.0,0.0,0.0,0.0,0.0,0.0,0.0,0.0,0.0,0.0,0.0,0.0,0.0,0.0,0.0,0.0,0.0,0.0,0.0,0.0,0.0,0.0,0.0,0.0,0.0,0.0,0.0,0.0,0.0,0.0,0.0,0.0,0.0,0.0,0.0,0.0,0.0,0.0,0.8881,0.7817,0.7649,0.7548,0.7473,0.5646,0.4652,0.0,0.0,0.0,0.0,0.0,0.0,0.0,0.0,0.0,0.0,0.0,0.0,0.0,0.0,0.0,0.0,0.0,0.0,0.0,0.0,0.0,0.0,0.0,0.0,0.0,0.0,0.0,0.0,0.0,0.0,0.0,0.0,0.0,0.0,0.0,0.0,0.0,0.0,0.0,0.0,0.0,0.0,0.0,0.0,0.0,0.0,0.0,0.0,0.5949,0.0,0.0,0.0,0.0,0.0,0.0,0.0,0.0,0.0,0.0,0.0,0.0,0.0,0.0,0.0,0.0,0.0,0.0,0.0,0.0,0.0,0.0,0.0,0.0,0.0,0.0,0.0,0.0,0.0,0.0,0.0,0.0,0.0,0.0,0.0,0.0,0.0,0.0,0.0,0.0,0.0,0.0,0.0,0.0,0.0,0.0,0.0,0.0,0.0,0.0,0.0,0.0,0.0,0.0,0.0,0.0,0.0,0.0,0.0,0.9625,0.8941,0.9139,0.9194,0.8927,0.7656,0.6633,0.0,0.0,0.0,0.0,0.0,0.0,0.0,0.0,0.0,0.0,0.0,0.0,0.0,0.0,0.0,0.0,0.0,0.0,0.0,0.0,0.0,0.0,0.0,0.0,0.0,0.0,0.0,0.0,0.0,0.0,0.0,0.0,0.0,0.0,0.0,0.0,0.0,0.0,0.0,0.0,0.0,0.0,0.0,0.0,0.0,0.0,0.0,0.0,0.0,0.0,0.0,0.0,0.0,0.0,0.0,0.0,0.0,0.0,0.0,0.0,0.0,0.0,0.0,0.0,0.0,0.0,0.0,0.0,0.0,0.0,0.0,0.0,0.0,0.0,0.0,0.0,0.0,0.0,0.0,0.0,0.0,0.0,0.0,0.0,0.0,0.0,0.0,0.0,0.0,0.0,0.0,0.0,0.0,0.0,0.0,0.0,0.0,0.0,0.0,0.0,0.0,0.0,0.0,0.0,0.0,0.0,0.0,0.9971,1.0263,1.0326,1.0568,1.0517,1.0078,0.9282,0.8433,0.7498,0.0,0.0,0.0,0.0,0.0,0.0,0.0,0.0,0.0,0.0,0.0,0.0,0.0,0.0,0.0,0.0,0.0,0.0,0.0,0.0,0.0,0.0,0.0,0.0,0.0,0.0,0.0,0.0,0.0,0.0,0.0,0.0,0.0,0.0,0.0,0.0,0.0,0.0,0.8496,0.9052,0.0,0.0,0.0,0.0,0.0,0.0,0.0,0.0,0.6723,0.0,0.0,0.0,0.0,0.0,0.0,0.0,0.0,0.0,0.0,0.0,0.0,0.0,0.0,0.0,0.0,0.0,0.0,0.0,0.0,0.0,0.0,0.0,0.0,0.0,0.0,0.0,0.0,0.0,0.0,0.0,0.0,0.0,0.0,0.0,0.0,0.0,0.0,0.0,0.0,0.0,0.0,0.0,0.0,0.0,0.0,0.0,0.0,0.0,0.0,0.0,0.0,0.0,0.0,0.0,0.0,0.9774,1.0033,1.0204,1.0333,1.0568,1.0398,0.9869,0.9516,0.8992,0.8272,0.0,0.0,0.0,0.0,0.0,0.0,0.0,0.0,0.0,0.0,0.0,0.0,0.0,0.0,0.0,0.0,0.0,0.0,0.0,0.0,0.0,0.0,0.0,0.0,0.0,0.0,0.0,0.0,0.0,0.0,0.0,0.0,0.0,0.0,0.0,0.0,0.0,0.0,0.0,0.9374,0.9574,0.0,0.0,0.0,0.0,0.0,0.0,0.0,0.0,0.6752,0.0,0.0,0.0,0.0,0.0,0.0,0.0,0.0,0.0,0.0,0.0,0.0,0.0,0.0,0.0,0.0,0.0,0.0,0.0,0.0,0.0,0.0,0.0,0.0,0.0,0.0,0.0,0.0,0.0,0.0,0.0,0.0,0.0,0.0,0.0,0.0,0.0,0.0,0.0,0.0,0.0,0.0,0.0,0.0,0.0,0.0,0.0,0.0,0.0,0.0,0.0,0.0,0.0,0.0,0.0,0.9938,1.0686,1.1175,1.1389,1.1516,1.1322,1.0792,0.981,0.903,0.0,0.0,0.0,0.0,0.0,0.0,0.0,0.0,0.0,0.0,0.0,0.0,0.0,0.0,0.0,0.0,0.0,0.0,0.0,0.0,0.0,0.0,0.0,0.0,0.0,0.0,0.0,0.0,0.0,0.0,0.0,0.0,0.0,0.0,0.0,0.0,0.0,0.0,0.0,0.0,0.9709,0.9843,0.9144,0.0,0.0,0.0,0.0,0.0,0.0,0.7894,0.7622,0.0,0.0,0.0,0.0,0.0,0.0,0.0,0.0,0.0,0.0,0.0,0.0,0.0,0.0,0.0,0.0,0.0,0.0,0.0,0.0,0.0,0.0,0.0,0.0,0.0,0.0,0.0,0.0,0.0,0.0,0.0,0.0,0.0,0.0,0.0,0.0,0.0,0.0,0.0,0.0,0.0,0.0,0.0,0.0,0.0,0.0,0.0,0.0,0.0,0.0,0.0,0.0,0.0,0.0,0.0,1.0615,1.1687,1.2337,1.2687,1.2673,1.2298,1.1504,1.0317,0.9299,0.0,0.0,0.0,0.0,0.0,0.0,0.0,0.0,0.0,0.0,0.0,0.0,0.0,0.0,0.0,0.0,0.0,0.0,0.0,0.0,0.0,0.0,0.0,0.0,0.0,0.0,0.0,0.0,0.0,0.0,0.0,0.0,0.0,0.0,0.0,0.0,0.0,0.0,0.0,0.0,0.0,1.0458,0.9883,0.9819,0.0,0.0,0.0,0.0,0.8642,0.8652,0.0,0.0,0.0,0.0,0.0,0.0,0.0,0.0,0.0,0.0,0.0,0.0,0.0,0.0,0.0,0.0,0.0,0.0,0.0,0.0,0.0,0.0,0.0,0.0,0.0,0.0,0.0,0.0,0.0,0.0,0.0,0.0,0.0,0.0,0.0,0.0,0.0,0.0,0.0,0.0,0.0,0.0,0.0,0.0,0.0,0.0,0.0,0.0,0.0,0.0,0.0,0.0,0.0,0.0,0.0,0.0,1.2637,1.3042,1.3366,1.3617,1.3492,1.2636,1.0877,1.1194,1.0514,0.0,0.0,0.0,0.0,0.0,0.0,0.0,0.0,0.0,0.0,0.0,0.0,0.0,0.0,0.0,0.0,0.0,0.0,0.0,0.0,0.0,0.0,0.0,0.0,0.0,0.0,0.0,0.0,0.0,0.0,0.0,0.0,0.0,0.0,0.0,0.0,0.0,0.0,0.0,0.0,0.0,1.1845,1.1307,1.157,1.1789,0.0,0.0,1.0391,0.9203,0.9499,0.0,0.0,0.0,0.0,0.0,0.0,0.0,0.0,0.0,0.0,0.0,0.0,0.0,0.0,0.0,0.0,0.0,0.0,0.0,0.0,0.0,0.0,0.0,0.0,0.0,0.0,0.0,0.0,0.0,0.0,0.0,0.0,0.0,0.0,0.0,0.0,0.0,0.0,0.0,0.0,0.0,0.0,0.0,0.0,0.0,0.0,0.0,0.0,0.0,0.0,0.0,0.0,0.0,0.0,0.0,1.2182,1.277,1.3654,1.4321,1.4715,1.4489,1.3927,1.2963,1.2076,1.1129,0.0,0.0,0.0,0.0,0.0,0.0,0.0,0.0,0.0,0.0,0.0,0.0,0.0,0.0,0.0,0.0,0.0,0.0,0.0,0.0,0.0,0.0,0.0,0.0,0.0,0.0,0.0,0.0,0.0,0.0,0.0,0.0,0.0,0.0,0.0,0.0,0.0,0.0,0.0,0.0,0.0,0.0,1.1708,1.1909,0.0,0.0,0.0,1.1195,1.0186,0.0,0.0,0.0,0.0,0.0,0.0,0.0,0.0,0.0,0.0,0.0,0.0,0.0,0.0,0.0,0.0,0.0,0.0,0.0,0.0,0.0,0.0,0.0,0.0,0.0,0.0,0.0,0.0,0.0,0.0,0.0,0.0,0.0,0.0,0.0,0.0,0.0,0.0,0.0,0.0,0.0,0.0,0.0,0.0,0.0,0.0,0.0,0.0,0.0,0.0,0.0,0.0,0.0,0.0,0.0,0.0,0.0,1.3298,1.4483,1.5396,1.5924,1.5526,1.5054,1.4463,1.2963,0.0,0.0,0.0,0.0,0.0,0.0,0.0,0.0,0.0,0.0,0.0,0.0,0.0,0.0,0.0,0.0,0.0,0.0,0.0,0.0,0.0,0.0,0.0,0.0,0.0,0.0,0.0,0.8251,0.0,0.0,0.0,0.0,0.0,0.0,0.0,0.0,0.0,0.0,0.0,0.0,0.0,0.0,1.2562,1.2493,1.2656,1.2948,0.0,0.0,1.183,1.1029,1.0742,1.051,0.0,0.0,0.0,0.0,0.0,0.0,0.0,0.0,0.0,0.0,0.0,0.0,0.0,0.0,0.0,0.0,0.0,0.0,0.0,0.0,0.0,0.0,0.0,0.0,0.0,0.0,0.0,0.0,0.0,0.0,0.0,0.0,0.0,0.0,0.0,0.0,0.0,0.0,0.0,0.0,0.0,0.0,0.0,0.0,0.0,0.0,0.0,0.0,0.0,0.0,0.0,0.0,0.0,0.0,1.4087,1.5192,1.6045,1.6704,1.7241,1.6739,1.5627,1.3927,1.3922,1.2946,0.0,0.0,0.0,0.0,0.0,0.0,0.0,0.0,0.0,0.0,0.0,0.0,0.0,0.0,0.0,0.0,0.0,0.0,0.0,0.0,0.0,0.0,0.0,0.0,0.0,0.0,0.0,0.0,0.0,0.0,0.0,0.0,0.0,0.0,0.0,0.0,0.0,0.0,0.0,0.0,0.0,1.4245,1.4235,1.4745,1.52,0.0,1.4105,1.2662,1.1317,1.0962,1.0636,0.9951,0.0,0.0,0.0,0.0,0.0,0.0,0.0,0.0,0.0,0.0,0.0,0.0,0.0,0.0,0.0,0.0,0.0,0.0,0.0,0.0,0.0,0.0,0.0,0.0,0.0,0.0,0.0,0.0,0.0,0.0,0.0,0.0,0.0,0.0,0.0,0.0,0.0,0.0,0.0,0.0,0.0,0.0,0.0,0.0,0.0,0.0,0.0,0.0,0.0,0.0,0.0,0.0,0.0,1.4288,1.4906,1.5829,1.6484,1.6903,1.6495,1.593,1.5225,1.4491,1.374,0.0,0.0,0.0,0.0,0.0,0.0,0.0,0.0,0.0,0.0,0.0,0.0,0.0,0.0,0.0,0.0,0.0,0.0,0.0,0.0,0.0,0.0,0.0,0.0,0.0,0.0,0.0,0.0,0.7868,0.8047,0.878,0.0,0.0,0.0,0.0,0.0,0.0,0.0,0.0,0.0,0.0,1.4232,1.3667,1.4654,0.0,0.0,1.541,1.4572,1.294,1.3187,1.3178,1.2208,1.1922,0.0,0.0,0.0,0.0,0.0,0.0,0.0,0.0,0.0,0.0,0.0,0.0,0.0,0.0,0.0,0.0,0.0,0.0,0.0,0.0,0.0,0.0,0.0,0.0,0.0,0.0,0.0,0.0,0.0,0.0,0.0,0.0,0.0,0.0,0.0,0.0,0.0,0.0,0.0,0.0,0.0,0.0,0.0,0.0,0.0,0.0,0.0,0.0,0.0,0.0,0.0,0.0,1.4405,1.4735,1.5637,1.6319,1.6618,1.6319,1.6114,1.6046,1.5022,1.4425,0.0,0.0,0.0,0.0,0.0,0.0,0.0,0.0,0.0,0.0,0.0,0.0,0.0,0.0,0.0,0.0,0.0,0.0,0.0,0.0,0.0,0.0,0.0,0.0,0.0,0.0,0.0,0.0,0.7933,0.8395,0.9509,0.0,0.0,0.0,0.0,0.0,0.0,0.0,0.0,0.0,0.0,1.3886,1.3882,1.4922,1.5764,1.6073,1.5979,1.5371,1.4132,1.4351,1.443,1.3583,0.0,0.0,0.0,0.0,0.0,0.0,0.0,0.0,0.0,0.0,0.0,0.0,0.0,0.0,0.0,0.0,0.0,0.0,0.0,0.0,0.0,0.0,0.0,0.0,0.0,0.0,0.0,1.1966,0.0,0.0,1.2182,0.0,0.0,0.0,0.0,0.0,0.0,0.0,0.0,0.0,0.0,0.0,0.0,0.0,0.0,0.0,0.0,0.0,0.0,0.0,0.0,0.0,0.0,1.4733,1.501,1.5869,1.6441,1.6694,1.6441,1.6155,1.5936,1.5623,1.5004,1.4093,0.0,0.0,0.0,0.0,0.0,0.0,0.0,0.0,0.0,0.0,0.0,0.0,0.0,0.0,0.0,0.0,0.0,0.0,0.0,0.0,0.0,0.0,0.0,0.0,0.0,0.0,0.9114,0.8924,0.915,0.0,0.0,0.0,0.0,0.0,0.0,0.0,0.0,0.0,1.298,1.2854,1.328,1.5213,1.585,1.6204,1.6658,1.5718,1.477,1.4526,1.3976,1.3528,0.0,0.0,0.0,0.0,0.0,0.0,0.0,0.0,0.0,0.0,0.0,0.0,0.0,0.0,0.0,0.0,0.0,0.0,0.0,0.0,0.0,0.0,0.0,0.0,0.0,0.0,0.0,1.2758,1.3189,0.0,0.0,0.0,0.0,0.0,0.0,0.0,0.0,0.0,0.0,0.0,1.6282,1.6018,0.0,0.0,0.0,0.0,0.0,0.0,0.0,0.0,0.0,0.0,0.0,0.0,1.4914,1.5004,1.5873,1.6332,1.6416,1.6332,1.6284,1.6174,1.5719,1.5329,1.4955,0.0,0.0,0.0,0.0,0.0,0.0,0.0,0.0,0.0,0.0,0.0,0.0,0.0,0.0,0.0,0.0,0.0,0.0,0.0,0.0,0.0,0.0,0.0,0.0,0.0,0.9514,0.0,0.0,0.0,0.0,0.0,0.0,0.0,0.0,0.0,0.0,0.0,1.1425,1.1484,1.3072,1.4311,1.456,1.565,1.6369,0.0,0.0,0.0,0.0,0.0,0.0,0.0,0.0,0.0,0.0,0.0,0.0,0.0,0.0,1.477,1.5056,1.4676,1.4254,1.4148,0.0,0.0,0.0,0.0,0.0,0.0,0.0,0.0,0.0,0.0,0.0,0.0,0.0,0.0,1.4135,1.455,1.3784,0.0,0.0,0.0,0.0,0.0,0.0,0.0,0.0,1.7376,1.743,1.738,1.7111,1.6902,1.6736,1.6205,1.5708,0.0,0.0,0.0,0.0,0.0,0.0,0.0,0.0,1.5309,1.5363,1.5893,1.6139,1.6151,1.6151,1.6151,1.6139,1.5725,1.5416,1.5179,1.4643,1.4299,0.0,0.0,0.0,0.0,0.0,0.0,0.0,0.0,0.0,0.0,0.0,0.0,0.0,0.0,0.0,0.0,0.0,0.0,0.0,0.0,0.0,0.0,0.0,0.9787,0.0,0.0,0.0,0.0,0.0,0.0,0.0,0.0,0.0,1.1888,1.1544,1.1503,1.1853,1.3182,1.4303,1.4772,0.0,0.0,0.0,0.0,0.0,0.0,0.0,1.7897,1.7453,1.7435,1.7428,1.7155,1.6535,1.6229,1.6599,0.0,0.0,1.5772,1.5232,1.4732,1.4672,1.4705,1.4663,1.4453,1.4276,1.418,0.0,0.0,0.0,0.0,1.5192,0.0,0.0,0.0,1.4993,1.5235,0.0,1.5344,0.0,0.0,0.0,0.0,1.7436,1.7216,0.0,0.0,1.8036,1.8036,1.803,1.8279,1.8422,1.8422,1.8055,1.7539,1.6652,1.5082,0.0,0.0,0.0,0.0,0.0,0.0,1.5885,1.5885,1.5897,1.5897,1.5897,1.5897,1.5897,1.5897,1.5642,1.5299,1.4777,1.5211,1.4707,1.3122,1.4669,0.0,0.0,0.0,0.0,0.0,0.0,0.0,0.0,0.0,0.0,0.0,0.0,0.0,0.0,0.0,0.0,0.0,0.0,0.0,0.0,0.9638,0.0,0.0,0.0,0.0,0.0,0.0,0.0,0.0,0.0,0.0,1.4149,1.2374,1.1791,1.4059,0.0,0.0,0.0,0.0,1.5883,1.6856,1.7244,1.7408,1.7408,1.7479,1.7394,1.7141,0.0,0.0,1.7111,1.7365,1.76,1.8222,1.7335,1.6765,1.6634,1.6294,1.6187,1.6784,1.6209,1.5939,1.6045,1.5274,1.4826,1.7944,0.0,0.0,0.0,0.0,1.6368,1.6669,1.7147,1.6148,1.608,1.6667,1.5623,0.0,0.0,0.0,0.0,0.0,0.0,1.8347,1.84,1.878,1.885,1.8646,1.8712,1.8764,1.875,1.8057,1.7601,1.733,1.6418,1.5685,1.5215,0.0,0.0,0.0,0.0,1.6258,1.5939,1.5885,1.5885,1.5885,1.5885,1.5885,1.5885,1.5844,1.5719,1.5563,1.5317,1.5159,1.5036,1.4756,0.0,0.0,0.0,0.0,0.0,0.0,0.0,0.0,0.0,0.0,0.0,0.0,0.0,0.0,0.0,0.0,0.0,0.0,0.0,1.0482,1.016,1.0554,0.0,0.0,0.0,0.0,0.0,0.0,0.0,0.0,0.0,1.4863,1.3741,1.3084,0.0,0.0,1.5652,1.6646,1.6333,1.6149,1.6598,1.6389,0.0,1.6216,1.6763,1.709,1.6841,1.6734,1.6746,1.704,1.6608,1.6376,1.6691,1.6369,1.6046,1.6014,1.5553,1.5175,1.5127,1.4897,1.4662,1.4503,1.4265,1.4018,1.895,1.7754,1.7289,1.7367,1.7757,1.77,1.7968,1.8237,1.7428,1.7236,1.7547,1.6681,1.6428,1.6558,1.6952,0.0,0.0,0.0,1.8791,1.8845,1.9141,1.9252,1.9266,1.9266,1.9156,1.8869,1.8254,1.777,1.7617,1.7196,1.6637,1.596,0.0,1.6534,1.6181,1.6383,1.6365,1.6057,1.5951,1.5885,1.5885,1.5885,1.5885,1.5885,1.5885,1.5837,1.5728,1.5319,1.516,1.5259,1.4953,1.5001,0.0,0.0,0.0,0.0,0.0,0.0,0.0,0.0,0.0,0.0,0.0,1.1779,1.2663,0.0,0.0,0.0,1.1285,1.1042,1.0691,1.0784,0.0,0.0,0.0,0.0,0.0,0.0,0.0,1.5369,1.423,1.3831,1.4863,1.4603,1.4249,1.4214,1.4912,1.5671,1.6275,0.0,1.5795,1.6183,1.5643,1.5257,1.5429,1.5723,1.6056,1.6263,1.6276,1.6368,1.6565,1.6184,1.5989,1.6125,1.6011,1.5832,1.5832,1.5179,1.474,1.4752,1.4541,1.4358,1.4297,1.4105,1.3834,1.9292,1.9052,1.9292,1.9198,1.8958,1.9203,1.9185,1.8901,1.8634,1.8519,1.8448,1.8125,1.8017,1.7994,1.7994,0.0,1.8509,1.8563,1.8819,1.9274,1.9288,1.9434,1.9725,1.9725,1.9406,1.8869,1.8541,1.8126,1.7633,1.7555,1.7252,1.6794,1.6795,1.6776,1.6698,1.6524,1.6377,1.6324,1.6099,1.5951,1.5885,1.5885,1.5885,1.5885,1.5885,1.5777,1.5535,1.5282,1.4865,1.4415,1.5094,1.5248,1.4839,0.0,0.0,0.0,0.0,0.0,0.0,0.0,0.0,0.0,0.0,0.0,0.0,0.0,0.0,0.0,1.1782,0.0,1.0473,1.1451,0.0,0.0,0.0,1.4033,1.3823,1.4083,1.4342,1.4558,0.0,0.0,1.4536,1.4987,1.5098,1.4536,1.4159,1.4298,1.5311,1.4966,1.4854,1.5524,1.4848,1.4374,1.4555,1.454,1.4763,1.5364,1.5634,1.5801,1.5986,1.601,1.6147,1.6258,1.6034,1.5738,1.5738,1.5096,1.4761,1.5298,1.4922,1.4613,1.4735,1.4484,1.4147,2.0187,1.9907,1.976,1.9381,1.8911,1.8968,1.9118,1.9239,1.8968,1.8701,1.849,1.8165,1.7991,1.798,1.798,1.8182,1.8494,1.8974,1.9122,1.9006,1.922,1.9213,1.9103,1.8864,1.8664,1.8489,1.8213,1.8028,1.7868,1.7698,1.7501,1.7382,1.7358,1.7252,1.7002,1.7213,1.7054,1.663,1.6524,1.6311,1.5939,1.5885,1.5885,1.5885,1.5885,1.5861,1.5801,1.5547,1.5231,1.4927,1.4722,1.4819,1.5275,1.5092,0.0,0.0,0.0,0.0,0.0,0.0,0.0,0.0,0.0,1.272,1.3857,0.0,1.2321,0.0,1.1579,1.1108,1.1423,1.194,0.0,0.0,1.4029,1.4516,1.445,1.4504,1.4754,1.5219,1.4812,1.4591,1.4856,1.4647,1.4451,1.4288,1.4856,1.5411,1.5637,1.4677,1.4082,1.4333,1.3416,1.259,1.2711,1.3343,1.3908,1.4252,1.5062,1.5633,1.5692,1.554,1.5442,1.5464,1.5342,1.5222,1.5188,1.4865,1.4676,1.4773,1.4504,1.431,1.4375,1.4288,1.4158,2.0508,2.0153,1.992,1.9613,1.9305,1.9185,1.9212,1.9403,1.9185,1.8958,1.8664,1.8384,1.825,1.8237,1.8237,1.8385,1.8698,1.903,1.9222,1.929,1.9328,1.9294,1.9124,1.8809,1.851,1.8227,1.8069,1.7911,1.7806,1.7687,1.7477,1.7213,1.7213,1.7121,1.6938,1.7397,1.7424,1.7107,1.6842,1.6418,1.5939,1.5885,1.5992,1.6258,1.6147,1.6178,1.6441,1.6061,1.572,1.5569,1.5332,1.5307,1.5594,1.5557,1.5758,0.0,0.0,0.0,0.0,0.0,0.0,0.0,0.0,0.0,0.0,0.0,1.2744,1.3421,1.2925,1.2669,1.2995,1.3153,1.332,1.3583,1.3823,1.3923,1.3865,1.4052,1.4292,1.4585,1.4472,1.4396,1.444,1.431,1.4148,1.4051,1.4669,1.5066,1.5,1.4054,1.3427,1.3482,1.2182,1.1201,1.1324,1.1898,1.2724,1.3684,1.4015,1.4391,1.5353,1.5011,1.4662,1.5083,1.5058,1.4932,1.4778,1.456,1.4396,1.4396,1.4299,1.4234,1.432,1.4266,1.4158,2.0494,2.0153,1.996,1.9826,1.9773,1.9492,1.943,1.943,1.943,1.9199,1.8905,1.8611,1.849,1.849,1.8531,1.871,1.8919,1.896,1.9264,1.9724,1.9431,1.9332,1.929,1.8914,1.8476,1.7978,1.7964,1.7806,1.7582,1.7582,1.7371,1.6895,1.6829,1.6842,1.6895,1.7371,1.7582,1.7582,1.6988,1.6458,1.6045,1.6074,1.6262,1.6725,1.6458,1.6523,1.701,1.6494,1.6202,1.6211,1.6273,1.6113,1.582,1.6268,1.6402,0.0,1.6343,0.0,0.0,0.0,0.0,0.0,0.0,0.0,0.0,1.3247,1.3474,1.4555,1.4705,1.4763,1.4585,1.4406,1.4027,1.3499,1.3211,1.2985,1.2851,1.324,1.348,1.348,1.3953,1.4158,1.3933,1.4062,1.4158,1.3954,1.404,1.4234,1.4148,1.3498,1.29,1.2772,1.1181,1.016,1.037,1.0654,1.1454,1.2984,1.2931,1.2937,1.4748,1.4113,1.367,1.4344,1.4339,1.4178,1.4082,1.3819,1.3759,1.3856,1.3856,1.3974,1.4341,1.432,1.4266,2.0508,2.0227,2.0113,2.0013,1.9773,1.9492,1.943,1.943,1.943,1.9199,1.8905,1.8611,1.849,1.8517,1.8731,1.8838,1.8908,1.9421,1.9549,1.94,1.9112,1.8892,1.8658,1.8076,1.7794,1.7687,1.7687,1.7635,1.7582,1.7582,1.7635,1.7753,1.7529,1.7529,1.7753,0.0,0.0,0.0,1.7001,1.6617,1.6564,1.6769,1.6911,1.7015,1.6483,0.0,1.668,1.6386,1.6216,1.6188,1.6211,0.0,0.0,0.0,0.0,0.0,0.0,0.0,0.0,0.0,0.0,0.0,1.5423,1.4966,1.4455,1.4555,1.4671,1.4686,1.5061,1.5056,1.4424,1.4145,1.3785,1.3218,1.2964,1.2862,1.2829,1.319,1.348,1.3491,1.4101,1.4439,1.418,1.4374,1.4374,1.4158,1.3986,1.3986,1.4159,1.3413,1.2654,1.1891,1.0366,0.9272,0.9412,1.0196,1.086,1.151,1.2039,1.232,1.274,1.2387,1.182,1.2041,1.1737,1.1612,1.1533,1.1354,1.1764,1.258,1.2743,1.3034,1.4028,1.4223,1.4202,2.0508,2.018,2.018,2.0147,0.0,1.9546,1.943,1.943,1.943,1.9279,1.9132,1.8985,1.8931,1.8931,1.9078,1.9145,1.9145,1.9465,1.951,1.9347,1.8901,1.8617,1.8469,1.7902,1.7582,1.7582,1.7582,1.7582,1.7582,1.7582,1.7582,1.7595,1.749,1.7371,1.7371,1.712,1.6936,1.6951,1.6625,1.63,1.5915,1.6035,1.6266,1.647,1.6097,0.0,0.0,0.0,0.0,0.0,0.0,0.0,0.0,1.5757,0.0,1.5866,1.5883,1.5998,1.6233,1.5937,1.5655,1.5499,1.5258,1.5011,1.4655,1.4808,1.491,1.491,1.5291,1.5291,1.4705,1.4436,1.4027,1.3398,1.3071,1.2888,1.2883,1.324,1.347,1.3523,1.4048,1.4353,1.4191,1.4299,1.4288,1.4094,1.4019,1.3997,1.3901,1.325,1.2313,1.1118,0.9946,0.9069,0.9193,0.9603,1.0234,1.0557,1.048,1.0791,1.176,1.1118,1.0633,1.0971,1.1062,1.0916,1.0677,1.0661,1.0891,1.1492,1.2037,1.2526,1.3251,1.3802,1.4191,2.0347,2.0094,2.0187,2.0174,2.004,1.9626,1.9412,1.943,1.943,0.0,0.0,1.943,1.943,1.943,1.943,1.943,1.943,1.943,1.943,1.9345,1.8758,1.849,1.8464,1.7876,1.7582,1.7582,1.7582,1.7582,1.7582,1.7582,1.749,1.7279,1.7239,1.7014,1.6683,1.6471,1.6346,1.6277,1.6317,1.5984,1.5265,1.5317,1.5544,1.5984,1.5665,1.5706,1.6192,1.5904,1.5737,1.5832,1.6072,1.6037,1.5716,1.5914,1.5998,1.5852,1.5978,1.6049,1.5998,1.5606,1.5256,1.4968,1.4811,1.4714,1.4714,1.4799,1.4944,1.5161,1.5415,1.5446,1.5125,1.4824,1.4439,1.371,1.3337,1.3028,1.2926,1.3211,1.348,1.3523,1.3953,1.4245,1.4191,1.4083,1.4008,1.3901,1.3805,1.3795,1.3509,1.3002,1.2159,1.0836,0.9961,0.9391,0.9207,0.9157,0.9382,0.9932,0.9149,0.9072,1.0244,1.0059,0.9659,1.0045,1.0482,1.0296,0.9984,0.9813,1.0171,1.0343,1.1109,1.1928,1.2417,1.3197,1.3856,1.976,1.9533,2.0027,1.9947,1.9492,1.9666,1.9599,1.943,1.943,1.943,1.943,1.943,1.943,1.943,1.943,1.943,1.943,1.943,1.943,1.939,1.8758,1.849,1.8464,1.7862,1.7582,1.7582,1.7582,1.7582,1.7582,1.7582,1.7582,1.7529,1.7331,1.7014,1.6736,1.6683,1.6544,1.6329,1.6317,1.6138,1.5809,1.6015,1.6143,1.6228,1.5708,1.5551,1.5838,1.5607,1.5581,1.5784,1.5824,1.5681,1.5226,1.5265,1.5086,1.4605,1.4814,1.4936,1.4935,1.4837,1.4715,1.4449,1.4594,1.4714,1.4727,1.5137,1.5403,1.5451,1.5668,1.5743,1.547,1.4983,1.4571,1.4167,1.3525,1.3093,1.305,1.3297,1.348,1.3491,1.4101,1.4396,1.4137,1.3748,1.3609,1.3805,1.3118,1.2499,1.2591,1.265,1.2434,1.1555,1.0657,0.9906,0.9293,0.8924,0.892,0.9064,0.8549,0.8224,0.8763,0.8503,0.8148,0.802,0.8235,0.8139,0.7826,0.7692,0.8202,0.8975,0.9471,1.0123,1.1755,1.2472,1.3024,1.972,1.9653,2.0054,2.008,1.984,1.9813,1.9639,1.943,1.943,1.943,1.943,1.943,1.943,1.943,1.943,1.943,1.943,1.943,1.943,1.9377,1.8758,1.849,1.8437,1.7876,1.7582,1.7582,1.7582,1.7582,1.7582,1.7582,1.7582,1.7582,1.7477,1.7318,1.716,1.7054,1.6819,1.6601,1.6279,1.5859,1.5482,1.545,1.5358,1.5213,1.4929,1.4867,1.4975,1.4867,1.4867,1.4975,1.501,1.4867,1.4688,1.4688,1.4679,1.4714,1.4859,1.5052,1.5342,1.5221,1.4968,1.457,1.4908,1.5137,1.5137,1.5366,1.5499,1.5511,1.5741,1.5684,1.5256,1.4992,1.4665,1.4099,1.3564,1.3254,1.3157,1.333,1.347,1.3513,1.3995,1.4126,1.3586,1.3261,1.2866,1.2651,1.1856,1.1606,1.2035,1.1961,1.1664,1.097,1.0548,0.9965,0.9137,0.8745,0.8539,0.8374,0.7989,0.7784,0.7771,0.7604,0.7491,0.7307,0.7372,0.735,0.7056,0.7133,0.7465,0.7759,0.8533,0.9416,1.0343,1.1437,1.2719,1.9746,1.9826,2.0107,2.0207,2.0172,1.9767,1.9489,1.9407,1.9341,1.9301,1.9417,1.943,1.943,1.943,1.943,1.943,1.943,1.943,1.943,1.9377,1.8838,1.8557,1.8437,1.7929,1.7649,1.7595,1.7582,1.7582,1.7582,1.7582,1.7582,1.7582,1.7582,1.7582,1.7582,1.7384,1.7174,1.6951,1.6458,1.5909,1.5344,1.5022,1.474,1.4485,1.4437,1.4364,1.4304,1.4304,1.4304,1.4304,1.4304,1.4316,1.4377,1.4389,1.4606,1.504,1.5052,1.5161,1.5475,1.5403,1.5149,1.4775,1.5197,1.5499,1.5499,1.5559,1.5584,1.5608,1.5736,1.563,1.5202,1.4976,1.4641,1.4017,1.3748,1.3491,1.333,1.3437,1.3556,1.3599,1.3933,1.3867,1.3152,1.2718,1.2144,1.105,1.0786,1.1052,1.1283,1.1074,1.0669,1.0044,1.0032,0.9861,0.8871,0.8457,0.8159,0.7793,0.7617,0.7472,0.7385,0.741,0.7366,0.7171,0.7263,0.7258,0.6959,0.7013,0.7177,0.7343,0.7901,0.8631,0.9406,1.1357,1.2851,1.9559,1.9826,2.0107,2.0204,2.0103,1.9305,1.906,1.9233,1.9057,1.9127,1.9359,1.943,1.943,1.943,1.943,1.943,1.943,1.943,1.943,1.939,1.9038,1.8744,1.849,1.8102,1.7862,1.7622,1.7595,1.7609,1.7582,1.7582,1.7595,1.7582,1.7582,1.7595,1.7595,1.7582,1.7569,1.7542,1.7261,1.6713,1.5947,1.5582,1.5307,1.501,1.4765,1.4558,1.4328,1.4304,1.4304,1.4304,1.4304,1.4413,1.4642,1.4678,1.4799,1.5077,1.4908,1.4678,1.4509,1.4654,1.4811,1.4763,1.5221,1.5511,1.5523,1.5716,1.5849,1.5849,1.5672,1.5535,1.5428,1.4987,1.4643,1.4426,1.4006,1.3782,1.3739,1.3771,1.3793,1.3793,1.3965,1.3867,1.2935,1.211,1.1105,0.9954,1.0115,1.023,0.9746,0.9931,0.9791,0.8844,0.9113,0.9389,0.8628,0.8005,0.7782,0.7577,0.7393,0.7259,0.7274,0.7263,0.7187,0.7203,0.723,0.716,0.7062,0.7067,0.7166,0.7139,0.748,0.8005,0.9861,1.2035,1.3559,1.9497,1.9573,1.9853,1.986,1.9637,1.9283,1.8958,1.877,1.8875,1.8997,1.9127,1.9301,1.943,1.943,1.943,1.943,1.943,1.943,1.943,1.9403,1.9065,1.8771,1.849,1.837,1.8063,1.7635,1.7769,1.7756,1.7609,1.7582,1.7675,1.7822,1.7675,1.7675,1.7822,1.7675,1.7582,1.7635,1.7462,1.7289,1.6898,1.6329,1.5746,1.537,1.5084,1.4814,1.4545,1.4389,1.4377,1.4521,1.4545,1.4666,1.4932,1.4944,1.5065,1.5306,1.539,1.5294,1.5028,1.5258,1.5342,1.5197,1.5523,1.5728,1.5728,1.5825,1.5885,1.5885,1.5684,1.5428,1.5202,1.4826,1.4546,1.4363,1.4018,1.3825,1.3814,1.3814,1.3814,1.3783,1.3548,1.3098,1.211,1.0743,0.9789,0.9237,0.9258,0.8893,0.8784,0.8777,0.8459,0.8115,0.8264,0.8325,0.7992,0.7771,0.7549,0.7382,0.7265,0.7243,0.7209,0.7269,0.7247,0.716,0.7304,0.7271,0.7018,0.7133,0.7188,0.7205,0.792,0.8728,1.0256,1.1928,1.3032,1.9354,1.9415,1.9582,1.9538,1.936,1.9183,1.8958,1.8639,1.8724,1.892,1.9103,1.9264,1.9354,1.9466,1.9399,1.943,1.943,1.943,1.943,1.9403,1.9145,1.8891,1.8624,1.8517,1.8223,1.7809,1.7836,1.7836,1.7716,1.7702,1.7862,1.8035,1.7943,1.7903,1.7955,1.7809,1.7662,1.7595,1.7582,1.7582,1.7528,1.6962,1.6355,1.5757,1.5469,1.5133,1.4823,1.463,1.4606,1.4761,1.4823,1.4944,1.5197,1.5209,1.5306,1.5487,1.5668,1.5668,1.5415,1.5632,1.5704,1.5547,1.5741,1.5922,1.597,1.588,1.5827,1.5899,1.5517,1.5148,1.5041,1.4829,1.4603,1.4331,1.4116,1.4019,1.4029,1.3976,1.3933,1.3837,1.3393,1.2467,1.1249,0.9728,0.8728,0.8756,0.8239,0.7788,0.8263,0.8022,0.7743,0.7806,0.7704,0.7635,0.7572,0.7493,0.7382,0.7265,0.721,0.721,0.7254,0.7388,0.7702,0.7956,0.7762,0.7633,0.7641,0.7561,0.721,0.7487,0.8312,0.9442,1.0341,1.1765,1.2979,1.9344,1.9291,1.9271,1.9349,1.9548,1.8998,1.8888,1.8902,1.8615,1.8854,1.9464,1.9142,1.9226,1.9746,1.9506,1.943,1.943,1.943,1.943,1.943,1.9403,1.9185,1.8891,1.8624,1.833,1.7929,1.7782,1.7782,1.7929,1.8009,1.8156,1.845,1.8424,1.829,1.8049,1.7969,1.7876,1.7649,1.7595,1.7595,1.7609,1.7569,1.7069,1.6342,1.5981,1.5626,1.5176,1.5077,1.5077,1.5089,1.5089,1.5209,1.5451,1.5487,1.5499,1.5511,1.5523,1.5427,1.5246,1.5427,1.5559,1.5559,1.5777,1.6006,1.6223,1.5928,1.5742,1.5865,1.5244,1.4903,1.4979,1.4931,1.4768,1.4492,1.4437,1.4416,1.4416,1.4256,1.4191,1.404,1.3432,1.2191,1.0362,0.9175,0.8413,0.8144,0.799,0.7938,0.7875,0.7867,0.7895,0.7807,0.7676,0.7541,0.7561,0.7438,0.7265,0.721,0.721,0.7265,0.7552,0.7853,0.8359,0.8797,0.8811,0.8681,0.8493,0.8029,0.7514,0.787,0.9244,1.0257,1.0512,1.2577,1.3676,1.905,1.8979,1.8875,1.8964,1.9001,1.8775,1.8652,1.8593,1.8594,1.8922,1.9399,1.94,1.9582,1.98,1.9693,1.9546,1.943,1.943,1.943,1.943,1.943,1.9212,1.8931,1.8811,1.8504,1.8035,1.7929,1.7929,1.7995,1.8223,1.8464,1.8677,1.8571,1.8437,1.8317,1.8143,1.7929,1.7822,1.7689,1.7769,1.8076,1.7782,1.745,1.7158,1.6507,1.5917,1.5354,1.5197,1.5185,1.5342,1.5354,1.5475,1.5716,1.5753,1.5753,1.5753,1.5741,1.5704,1.5644,1.5692,1.5825,1.5994,1.6091,1.6272,1.6477,1.6354,1.6172,1.5869,1.5678,1.5335,1.4976,1.4823,1.4646,1.4536,1.448,1.4491,1.4437,1.4342,1.4245,1.4132,1.3141,1.1572,1.0269,0.9007,0.8145,0.7968,0.785,0.7894,0.7911,0.785,0.7823,0.7823,0.7736,0.7776,0.8737,0.7797,0.721,0.721,0.7265,0.7709,0.8066,0.8641,0.9175,0.9997,1.0053,0.9864,0.9644,0.8769,0.8122,0.7616,0.9099,1.0218,1.059,1.2443,1.3505,1.8749,1.8734,1.863,1.8692,1.8802,1.8797,1.871,1.8603,1.8692,1.8939,1.936,1.9527,1.9637,1.9767,1.978,1.9639,1.9444,1.943,1.943,1.943,1.943,1.9252,1.9078,1.8971,1.8661,1.8315,1.8169,1.8223,1.8288,1.8531,1.8784,1.9025,1.8865,1.8718,1.8611,1.8424,1.8235,1.817,1.7983,1.809,1.8384,1.7996,1.7715,1.7603,1.6908,1.6196,1.5777,1.5503,1.5439,1.5596,1.562,1.5704,1.5873,1.5885,1.5885,1.5885,1.5885,1.5934,1.6006,1.6018,1.6127,1.6392,1.6429,1.6549,1.6779,1.6574,1.6275,1.6022,1.5618,1.5253,1.5055,1.4767,1.4676,1.4673,1.4697,1.4686,1.4684,1.4492,1.4096,1.3519,1.2463,1.1102,0.9774,0.8646,0.8131,0.7965,0.7856,0.7905,0.8084,0.8089,0.8008,0.8062,0.7888,0.8053,0.8414,0.7846,0.7856,0.7927,0.7287,0.7776,0.8592,0.9251,1.0074,1.0945,1.1279,1.1067,1.0492,0.9586,0.8667,0.765,0.8448,0.9786,1.0811,1.2136,1.3062,1.8508,1.8655,1.841,1.864,1.9039,1.9088,1.906,1.9039,1.8845,1.9047,1.9524,1.9459,1.9575,1.9702,1.9794,1.9666,1.9452,1.9444,1.943,1.943,1.943,1.9417,1.9377,1.9052,1.8835,1.8784,1.8611,1.8637,1.8838,1.8905,1.9065,1.9305,1.9363,1.9118,1.8905,1.8838,1.8744,1.8531,1.8437,1.8477,1.8464,1.8223,1.8006,1.7971,1.7257,1.6602,1.6336,1.6021,1.5825,1.5861,1.5885,1.5897,1.5946,1.5958,1.5934,1.5958,1.5934,1.6042,1.6247,1.6284,1.6404,1.6646,1.6706,1.6815,1.6951,1.6433,1.6066,1.6053,1.5367,1.4734,1.4966,1.4919,1.4934,1.5113,1.5009,1.4977,1.5006,1.477,1.3856,1.2508,1.1745,1.0608,0.898,0.8166,0.8022,0.7944,0.8037,0.8133,0.8329,0.8383,0.8508,0.8459,0.8223,0.8189,0.8011,0.7884,0.8423,0.8729,0.7758,0.7583,0.8713,0.9532,1.0722,1.1638,1.2262,1.1977,1.008,0.9221,0.8596,0.8007,0.889,0.9389,1.0343,1.1452,1.2692,1.8223,1.8398,1.8349,1.8601,1.9112,1.9136,1.9136,1.9136,1.8988,1.9191,1.9598,1.9789,1.9925,2.0015,2.0045,1.9933,1.9666,1.9537,1.943,1.9444,1.943,1.943,1.9377,1.9065,1.8824,1.8677,1.8744,1.8824,1.8945,1.9132,1.9292,1.9417,1.943,1.9212,1.8958,1.8861,1.8865,1.8784,1.8597,1.8664,1.8998,1.8611,1.8342,1.834,1.7906,1.7409,1.6838,1.6262,1.5897,1.5897,1.6066,1.6247,1.6404,1.6453,1.6453,1.6453,1.6453,1.6465,1.6549,1.6573,1.6682,1.6911,1.6972,1.7092,1.7322,1.6867,1.6449,1.6241,1.5558,1.5175,1.5091,1.498,1.5009,1.5167,1.5124,1.5092,1.504,1.4473,1.376,1.2925,1.1592,1.0309,0.9347,0.8588,0.8066,0.8048,0.816,0.835,0.8475,0.8426,0.8345,0.8312,0.8147,0.8206,0.8328,0.8187,0.8272,0.8497,0.7904,0.7743,0.8811,0.9688,1.0931,1.2025,1.265,1.2095,1.0163,0.9069,0.8609,0.8124,0.8445,0.8979,0.9545,1.0492,1.1704,1.8116,1.8275,1.83,1.8601,1.9112,1.9136,1.9136,1.9136,1.9136,1.92,1.9456,1.9775,1.9941,2.0011,2.0174,2.0119,1.9947,1.9653,1.9586,1.9626,1.9484,1.943,1.9345,1.9185,1.9011,1.8878,1.9011,1.9092,1.9105,1.9265,1.943,1.943,1.943,1.9279,1.9105,1.9092,1.9092,1.9052,1.8918,1.8998,1.9243,1.8905,1.8704,1.8771,1.8374,1.7952,1.7559,1.6825,1.6247,1.6132,1.6199,1.6416,1.6658,1.6694,1.6694,1.6694,1.6706,1.673,1.6827,1.6851,1.6903,1.7062,1.7179,1.7181,1.7149,1.6903,1.661,1.6195,1.5634,1.5371,1.5355,1.5185,1.5196,1.5529,1.5358,1.5083,1.4676,1.3918,1.3004,1.209,1.1011,0.9995,0.9035,0.8532,0.8092,0.8117,0.8253,0.8394,0.8459,0.8399,0.8318,0.8225,0.8095,0.8375,0.8866,0.8599,0.8202,0.8135,0.7956,0.8274,0.9005,0.9446,1.0324,1.1528,1.2308,1.1669,0.9992,0.9573,0.9071,0.8673,0.8034,0.8502,0.9097,0.9631,1.0634,1.8103,1.8251,1.8287,1.8577,1.9012,1.906,1.9136,1.9136,1.9136,1.9136,1.92,1.952,1.965,1.9763,2.0047,2.0174,2.018,1.9907,1.9907,1.9947,1.9693,1.947,1.9417,1.9372,1.9345,1.9305,1.9377,1.9403,1.9377,1.9417,1.943,1.943,1.943,1.943,1.9319,1.9417,1.939,1.9377,1.9377,1.939,1.9359,1.9105,1.9025,1.9239,1.8612,1.8285,1.8181,1.7565,1.6907,1.6423,1.638,1.6537,1.6706,1.6742,1.6803,1.6815,1.6754,1.6899,1.7056,1.7117,1.7086,1.7126,1.7208,1.7244,1.6773,1.6596,1.6399,1.6147,1.5594,1.5409,1.5616,1.5525,1.5576,1.5939,1.5653,1.5019,1.3995,1.3255,1.2303,1.0944,1.024,0.9694,0.8349,0.8011,0.807,0.8138,0.8236,0.8345,0.8388,0.8383,0.8339,0.8236,0.8106,0.8233,0.8605,0.8516,0.8133,0.8094,0.8032,0.8301,0.8843,0.9248,0.9367,1.0591,1.1423,1.0793,1.0095,0.9354,0.875,0.8178,0.802,0.8236,0.8549,0.8974,0.9594,1.7803,1.7998,1.8215,1.8481,1.8794,1.8988,1.9072,1.9136,1.9136,1.9136,1.92,1.9444,1.9598,1.965,2.0026,2.0195,2.0161,1.992,1.996,2.0134,1.9867,1.9559,1.9466,1.9586,1.9559,1.9399,1.9444,1.943,1.943,1.9457,1.9457,1.943,1.947,1.9444,1.943,1.9444,1.943,1.943,1.943,1.943,1.9417,1.935,1.9172,1.9025,1.9021,1.8797,1.842,1.7805,1.7358,1.6956,1.6875,1.7008,1.7213,1.7237,1.7225,1.7225,1.7249,1.7286,1.7346,1.737,1.736,1.7349,1.7256,1.7079,1.6903,1.6431,1.622,1.6071,1.5773,1.5671,1.5898,1.5948,1.6098,1.6245,1.6101,1.5456,1.4361,1.3338,1.2174,1.0853,0.9896,0.9056,0.8523,0.8139,0.8092,0.8191,0.8247,0.8367,0.8394,0.8361,0.8307,0.8236,0.8138,0.8084,0.813,0.8185,0.8144,0.8149,0.8136,0.8105,0.8599,0.8998,0.8908,0.9128,1.0016,0.9788,0.8969,0.8233,0.7802,0.7785,0.7768,0.7937,0.7895,0.8113,0.8877,1.7636,1.7949,1.8046,1.8336,1.8686,1.8855,1.8976,1.906,1.9136,1.9136,1.9136,1.9264,1.9444,1.9623,1.9991,2.0242,2.0289,1.9511,1.9668,2.0548,2.0441,2.008,1.9733,1.9746,1.9653,1.947,1.9492,1.9546,1.9586,1.9653,1.972,1.976,1.9733,1.9679,1.9559,1.9546,1.9479,1.9457,1.943,1.943,1.943,1.943,1.935,1.9158,1.9292,1.9137,1.8646,1.8173,1.772,1.7404,1.7207,1.7213,1.7443,1.7479,1.7479,1.7479,1.7479,1.7479,1.7479,1.7479,1.7432,1.7315,1.7197,1.7079,1.6844,1.6549,1.6442,1.6279,1.6107,1.6119,1.6267,1.6503,1.6795,1.7003,1.6917,1.6046,1.4301,1.3027,1.1797,1.0598,0.9724,0.9082,0.8647,0.842,0.8294,0.8251,0.8269,0.835,0.8394,0.8334,0.8285,0.8236,0.8209,0.8171,0.8155,0.8198,0.8236,0.8253,0.8231,0.8166,0.8312,0.8731,0.8494,0.8433,0.8787,0.8891,0.8259,0.7818,0.7812,0.7769,0.7693,0.7676,0.7709,0.7758,0.8414,1.7648,1.7829,1.7865,1.8216,1.8553,1.8638,1.8782,1.9,1.9012,1.9036,1.9136,1.9136,1.9264,1.9584,1.9801,2.0208,2.0436,1.9336,1.9797,2.0453,2.0645,2.0182,1.9567,1.9854,1.9826,1.9613,1.9746,1.9786,1.9826,2.004,2.01,2.0033,2.012,2.0054,1.9813,1.976,1.9639,1.947,1.943,1.943,1.943,1.943,1.9403,1.939,1.939,1.9301,1.8971,1.8609,1.8242,1.7715,1.7359,1.7319,1.7467,1.7479,1.7479,1.7503,1.7527,1.7539,1.7503,1.7527,1.7456,1.7209,1.7315,1.7185,1.6785,1.676,1.6747,1.6569,1.6476,1.6176,1.6089,1.6703,1.7115,1.7276,1.7553,1.6431,1.4045,1.2612,1.1549,0.9955,0.9816,0.9488,0.9094,0.8736,0.8649,0.8678,0.8629,0.8621,0.866,0.8578,0.8404,0.8291,0.8274,0.8263,0.8263,0.828,0.8301,0.8323,0.8301,0.8247,0.8176,0.8312,0.8088,0.8105,0.8491,0.8462,0.8105,0.7856,0.7861,0.7845,0.7785,0.7818,0.7917,0.8,0.8406,1.7708,1.7587,1.7852,1.7998,1.807,1.8275,1.8529,1.8758,1.877,1.8879,1.9036,1.9072,1.9136,1.9264,1.9584,1.9903,2.0259,1.9875,2.0247,2.0499,1.9802,1.9285,1.9137,1.9717,2.0186,1.9913,2.0033,1.9967,1.9887,2.0,2.0073,2.0,2.0214,2.0094,1.988,1.988,1.9666,1.9412,1.9372,1.9386,1.9341,1.9399,1.9457,1.9457,1.943,1.9359,1.9243,1.8939,1.8609,1.8222,1.7744,1.7465,1.7467,1.7503,1.7515,1.7563,1.7696,1.7768,1.7634,1.7672,1.7696,1.7409,1.7268,1.702,1.6973,1.6899,1.6931,1.6676,1.6254,1.5636,1.5053,1.5792,1.6484,1.6848,1.7414,1.6999,1.468,1.3625,1.2403,1.0735,0.9945,0.9761,0.9576,0.9315,0.9194,0.912,0.9039,0.9027,0.8932,0.8824,0.8671,0.8508,0.8443,0.8443,0.8383,0.8394,0.8416,0.8421,0.8394,0.8372,0.8296,0.8231,0.8144,0.8073,0.8081,0.8043,0.7982,0.7888,0.7894,0.7883,0.7933,0.7944,0.7944,0.8066,0.8299,1.772,1.7503,1.7636,1.7768,1.7889,1.8034,1.8251,1.8469,1.8505,1.865,1.8855,1.8891,1.8963,1.9136,1.9456,1.9775,2.0144,2.0459,1.9525,1.8545,1.8256,1.825,1.7277,1.8151,1.8787,1.8459,1.9136,1.9331,1.9453,2.0073,2.0601,2.0428,2.05,2.0521,2.0254,2.0187,1.9614,1.8991,1.9325,1.9325,1.8841,1.9325,1.9573,1.9533,1.9511,1.943,1.9359,1.9068,1.8706,1.8357,1.796,1.7667,1.7574,1.7599,1.766,1.7708,1.7913,1.801,1.7937,1.7853,1.7817,1.7672,1.7386,1.7268,1.7315,1.7303,1.7373,1.7141,1.6497,1.5494,1.4528,1.5441,1.6136,1.6471,1.6965,1.6458,1.4905,1.4231,1.3164,1.1155,1.0317,1.0156,0.9961,0.9767,0.9599,0.9478,0.9346,0.9335,0.9432,0.9318,0.9108,0.8959,0.8827,0.8695,0.8574,0.8519,0.8535,0.853,0.8508,0.8497,0.8465,0.8405,0.8345,0.8242,0.8122,0.8108,0.8048,0.8021,0.7932,0.7899,0.7894,0.796,0.8022,0.8194,0.8433,1.7781,1.7539,1.7503,1.7612,1.7852,1.7817,1.7974,1.8203,1.8227,1.8372,1.8589,1.8625,1.8758,1.9027,1.9306,1.9661,2.0094,2.0144,1.884,1.7453,1.8354,1.772,1.655,1.6776,1.6722,1.5993,1.7525,1.8223,1.8623,1.965,1.9966,2.0498,2.069,2.0529,2.0571,2.058,1.9811,1.8516,1.8885,1.9018,1.8334,1.8945,1.9423,1.972,1.9693,1.9537,1.9452,1.9232,1.894,1.8499,1.8269,1.8,1.7777,1.778,1.7973,1.7925,1.8203,1.8275,1.8191,1.807,1.7937,1.7889,1.7696,1.7563,1.7612,1.7805,1.7985,1.7521,1.6746,1.5289,1.4426,1.509,1.5805,1.6171,1.6263,1.5742,1.4598,1.4217,1.2903,1.1185,1.0516,1.0425,1.0359,1.013,1.005,0.9871,0.973,0.9639,0.9738,0.9728,0.9504,0.9226,0.9082,0.8811,0.8618,0.8552,0.8584,0.8584,0.8579,0.8573,0.8568,0.8524,0.8437,0.8318,0.8209,0.8144,0.8158,0.8084,0.8035,0.7959,0.7999,0.8032,0.8128,0.8261,0.8622,1.8058,1.7793,1.7575,1.7515,1.7551,1.7551,1.778,1.7913,1.795,1.8106,1.8336,1.8372,1.8529,1.8773,1.8821,1.931,1.9789,1.9674,1.9382,1.8991,1.9267,1.7946,1.6656,1.6398,1.5689,1.4586,1.5734,1.6935,1.6986,1.7415,1.8494,1.8957,1.9396,1.9739,2.0401,2.0593,1.9671,1.8178,1.8313,1.8191,1.8191,1.8606,1.9089,1.9681,1.9827,1.98,1.9599,1.974,1.9615,1.8927,1.8992,1.8769,1.8334,1.8081,1.8082,1.8227,1.8469,1.8565,1.8396,1.8275,1.8094,1.7937,1.7841,1.7817,1.7913,1.8215,1.8235,1.7616,1.6213,1.4484,1.3007,1.397,1.4585,1.4998,1.5385,1.5339,1.364,1.2888,1.2465,1.0913,1.0697,1.0651,1.0558,1.0478,1.0359,1.03,1.0267,1.0103,1.0094,1.006,0.9921,0.9649,0.9316,0.8978,0.8651,0.8645,0.859,0.859,0.8584,0.8584,0.8579,0.8584,0.8513,0.841,0.8339,0.8291,0.8253,0.8214,0.8171,0.8111,0.8147,0.8176,0.8302,0.8491,0.8879,1.842,1.8287,1.8155,1.8022,1.7913,1.7901,1.7805,1.7672,1.7672,1.7817,1.8058,1.8227,1.836,1.8529,1.8807,1.9283,1.9587,1.9789,1.9675,1.9726,1.9154,1.7818,1.6193,1.5944,1.4651,1.3613,1.425,1.5255,1.5738,1.6657,1.7161,1.7832,1.8541,1.9294,1.965,1.9751,1.8886,1.7758,1.7389,1.7389,1.7638,1.8518,1.9491,1.9318,1.9837,2.0007,1.996,2.0013,1.9926,1.9515,1.9477,1.9242,1.89,1.8668,1.8533,1.8579,1.8734,1.8843,1.8686,1.8589,1.8432,1.8312,1.8179,1.8094,1.8179,1.837,1.8029,1.6679,1.5197,1.3177,1.173,1.2799,1.3276,1.3462,1.4015,1.3734,1.2797,1.2053,1.1359,1.077,1.0717,1.0717,1.0717,1.0644,1.0717,1.0717,1.0717,1.0585,1.0452,1.0392,1.0259,0.9921,0.9522,0.9189,0.8851,0.8717,0.8656,0.859,0.859,0.859,0.859,0.859,0.8573,0.8519,0.847,0.8405,0.8378,0.8329,0.8296,0.8258,0.8331,0.8454,0.8545,0.8785,0.9125,1.877,1.877,1.8758,1.8613,1.8396,1.8312,1.801,1.7624,1.7575,1.766,1.7817,1.807,1.8239,1.8408,1.8761,1.9259,1.965,2.0066,1.9562,1.8787,1.8755,1.7471,1.5495,1.4707,1.4202,1.3095,1.303,1.3358,1.4362,1.5284,1.6128,1.6635,1.7742,1.8396,1.85,1.8541,1.7659,1.7199,1.6689,1.6689,1.7323,1.8911,1.9637,1.8411,1.9112,1.9504,1.9568,1.9762,1.992,1.9868,1.9872,1.9769,1.9399,1.9287,1.9136,1.8858,1.8963,1.9048,1.9,1.8807,1.8625,1.8577,1.8469,1.8273,1.7801,1.7474,1.6999,1.5135,1.3669,1.2586,1.1738,1.1915,1.2347,1.2475,1.2402,1.2139,1.1816,1.133,1.1023,1.0683,1.0711,1.0717,1.0717,1.0717,1.0717,1.0717,1.0717,1.0717,1.0585,1.0585,1.0452,1.012,0.9788,0.9383,0.9117,0.8851,0.8717,0.859,0.859,0.859,0.859,0.859,0.8573,0.8629,0.853,0.8475,0.8459,0.8448,0.8426,0.8448,0.857,0.8742,0.8833,0.9074,0.9473,1.9036,1.9036,1.9036,1.8879,1.865,1.8432,1.8143,1.7865,1.7901,1.7755,1.7648,1.7853,1.8131,1.8372,1.8613,1.8961,1.9262,1.941,1.9137,1.8408,1.8426,1.7293,1.5061,1.4837,1.4054,1.2964,1.2766,1.2832,1.3284,1.3547,1.4137,1.5043,1.5619,1.6009,1.7162,1.7238,1.7152,1.6926,1.6915,1.6915,1.7172,1.839,1.8146,1.7431,1.7368,1.8018,1.8704,1.9137,1.9462,2.0143,2.0388,2.0179,1.9776,1.9612,1.9382,1.9164,1.906,1.9136,1.9036,1.8867,1.8734,1.8734,1.8536,1.7999,1.7025,1.5934,1.531,1.5089,1.3538,1.2505,1.1904,1.2144,1.2291,1.2218,1.2042,1.1607,1.1099,1.1112,1.0736,1.0683,1.0717,1.0717,1.0717,1.0717,1.0717,1.0717,1.0717,1.0717,1.0717,1.0717,1.0651,1.0386,1.006,0.9721,0.9383,0.9117,0.8917,0.8723,0.8651,0.859,0.859,0.859,0.8656,0.864,0.8612,0.8679,0.88,0.8728,0.8612,0.8695,0.8926,0.9027,0.913,0.945,0.9758,1.9531,1.9555,1.9688,1.9603,1.9338,1.9072,1.8722,1.836,1.8167,1.8046,1.801,1.8215,1.8481,1.8674,1.8734,1.8776,1.8927,1.9149,1.9074,1.8533,1.828,1.7334,1.5931,1.505,1.4063,1.2922,1.2708,1.2634,1.2642,1.2774,1.3227,1.3678,1.452,1.5173,1.5814,1.5814,1.6333,1.6711,1.6969,1.698,1.7173,1.7485,1.7504,1.6829,1.6861,1.7532,1.8312,1.8601,1.9345,2.0089,2.041,2.0106,1.9777,1.9573,1.9444,1.9136,1.9072,1.9136,1.906,1.8951,1.8903,1.8574,1.8192,1.7085,1.5758,1.4521,1.3735,1.3669,1.2421,1.1724,1.1548,1.1476,1.1439,1.141,1.159,1.1294,1.0871,1.0788,1.0711,1.0717,1.0717,1.0717,1.0724,1.0744,1.0738,1.0717,1.0717,1.0717,1.0717,1.0717,1.0651,1.0585,1.0326,1.006,0.9721,0.9449,0.9117,0.8917,0.8651,0.8651,0.859,0.859,0.879,0.8856,0.8906,0.8972,0.9123,0.905,0.89,0.9059,0.9216,0.9376,0.9536,0.978,1.0116,1.9929,2.0002,2.0267,2.0231,1.9965,1.9754,1.9301,1.8879,1.8613,1.8456,1.8444,1.8589,1.8782,1.8903,1.8746,1.8678,1.8619,1.8989,1.8914,1.8642,1.8211,1.7237,1.5864,1.4866,1.3923,1.2422,1.2534,1.2582,1.2621,1.2632,1.27,1.2832,1.3744,1.4259,1.4455,1.4968,1.5749,1.7431,1.7829,1.7818,1.7496,1.7044,1.6786,1.6517,1.6592,1.7109,1.8139,1.8588,1.9164,2.0081,2.0272,1.9954,1.9686,1.9176,1.874,1.8355,1.8033,1.7636,1.8022,1.8332,1.874,1.8291,1.7378,1.6043,1.5089,1.3473,1.2618,1.2882,1.1703,1.0982,1.0717,1.0777,1.0822,1.0875,1.0822,1.0777,1.0724,1.0738,1.0731,1.0717,1.0717,1.0717,1.0738,1.0772,1.0765,1.0731,1.0717,1.0724,1.0738,1.0758,1.0725,1.0672,1.0612,1.0337,1.005,0.9771,0.9485,0.9189,0.8984,0.8923,0.8995,0.8995,0.9123,0.9189,0.9262,0.9322,0.9395,0.9322,0.925,0.9425,0.9588,0.9783,1.0019,1.0199,1.0351,2.0026,2.0279,2.0602,2.0484,2.0231,1.9965,1.9688,1.9463,1.9132,1.8891,1.871,1.8698,1.8746,1.877,1.8794,1.87,1.8422,1.8876,1.8503,1.8046,1.7697,1.6944,1.5717,1.4757,1.3873,1.2934,1.2566,1.2515,1.2556,1.237,1.2558,1.2832,1.3054,1.2972,1.3416,1.4259,1.5749,1.7367,1.8215,1.86,1.7958,1.712,1.6084,1.5499,1.5303,1.5554,1.6667,1.7829,1.8932,2.0043,2.0043,1.9584,1.9124,1.8407,1.7765,1.712,1.6343,1.5879,1.5879,1.7249,1.8033,1.7173,1.5944,1.4838,1.4119,1.2157,1.1703,1.2363,1.1534,1.0996,1.0797,1.079,1.1119,1.0778,1.0799,1.0799,1.0792,1.0765,1.0758,1.0731,1.0744,1.0778,1.0839,1.09,1.0853,1.0812,1.0792,1.0799,1.0833,1.086,1.084,1.0867,1.0867,1.0725,1.0422,1.012,0.9856,0.9607,0.9389,0.9473,0.9552,0.9546,0.9461,0.9619,0.9692,0.9679,0.9728,0.9794,0.9788,0.9794,0.9896,1.0169,1.0254,1.0384,1.0422,2.0279,2.0521,2.0629,2.0617,2.0496,2.0231,2.0062,1.9929,1.9688,1.9422,1.9145,1.9012,1.9024,1.912,1.9157,1.912,1.91,1.9224,1.8868,1.8518,1.8089,1.7564,1.6362,1.5162,1.4104,1.3379,1.266,1.203,1.2057,1.2105,1.2248,1.2344,1.2296,1.2196,1.27,1.3779,1.5257,1.6029,1.6926,1.7184,1.815,1.6408,1.5694,1.6861,1.5824,1.6278,1.7313,1.7636,1.8612,1.9392,1.9596,1.9084,1.8314,1.7464,1.6699,1.5844,1.5006,1.4408,1.394,1.5303,1.5814,1.4772,1.3857,1.3341,1.2832,1.1247,1.0982,1.1401,1.1925,1.1614,1.0871,1.1605,1.2203,1.1326,1.0894,1.09,1.0887,1.0867,1.086,1.0867,1.0887,1.0914,1.0982,1.105,1.0975,1.09,1.0887,1.088,1.0928,1.0962,1.1009,1.107,1.1077,1.1009,1.0703,1.0496,1.0283,1.0038,0.9867,0.9904,0.9929,0.9746,0.9673,0.9898,1.0111,1.0079,1.0193,1.0259,1.0259,1.0127,1.0253,1.0432,1.0524,1.0484,1.0543,2.0436,2.0653,2.0665,2.0665,2.0641,2.0472,2.0468,2.0352,2.011,1.9845,1.9579,1.9398,1.941,1.9555,1.9579,1.9495,1.9483,1.9645,1.9615,1.9411,1.9096,1.8642,1.7637,1.6294,1.4707,1.3915,1.2696,1.1859,1.1944,1.1935,1.1935,1.1859,1.1743,1.1769,1.2342,1.3369,1.4536,1.5147,1.5787,1.635,1.7885,1.6817,1.5668,1.7087,1.6278,1.6148,1.6861,1.7313,1.8215,1.9032,1.9209,1.8471,1.7575,1.6619,1.5797,1.4809,1.3914,1.3228,1.2889,1.3301,1.3809,1.3267,1.3013,1.2188,1.1164,1.0758,1.0937,1.1747,1.2329,1.2187,1.1234,1.2104,1.2118,1.1098,1.105,1.1056,1.1036,1.1009,1.1009,1.1016,1.1036,1.1043,1.1104,1.1165,1.1145,1.1043,1.0941,1.0968,1.105,1.1084,1.1111,1.1172,1.1233,1.1138,1.1043,1.0765,1.055,1.0451,1.0305,1.0309,1.0255,1.0076,1.0063,1.0376,1.0497,1.0485,1.0525,1.0525,1.0459,1.0392,1.0518,1.0644,1.0638,1.0604,1.0617,2.0436,2.0653,2.0665,2.0665,2.0665,2.0665,2.0641,2.0581,2.034,2.0098,1.9881,1.982,1.982,1.9869,1.9869,1.9796,1.9772,2.0038,2.0122,1.9983,1.9699,1.9415,1.8122,1.65,1.478,1.4094,1.2742,1.186,1.2059,1.1845,1.1615,1.1524,1.1511,1.1606,1.2246,1.3191,1.4517,1.5985,1.6727,1.7192,1.7859,1.7577,1.7108,1.6892,1.672,1.673,1.6872,1.7453,1.8366,1.9104,1.9378,1.8669,1.7467,1.6275,1.5066,1.3747,1.2142,1.1286,1.1137,1.2199,1.2616,1.2534,1.2359,1.194,1.1142,1.0927,1.1471,1.2482,1.2354,1.2293,1.2186,1.2268,1.1877,1.1351,1.1309,1.1219,1.1192,1.1165,1.1165,1.1165,1.1165,1.1172,1.1226,1.1274,1.1294,1.1206,1.1043,1.1056,1.1185,1.1206,1.1233,1.1314,1.1382,1.1294,1.1185,1.1056,1.0887,1.0779,1.0705,1.0677,1.0717,1.0697,1.0758,1.0894,1.0847,1.0732,1.0725,1.0664,1.0625,1.0592,1.0598,1.0717,1.0717,1.0717,1.0717,2.0593,2.0665,2.0665,2.0665,2.0665,2.0665,2.0665,2.0617,2.04,2.0231,2.011,1.9977,2.0002,2.0098,2.0158,2.0158,2.0291,2.034,2.0436,2.0299,1.9692,1.9008,1.7739,1.6014,1.4523,1.3736,1.2474,1.1621,1.1749,1.1614,1.1564,1.1477,1.1585,1.1629,1.1836,1.246,1.3235,1.4738,1.5375,1.6092,1.7918,1.8072,1.7993,1.8078,1.8012,1.7826,1.7509,1.8102,1.8612,1.9261,1.9495,1.8855,1.7617,1.635,1.4855,1.3428,1.1981,1.1159,1.1152,1.1568,1.1639,1.1649,1.1612,1.1543,1.1118,1.105,1.2025,1.3043,1.2851,1.3036,1.3458,1.342,1.2879,1.1761,1.1477,1.1409,1.1369,1.1335,1.1314,1.1314,1.1314,1.1457,1.1545,1.1525,1.1525,1.1497,1.1369,1.1335,1.143,1.1375,1.1362,1.147,1.1525,1.1443,1.1348,1.1219,1.1084,1.0975,1.1016,1.1062,1.1145,1.1111,1.1151,1.1172,1.1077,1.0989,1.0921,1.0867,1.0867,1.0799,1.0833,1.0778,1.0758,1.0744,1.0717,2.0665,2.0665,2.0665,2.0665,2.0678,2.0762,2.081,2.075,2.0533,2.0412,2.0376,2.0231,2.0243,2.0388,2.0436,2.0529,2.0665,2.0665,2.0098,1.9889,1.8971,1.8121,1.6916,1.5292,1.4219,1.3421,1.2465,1.1538,1.1613,1.1525,1.1525,1.1722,1.2115,1.2555,1.2632,1.2874,1.3584,1.506,1.5953,1.6797,1.8048,1.8518,1.8783,1.8703,1.8657,1.8665,1.8615,1.8776,1.8953,1.9448,1.9579,1.9131,1.7922,1.6509,1.5027,1.3669,1.2226,1.1434,1.1241,1.1214,1.1303,1.1255,1.1063,1.1124,1.1233,1.1275,1.2842,1.3734,1.3687,1.4093,1.4584,1.4394,1.2907,1.1694,1.1674,1.1606,1.1538,1.1504,1.1511,1.1511,1.1545,1.1708,1.1837,1.1809,1.1782,1.1748,1.1708,1.1681,1.1626,1.1531,1.1491,1.1599,1.1633,1.1545,1.1463,1.1389,1.1253,1.1111,1.1165,1.1267,1.124,1.1199,1.1287,1.1341,1.1199,1.109,1.105,1.1023,1.1023,1.1002,1.0975,1.0907,1.0819,1.0799,1.0792,2.0665,2.0665,2.0665,2.0665,2.0702,2.0895,2.1016,2.104,2.0856,2.0747,2.0678,2.0711,2.0593,2.0629,2.0653,2.0653,2.0665,2.0665,1.982,1.8832,1.8191,1.7268,1.5929,1.4441,1.3531,1.3103,1.2452,1.1592,1.1626,1.1674,1.1674,1.2086,1.2741,1.3603,1.3998,1.4285,1.507,1.6242,1.7103,1.7866,1.8812,1.9502,1.9341,1.9057,1.8653,1.8541,1.8496,1.8518,1.9055,1.9586,2.0134,1.9334,1.827,1.6797,1.5397,1.3839,1.2108,1.1614,1.1328,1.1398,1.1348,1.1416,1.1301,1.1396,1.174,1.2087,1.3531,1.4411,1.4486,1.5113,1.5591,1.3814,1.2143,1.185,1.185,1.1782,1.1714,1.1694,1.1721,1.1742,1.1775,1.1891,1.2006,1.202,1.1959,1.1952,1.1904,1.1843,1.1769,1.1606,1.1592,1.1708,1.1708,1.1626,1.1552,1.1477,1.1409,1.1267,1.1274,1.1341,1.1307,1.1321,1.1402,1.1409,1.1274,1.1192,1.1179,1.1172,1.1172,1.1151,1.1158,1.1077,1.1009,1.0962,1.0928,2.0665,2.0665,2.0665,2.0665,2.0678,2.082,2.0991,2.1293,2.1135,2.1013,2.1013,2.075,2.069,2.0665,2.0665,2.0665,2.0665,2.0457,1.968,1.8692,1.7409,1.5999,1.4512,1.3246,1.2466,1.2194,1.1921,1.1687,1.1782,1.185,1.2633,1.361,1.3157,1.4491,1.5641,1.6145,1.6836,1.7516,1.825,1.8738,1.945,2.0066,1.9778,1.9356,1.9333,1.9275,1.9071,1.9354,1.9867,2.023,2.0496,2.0178,2.0274,1.7621,1.5248,1.2707,1.1949,1.185,1.1862,1.1694,1.1681,1.1755,1.1701,1.2532,1.3039,1.3665,1.4488,1.5044,1.4866,1.5064,1.486,1.3506,1.2277,1.2054,1.2026,1.1959,1.1898,1.1904,1.1932,1.1952,1.1986,1.2054,1.2169,1.2149,1.2094,1.2115,1.2101,1.2026,1.1904,1.1742,1.1742,1.1857,1.1742,1.1647,1.1586,1.1518,1.1484,1.1443,1.1436,1.1436,1.1457,1.1477,1.1531,1.1518,1.145,1.1382,1.1328,1.1328,1.1328,1.1369,1.1375,1.128,1.1199,1.1138,1.1043,2.0665,2.0665,2.0665,2.0786,2.0967,2.0991,2.1293,2.1643,2.134,2.1086,2.0977,2.0929,2.0832,2.0678,2.0665,2.0665,2.0665,2.0596,1.9889,1.8331,1.6866,1.5434,1.388,1.2417,1.1877,1.1674,1.1721,1.1796,1.1898,1.1992,1.2617,1.3177,1.3014,1.5182,1.6891,1.7834,1.8639,1.9019,1.9288,1.9427,1.9761,2.0233,2.0185,1.9875,2.0081,2.0102,1.9724,2.0048,2.0292,2.025,2.0192,2.0005,1.9435,1.6601,1.4541,1.2367,1.2046,1.2013,1.1979,1.1945,1.1986,1.2101,1.2108,1.2911,1.3641,1.4221,1.5376,1.624,1.5223,1.4406,1.392,1.3408,1.2802,1.2271,1.2196,1.2128,1.2121,1.2121,1.2135,1.2149,1.2182,1.2237,1.2264,1.2237,1.2223,1.2237,1.225,1.2237,1.2081,1.1891,1.1932,1.2054,1.185,1.166,1.1606,1.1565,1.1504,1.1491,1.1511,1.1525,1.1572,1.1647,1.1694,1.1701,1.1674,1.1606,1.1538,1.1497,1.1491,1.1531,1.1525,1.143,1.1341,1.128,1.1158,2.0678,2.0714,2.0726,2.1052,2.1474,2.1462,2.1704,2.2164,2.1474,2.1038,2.0847,2.1038,2.0965,2.0702,2.0665,2.0714,2.0738,2.0762,1.9748,1.8325,1.6994,1.5355,1.357,1.2381,1.1921,1.183,1.1864,1.1904,1.1972,1.2127,1.222,1.2283,1.4365,1.6415,1.7796,1.9025,1.9651,1.9746,2.0029,2.0297,1.9564,1.9761,2.0133,1.9354,1.9831,2.0391,1.9733,1.9733,2.0087,1.9662,1.92,1.8834,1.6841,1.5354,1.3741,1.2738,1.2176,1.2142,1.2128,1.2081,1.2094,1.2217,1.2436,1.3665,1.4653,1.5183,1.6256,1.6337,1.5327,1.4501,1.3915,1.3192,1.2588,1.2359,1.2325,1.2271,1.225,1.2264,1.2291,1.2305,1.2311,1.2366,1.2393,1.2372,1.2393,1.2386,1.2366,1.2379,1.2284,1.2074,1.2054,1.2155,1.1884,1.1667,1.1694,1.164,1.1531,1.1511,1.1565,1.1558,1.1565,1.1694,1.1864,1.1796,1.1714,1.1782,1.1755,1.1667,1.1599,1.1633,1.1613,1.1552,1.1477,1.1402,1.1267,2.0786,2.1062,2.1268,2.1486,2.1728,2.1559,2.1535,2.1655,2.1486,2.1317,2.1257,2.1171,2.0849,2.0575,2.0678,2.068,2.065,2.0602,1.9349,1.797,1.6692,1.5197,1.3096,1.2339,1.1959,1.1993,1.2013,1.2115,1.2373,1.2487,1.3318,1.5134,1.6095,1.6509,1.9233,2.0269,1.9915,2.0069,2.0662,2.0862,2.0367,2.0462,2.0744,2.0521,2.0958,2.1019,2.0431,1.9871,1.977,1.9336,1.8214,1.6812,1.4948,1.4596,1.3717,1.2615,1.2264,1.2298,1.2305,1.225,1.2223,1.2816,1.3413,1.5025,1.6077,1.6419,1.6419,1.6095,1.5514,1.4602,1.3785,1.2957,1.2447,1.2454,1.2467,1.2433,1.24,1.2427,1.2454,1.244,1.244,1.2467,1.2501,1.2522,1.2556,1.2535,1.2488,1.2467,1.244,1.2291,1.2088,1.2088,1.1823,1.1667,1.1728,1.1728,1.1633,1.1613,1.1667,1.1626,1.1586,1.1769,1.1952,1.1803,1.1728,1.1837,1.1857,1.1714,1.1674,1.1721,1.1687,1.1613,1.1558,1.1497,1.1355,2.0965,2.1304,2.1269,2.1522,2.1619,2.1414,2.1366,2.1462,2.1474,2.1402,2.1365,2.1124,2.0674,2.0157,2.0378,1.9828,1.981,2.045,1.9025,1.7451,1.636,1.5216,1.3718,1.238,1.219,1.2142,1.2306,1.2485,1.304,1.3447,1.4604,1.6638,1.6462,1.7666,2.0546,2.0082,2.0082,2.0344,2.1209,2.1246,2.1098,2.116,2.0805,2.0732,2.0947,2.1173,2.0432,1.9632,1.9043,1.7783,1.6142,1.5529,1.4291,1.3923,1.3293,1.2838,1.2556,1.2515,1.2522,1.2474,1.2379,1.2895,1.3969,1.5336,1.4734,1.5151,1.6813,1.6548,1.5362,1.4454,1.341,1.2524,1.2556,1.2603,1.2671,1.2698,1.2671,1.2671,1.2596,1.2474,1.2501,1.2556,1.2556,1.2501,1.2556,1.2657,1.261,1.2596,1.2556,1.2433,1.225,1.2074,1.1843,1.1789,1.1891,1.185,1.1742,1.1748,1.1796,1.187,1.1925,1.1986,1.202,1.1925,1.1898,1.1979,1.1952,1.1823,1.1762,1.1796,1.1748,1.1674,1.1619,1.1558,1.1443,2.1122,2.1414,2.1221,2.1257,2.1426,2.1233,2.1257,2.145,2.1474,2.1317,2.1171,2.1135,2.0108,1.9781,1.9935,1.8595,1.8331,1.9656,1.8526,1.6902,1.6223,1.486,1.3716,1.2749,1.2457,1.2298,1.2442,1.3457,1.4425,1.4533,1.5251,1.7243,1.8558,1.961,2.0005,2.0793,2.1545,2.1412,2.1691,2.1631,2.1571,2.1559,2.0895,2.0665,2.0735,2.1009,2.028,1.9117,1.8418,1.6776,1.4879,1.403,1.3767,1.3438,1.3162,1.2786,1.2725,1.2712,1.2718,1.2657,1.2589,1.2951,1.4137,1.4499,1.4045,1.4721,1.6469,1.6393,1.5202,1.4228,1.3175,1.2569,1.2691,1.2773,1.2854,1.2908,1.2888,1.2854,1.2698,1.2542,1.2562,1.2623,1.2603,1.2542,1.2603,1.2712,1.2739,1.2732,1.2671,1.2467,1.2277,1.2142,1.1972,1.1972,1.2101,1.2006,1.1918,1.1952,1.202,1.2149,1.2216,1.2135,1.2101,1.2108,1.2108,1.2094,1.2074,1.1986,1.1938,1.1891,1.1803,1.1728,1.1599,1.1538,1.1511,2.1378,2.1474,2.1414,2.1438,2.1462,2.1402,2.1438,2.1474,2.1474,2.1317,2.1207,2.1052,2.0674,2.0332,2.0732,1.9817,1.8352,1.9321,1.7645,1.553,1.5645,1.4454,1.3283,1.2706,1.249,1.2433,1.2553,1.3322,1.4746,1.486,1.5963,1.8508,1.8927,2.0016,2.1311,2.1897,2.1945,2.2019,2.2103,2.2029,2.2091,2.1993,2.1883,2.1929,2.2169,2.2397,2.1789,1.9569,1.8494,1.6955,1.4908,1.3591,1.3216,1.3223,1.3061,1.2949,1.2888,1.2861,1.2847,1.2759,1.2684,1.2841,1.3956,1.4809,1.4532,1.4672,1.5682,1.5643,1.468,1.4117,1.3325,1.2979,1.2915,1.2935,1.299,1.2983,1.2963,1.2874,1.2752,1.2657,1.261,1.2657,1.2691,1.2691,1.2759,1.2827,1.282,1.2807,1.2752,1.2535,1.2318,1.2203,1.2088,1.2047,1.2135,1.2176,1.2149,1.2182,1.2216,1.2298,1.2284,1.2149,1.2121,1.2149,1.2128,1.2094,1.2081,1.2128,1.206,1.1999,1.1884,1.1775,1.1633,1.1558,1.1558]}]]